GFSSW_250_spd_000.txt.gz
Wind_Speed
25 23 22 21 19 18 16 13 11 10 11 12 10 10 12 14 16 19 24 25 27 27 28 30 29 29 11 5 15 14 17 19 20 20 17 16 13 14 17 19 17 21 17 18 19
32 31 29 27 26 23 22 22 19 14 14 13 13 10 9 11 13 14 16 21 22 24 24 26 29 29 27 17 11 18 13 21 20 13 9 8 11 9 7 8 11 18 17 14 15
39 37 36 33 31 31 28 25 25 22 19 17 16 15 12 11 12 11 11 14 18 20 22 22 24 28 30 25 11 12 14 12 11 10 3 4 7 7 5 7 7 3 2 2 3
39 39 41 42 39 37 34 31 29 27 24 23 21 19 18 15 15 12 10 10 13 16 18 19 21 23 26 27 20 6 10 12 8 7 3 3 3 4 4 7 8 6 8 7 6
42 41 40 41 41 42 40 38 36 33 32 30 27 24 22 22 20 15 13 9 9 11 15 17 18 21 24 27 27 18 8 6 7 4 2 6 3 2 2 2 3 6 8 8 9
51 49 46 45 43 42 41 43 41 40 38 36 34 32 28 26 23 20 17 14 10 8 12 14 16 18 21 25 25 24 18 15 6 2 7 9 9 6 6 7 10 5 4 4 2
58 57 55 52 50 46 43 42 43 44 45 42 39 39 37 29 30 26 20 18 14 11 9 11 13 13 15 17 21 21 20 20 15 10 7 3 5 7 4 2 8 11 10 9 10
62 63 62 61 57 53 51 49 46 46 45 46 45 43 44 40 37 30 27 22 21 16 12 10 11 12 10 12 15 18 16 20 19 15 13 12 11 12 11 12 14 17 21 19 16
68 67 66 67 67 63 57 57 55 53 51 49 48 47 44 47 42 39 33 30 24 22 19 13 10 14 8 7 9 11 12 14 16 15 16 12 14 15 17 18 18 17 14 13 13
73 73 74 73 73 69 67 65 62 61 60 57 55 54 49 46 43 46 41 36 30 25 24 21 17 15 15 8 3 4 6 6 7 7 9 9 9 9 10 12 10 10 10 11 12
72 75 77 78 79 78 75 72 72 69 67 66 61 58 58 52 49 48 47 42 40 31 30 28 26 21 17 13 7 3 1 2 3 4 3 3 5 6 4 6 6 9 11 11 13
55 62 68 76 81 81 80 80 79 75 76 75 70 65 61 56 56 53 49 45 43 41 36 34 37 25 19 21 15 11 8 6 5 3 3 1 2 2 2 3 3 4 5 6 7
55 57 61 60 66 77 82 83 83 82 79 87 76 75 73 59 64 59 53 50 45 45 42 44 46 32 26 23 25 20 16 13 9 10 6 4 2 2 4 4 4 3 1 2 3
58 58 61 60 58 61 69 78 82 83 84 93 84 80 79 68 69 68 59 56 52 50 46 47 48 36 33 30 30 30 24 18 18 14 10 10 6 4 5 5 7 7 10 10 12
61 61 62 63 63 56 56 59 73 76 82 94 92 85 82 76 80 73 69 62 58 57 52 47 50 42 38 39 39 39 31 22 21 21 18 15 11 8 8 10 10 11 10 15 15
58 59 65 67 67 64 62 57 50 66 70 87 93 92 88 85 85 84 78 71 68 63 57 56 58 47 44 44 42 42 35 27 24 26 27 21 19 16 11 12 13 14 14 15 17
61 59 61 66 68 68 67 67 54 46 58 78 83 91 94 90 90 88 85 82 75 69 63 61 61 55 49 47 46 41 33 32 30 25 34 26 25 23 19 18 18 19 18 16 18
64 64 63 61 65 69 71 70 64 63 54 67 76 82 93 93 94 93 88 87 83 76 74 69 65 61 53 49 50 49 42 36 36 36 38 30 32 28 26 28 29 28 27 25 26
64 65 68 64 67 70 67 68 66 66 65 61 69 78 83 94 97 97 93 89 86 83 79 75 71 69 64 61 58 51 47 46 43 42 41 36 36 31 32 34 34 33 34 32 33
68 69 69 69 67 69 71 66 63 71 70 61 58 72 80 86 96 100 97 92 90 87 85 82 79 77 74 70 63 56 55 54 46 43 41 40 38 41 35 39 37 39 37 37 39
68 74 71 69 70 70 66 65 66 72 71 63 53 62 78 85 90 96 97 96 93 90 88 85 83 83 82 73 68 64 61 57 52 49 43 42 39 42 44 43 40 42 42 41 42
74 74 73 72 71 69 66 68 68 68 65 60 55 50 72 84 85 91 95 98 97 97 93 89 87 87 81 78 77 74 67 64 62 53 49 46 43 48 46 47 46 44 44 45 46
78 79 74 73 71 70 72 65 67 64 65 60 56 50 66 81 85 86 92 99 104 102 98 93 88 85 87 85 77 71 66 65 65 61 54 50 46 50 48 46 46 47 49 47 46
84 84 79 79 74 76 69 68 70 68 66 66 62 58 53 71 81 84 89 100 105 104 96 96 90 86 84 75 74 72 69 67 68 65 57 53 54 56 55 54 50 51 50 48 50
87 84 87 84 82 75 75 65 72 70 69 69 66 63 58 48 72 77 85 95 103 102 99 98 92 87 82 84 82 77 75 74 72 67 68 61 60 59 58 56 53 52 54 51 54
97 96 95 94 92 87 80 76 73 72 72 70 68 70 61 44 54 67 82 92 101 103 101 98 89 88 84 86 86 83 78 78 76 74 70 66 63 63 61 58 57 57 57 56 59
95 95 95 96 96 94 90 85 79 78 72 75 76 73 65 53 51 65 79 85 94 99 100 96 91 92 87 86 86 89 81 79 77 77 73 68 66 68 65 62 63 64 62 63 66

GFSSW_250_spd_003.txt.gz
Wind_Speed
26 25 23 22 21 20 19 17 13 11 11 13 10 10 11 11 16 19 21 23 24 25 25 26 27 20 13 3 14 13 15 17 20 19 21 19 18 20 16 16 17 17 15 17 15
32 31 29 29 27 26 24 23 21 19 17 15 13 12 11 10 9 13 16 18 20 22 23 24 25 27 24 8 7 15 14 14 15 17 18 19 18 16 15 12 9 7 10 13 15
35 35 36 35 34 32 31 30 27 26 22 20 18 16 16 13 9 9 11 13 16 18 20 22 24 27 28 21 2 15 15 14 20 19 20 17 11 8 6 2 2 2 4 5 3
35 35 35 35 36 37 37 35 33 31 30 24 23 21 20 18 15 11 8 10 12 14 16 18 18 22 25 28 16 11 18 10 11 13 13 11 7 5 5 6 7 6 1 5 4
40 38 37 36 36 35 35 37 39 39 36 33 30 29 26 22 22 17 14 10 9 11 12 14 15 17 21 24 27 15 9 10 9 10 13 13 7 9 6 2 4 8 8 8 7
49 48 47 45 43 41 39 39 38 38 39 40 37 36 33 26 29 25 16 14 11 10 10 11 11 13 16 20 23 22 11 7 9 10 10 13 10 8 8 7 10 12 8 5 3
57 56 55 54 54 49 48 47 43 42 40 40 41 40 38 33 34 27 23 19 16 14 12 11 8 10 10 13 17 20 19 13 13 11 7 9 12 11 11 10 8 10 12 13 11
62 63 63 62 62 59 56 54 51 48 46 44 43 44 41 42 38 34 31 25 22 19 17 15 10 7 9 8 9 15 16 16 18 16 13 12 10 8 7 8 12 15 19 21 21
66 67 67 66 67 64 59 61 60 56 54 52 49 48 43 42 39 39 37 32 28 25 21 20 18 9 7 7 5 7 12 11 12 18 19 18 16 14 15 18 18 15 17 17 16
65 68 69 72 72 70 68 67 67 64 61 60 57 53 52 48 45 40 38 38 32 30 26 25 22 18 11 10 7 1 5 6 6 11 14 12 13 16 15 11 12 12 13 15 17
48 52 60 61 67 72 73 72 73 71 69 66 64 61 58 54 54 48 44 40 38 34 34 31 30 27 18 15 10 7 3 4 1 5 8 7 7 8 7 7 11 16 15 15 13
47 51 51 52 57 58 66 70 75 75 78 75 69 70 65 61 64 59 51 45 42 41 40 37 38 34 26 21 17 14 10 7 5 2 1 4 5 5 7 10 10 9 7 5 6
48 49 48 49 53 54 55 58 66 70 76 83 77 75 73 67 70 68 61 53 49 47 44 41 48 39 33 30 24 22 19 14 11 10 9 8 7 7 7 11 10 9 6 3 3
48 50 53 53 51 48 53 57 54 57 64 74 82 79 79 77 77 75 68 61 56 53 52 46 52 42 38 37 36 31 28 22 18 17 13 14 13 11 9 13 12 11 12 10 10
49 51 56 58 59 54 50 52 56 54 53 62 67 79 83 82 82 80 76 72 63 59 56 52 55 49 41 43 44 44 36 30 25 22 20 19 16 13 14 14 12 11 13 14 12
52 50 56 57 59 60 60 60 52 52 54 58 55 64 75 82 86 85 84 81 76 68 61 60 62 54 48 48 46 50 39 34 31 27 24 27 23 21 18 19 15 14 14 16 15
64 59 58 61 59 64 63 64 63 59 58 57 58 59 68 77 81 90 87 86 83 77 67 66 64 61 56 53 49 46 46 35 32 30 29 29 29 27 24 24 21 19 18 17 18
74 69 65 61 64 62 66 68 64 60 63 61 55 55 58 67 77 80 90 90 87 82 77 73 72 67 62 58 54 52 51 44 37 34 38 36 35 28 28 28 28 27 24 23 24
76 75 73 68 67 68 70 65 61 64 65 67 64 55 49 59 70 77 82 91 92 89 84 80 76 75 71 68 64 57 53 49 46 40 39 39 40 32 33 33 32 31 30 29 29
78 81 80 77 72 69 71 65 67 67 71 71 70 63 49 50 53 63 76 85 96 95 92 88 85 82 78 77 71 65 61 59 50 44 42 44 44 42 38 39 37 35 36 34 34
86 85 84 80 77 76 71 70 69 73 75 73 71 70 58 52 53 50 68 81 92 100 98 96 92 88 87 82 75 72 69 63 55 49 46 46 44 50 46 46 43 43 41 40 40
88 90 89 88 80 75 72 71 72 72 76 77 75 72 72 63 50 49 59 80 90 99 103 100 98 96 87 83 84 80 76 70 64 54 52 53 52 55 55 49 47 47 45 45 45
100 91 90 90 86 81 74 75 75 76 78 77 79 74 72 67 53 51 57 78 87 93 103 105 101 97 96 93 88 83 76 71 68 65 58 55 53 58 58 55 51 51 48 49 48
96 93 92 88 89 87 82 81 78 79 79 80 78 76 76 72 60 54 57 71 86 92 97 105 104 100 97 89 85 85 80 75 72 69 63 55 55 62 60 58 55 54 53 54 54
99 98 97 93 93 90 86 84 83 81 80 81 78 76 77 72 68 55 57 67 80 91 95 97 105 104 97 94 93 89 86 81 76 68 64 58 61 64 63 61 60 58 55 56 55
101 104 102 104 100 95 92 90 89 84 82 83 81 79 78 72 72 63 66 63 74 88 93 92 99 104 100 98 98 94 90 87 81 75 71 68 64 65 66 63 61 58 56 58 59
101 98 106 109 110 106 101 96 95 92 85 84 79 76 76 74 73 69 63 67 65 83 88 90 93 101 101 102 104 103 96 92 86 79 75 70 66 70 68 65 63 62 59 60 62

GFSSW_250_spd_006.txt.gz
Wind_Speed
24 23 23 22 22 21 19 19 18 16 15 12 12 9 9 10 14 15 17 20 22 23 22 22 23 17 5 6 14 15 15 16 17 16 16 15 14 13 15 15 15 14 16 19 19
31 31 30 29 28 28 27 24 22 21 21 20 16 13 10 9 11 13 13 14 17 19 19 19 19 23 17 5 15 16 18 19 17 17 16 16 15 15 18 18 16 12 6 6 7
32 33 34 34 33 33 33 32 29 27 26 25 24 19 16 13 10 13 14 12 12 14 17 18 19 18 23 15 3 17 17 17 14 12 12 13 14 16 14 11 12 5 2 1 2
35 35 35 33 33 33 31 31 31 32 31 29 28 26 20 17 17 12 16 15 11 10 12 16 17 19 21 20 10 11 18 15 10 13 14 14 19 15 8 10 7 7 5 2 3
42 41 39 37 34 34 34 33 31 30 30 31 33 32 28 22 24 18 16 17 16 11 7 10 13 16 17 22 16 7 10 13 8 10 13 14 16 14 10 10 9 5 5 7 6
49 48 47 46 45 43 41 39 36 36 34 33 32 32 31 28 31 23 21 19 18 17 11 6 9 11 14 15 18 10 2 6 11 13 18 16 17 15 12 9 7 7 10 10 5
54 55 54 52 51 50 50 48 46 43 42 39 39 36 32 33 31 30 28 24 21 20 18 9 6 6 8 10 14 16 9 3 6 13 15 17 14 11 8 7 9 6 6 8 11
58 57 58 59 57 56 58 57 55 50 50 48 45 44 37 36 33 34 34 30 26 24 24 18 10 7 4 3 6 11 12 9 6 7 12 16 15 11 8 4 3 4 8 15 18
58 60 61 63 63 62 62 63 62 59 56 56 53 50 45 42 39 36 36 37 32 29 28 25 20 13 10 5 1 3 7 9 12 10 12 14 14 14 11 11 14 16 20 18 18
44 47 49 54 58 64 65 66 66 65 62 60 57 55 53 51 49 44 40 36 36 36 33 32 28 21 16 13 7 3 3 7 7 8 14 18 21 22 21 19 16 15 13 18 20
43 45 46 47 48 52 53 59 65 68 71 67 65 64 57 57 57 53 48 42 38 36 36 38 35 32 21 17 15 10 8 7 8 3 5 11 18 19 16 15 15 16 18 16 17
44 47 45 44 45 41 48 51 56 58 65 70 69 71 67 63 64 60 57 51 46 43 40 38 41 41 30 24 23 18 15 13 11 10 8 10 13 12 11 14 17 15 11 10 7
44 47 48 48 51 50 46 42 46 52 58 65 65 69 71 70 67 67 64 60 55 49 46 43 47 46 37 33 30 26 23 19 15 14 15 13 14 13 13 14 15 15 12 9 8
45 47 51 50 50 46 50 52 45 42 47 58 58 59 65 71 73 71 70 68 63 59 55 52 50 50 43 39 38 35 31 26 20 20 19 16 15 15 16 19 20 18 17 13 11
57 55 54 55 50 50 55 54 55 53 45 46 51 56 58 65 71 74 75 74 72 68 62 58 57 55 48 46 44 45 39 32 29 27 20 21 19 17 17 16 22 21 21 21 17
61 60 63 62 60 58 58 54 54 59 54 55 51 49 54 60 65 71 77 78 78 76 70 67 63 61 55 54 52 50 43 38 34 33 25 27 25 21 23 19 20 22 23 24 22
58 62 63 68 66 63 63 63 61 58 54 62 61 54 51 51 62 67 73 80 82 81 78 76 69 68 61 57 58 57 45 39 35 35 29 33 30 30 27 23 23 21 23 23 22
70 69 71 73 75 72 66 66 66 61 58 64 63 62 58 51 48 57 66 74 83 86 84 82 76 73 68 61 62 62 55 45 42 38 38 42 35 39 33 30 30 28 26 27 25
77 76 76 78 84 82 78 66 68 69 65 67 69 66 63 57 53 51 60 71 76 84 88 87 83 84 78 74 70 65 62 52 51 47 44 44 46 44 35 34 37 37 33 32 30
87 88 90 89 89 90 83 74 75 74 74 74 70 72 67 65 61 54 50 59 69 78 86 90 89 88 87 83 78 72 66 67 56 51 45 47 46 47 42 41 41 38 37 36 34
96 96 100 104 99 98 90 84 85 83 80 79 77 73 73 71 67 64 57 56 59 73 81 88 94 94 94 88 82 78 76 70 62 58 51 49 49 54 45 46 46 44 41 40 39
105 106 109 113 114 109 103 100 96 91 86 83 81 81 78 73 71 71 64 63 57 69 80 82 90 97 94 93 92 89 85 80 73 59 54 51 53 61 51 48 50 49 47 46 45
114 110 111 118 113 114 109 108 101 100 93 85 84 82 78 72 76 72 71 68 64 64 71 81 82 92 99 99 97 95 86 82 76 68 61 57 57 60 64 56 54 54 50 48 46
127 120 117 115 117 115 115 105 107 101 96 85 85 83 82 77 71 74 73 73 70 68 66 74 81 85 94 99 100 97 93 88 85 77 67 59 63 64 66 66 63 60 55 52 50
133 130 128 124 120 116 115 108 101 102 100 90 88 84 80 79 75 74 76 76 74 68 63 66 78 82 90 97 103 101 97 95 93 82 78 67 65 66 67 76 71 66 58 56 54
138 138 135 130 128 123 121 112 106 99 99 90 87 86 84 82 79 76 77 80 76 73 66 61 71 79 86 93 105 106 103 98 96 92 84 79 70 71 73 78 75 67 63 61 61
109 106 108 113 119 119 122 118 116 108 100 96 92 86 81 82 80 79 75 80 79 72 68 63 63 74 78 91 99 108 105 102 96 96 92 85 72 78 79 81 77 73 67 66 65

GFSSW_250_spd_009.txt.gz
Wind_Speed
24 24 24 23 22 21 21 20 18 17 16 16 14 14 12 13 14 14 14 16 18 18 19 20 18 13 5 11 20 21 21 22 20 19 20 18 19 19 20 18 16 16 16 17 19
31 31 31 31 30 29 28 27 25 23 22 20 19 16 17 16 15 15 13 12 13 15 14 16 17 17 14 5 14 19 20 21 20 22 21 20 17 17 16 15 17 18 14 12 9
33 33 33 34 34 33 31 31 32 30 28 25 23 21 18 19 17 16 16 13 11 12 12 12 15 17 16 14 4 19 23 22 26 23 18 17 13 14 15 15 15 14 12 8 5
38 36 35 34 34 34 34 33 31 29 27 25 25 25 22 21 22 18 19 18 14 10 11 12 11 15 16 16 13 7 21 22 18 16 14 13 12 13 15 16 10 11 8 5 3
42 41 41 40 40 38 36 34 32 32 31 27 25 23 23 25 30 19 21 23 20 14 11 12 10 10 13 15 15 11 10 16 15 15 15 17 15 16 16 15 11 11 5 5 8
46 46 47 46 45 45 45 43 41 37 36 33 30 27 25 25 26 27 27 26 24 22 17 12 12 8 8 10 13 13 3 9 14 14 16 17 17 18 16 14 13 14 10 8 7
47 48 48 50 50 50 50 49 47 46 44 41 39 35 32 31 29 29 30 27 28 27 22 17 13 11 7 5 7 10 6 1 9 14 16 17 16 19 18 15 11 10 6 2 7
53 53 53 53 53 53 55 55 53 51 50 49 46 45 41 39 36 33 30 31 29 30 28 23 19 15 11 6 5 7 9 9 3 6 13 15 15 13 12 8 8 7 5 8 12
48 49 51 52 54 56 58 59 59 58 55 54 54 52 48 46 45 41 37 35 31 33 33 30 25 19 16 11 7 3 3 8 8 2 5 14 15 17 11 12 14 11 13 17 20
36 36 40 43 43 43 46 48 53 58 61 60 60 56 57 54 53 49 46 41 39 34 35 37 33 25 21 19 13 7 3 1 6 7 3 7 11 14 18 19 20 20 18 18 16
39 38 37 38 36 37 38 38 39 47 51 51 56 61 60 58 57 53 51 50 45 41 37 40 38 35 28 22 20 15 10 8 5 6 5 9 19 21 18 18 20 20 21 18 16
41 38 34 38 37 38 35 39 36 34 39 42 48 55 57 64 64 58 57 56 54 50 43 40 41 44 34 28 27 22 17 14 12 10 11 12 14 13 14 17 18 21 21 20 17
44 44 43 42 42 43 45 42 43 36 41 36 40 45 50 56 62 65 64 61 59 57 52 46 48 52 37 33 33 30 26 22 19 15 14 14 16 15 14 18 21 21 20 17 13
48 49 50 47 47 50 51 48 47 46 44 49 43 41 45 48 54 58 67 67 64 63 61 54 53 54 47 38 37 37 34 29 26 21 20 20 19 17 17 19 21 20 18 15 12
55 56 58 55 50 52 54 54 52 48 49 45 47 52 40 44 44 52 59 66 68 69 65 63 60 58 55 48 45 44 44 38 33 29 28 22 21 24 23 22 23 22 22 20 18
60 59 63 61 62 56 54 54 55 56 51 50 50 53 56 55 43 46 54 60 64 69 71 70 68 63 60 60 54 52 51 43 38 36 33 27 27 27 25 26 22 28 27 26 24
65 68 67 70 68 65 62 61 59 55 58 57 55 56 57 58 59 47 43 52 61 62 70 77 73 71 68 65 63 60 54 48 42 37 36 36 33 32 31 28 26 25 28 28 27
71 70 70 76 76 74 72 72 65 60 61 64 63 62 59 61 59 61 57 43 54 63 66 74 77 77 76 69 69 67 63 53 50 44 45 43 38 38 38 34 29 30 28 27 27
75 75 79 79 82 83 81 77 70 71 72 70 70 71 67 67 63 60 61 61 51 58 64 68 75 83 80 78 77 69 71 57 60 54 49 45 48 51 44 36 34 36 34 32 31
75 78 82 84 87 89 86 76 76 80 81 82 78 75 75 72 72 66 64 67 67 52 60 68 73 78 85 87 81 78 71 73 62 57 52 54 53 50 50 42 40 42 39 38 37
83 86 89 90 90 92 90 86 91 91 92 87 85 84 81 81 79 75 71 72 72 66 60 62 71 77 84 84 84 84 78 78 72 69 60 57 53 54 54 46 44 46 46 43 42
96 96 98 99 102 104 101 100 101 99 102 95 92 89 91 91 88 85 80 79 79 74 69 64 64 74 75 86 92 90 87 87 84 72 63 63 57 62 62 53 49 52 51 50 48
108 111 112 111 111 113 111 110 110 108 103 104 98 96 97 97 94 88 88 86 84 79 77 71 63 68 75 79 90 91 89 87 84 79 73 69 59 65 66 63 52 50 54 53 48
122 123 127 128 126 127 126 124 121 118 116 112 107 103 103 98 95 90 89 91 88 83 78 76 70 59 69 74 83 97 96 95 94 90 81 72 72 73 69 72 61 58 59 60 54
143 142 146 144 143 144 140 136 134 130 126 124 118 113 110 104 96 93 89 93 90 85 80 79 73 70 63 69 77 84 98 99 100 93 90 80 81 76 73 69 73 65 63 64 61
145 149 148 147 148 151 152 150 143 146 144 140 135 119 118 110 94 92 92 94 90 87 79 78 74 67 62 61 74 80 88 101 101 99 95 91 86 81 79 77 74 75 69 68 65
137 137 139 139 134 142 143 143 140 143 135 135 137 132 125 117 111 100 97 94 91 86 77 79 77 70 61 61 70 80 76 87 99 102 99 97 85 89 87 81 74 76 80 76 71

GFSSW_250_spd_012.txt.gz
Wind_Speed
23 23 23 23 23 23 22 21 20 21 22 19 19 20 20 19 18 17 15 15 16 18 19 17 15 8 3 13 24 29 30 28 30 30 29 25 22 19 17 16 15 18 21 22 22
29 29 30 30 31 30 30 29 28 25 24 24 23 21 22 20 20 17 16 13 13 13 14 16 13 13 7 3 15 23 27 29 28 29 28 24 22 19 19 19 20 19 20 19 18
34 34 33 33 33 31 30 30 30 29 28 27 24 23 22 22 21 20 17 17 15 12 12 13 15 12 13 9 0 20 21 29 26 26 23 22 22 19 19 19 16 15 16 15 17
38 37 38 37 36 34 32 31 30 30 28 29 28 24 21 22 25 18 22 19 17 15 12 11 13 16 12 13 9 2 24 25 23 24 23 24 18 17 17 13 12 15 12 10 6
41 42 42 41 40 39 38 36 35 34 32 29 28 26 25 21 23 17 24 23 19 19 18 13 11 12 15 12 13 10 1 18 20 16 17 17 16 14 15 13 15 13 12 6 7
46 46 47 47 47 46 45 43 41 41 38 37 33 31 30 28 25 24 19 23 24 22 21 18 12 11 12 14 13 12 10 1 8 11 16 16 16 16 17 16 14 15 15 12 12
47 47 47 47 48 47 47 47 46 45 44 43 42 40 38 36 33 29 29 24 24 25 23 22 17 13 11 10 9 11 12 8 6 13 15 14 14 15 15 17 16 15 19 15 9
51 52 52 51 51 52 52 50 49 48 47 46 46 45 45 45 41 37 35 33 28 27 26 25 22 19 14 12 9 6 5 8 6 8 12 14 13 12 17 16 17 15 15 8 8
44 45 45 44 44 44 44 44 45 45 48 50 49 48 47 48 49 46 43 42 38 32 30 28 26 24 21 16 12 8 4 5 6 3 4 9 13 11 9 10 14 15 13 12 14
35 34 34 35 35 36 36 34 35 38 38 39 43 49 54 51 51 51 50 47 45 41 36 34 31 27 27 23 16 14 9 3 3 4 3 7 15 9 13 11 17 17 17 18 20
37 38 39 36 38 35 33 33 33 31 30 28 34 38 40 49 57 56 53 54 51 49 44 41 36 31 32 27 22 20 15 11 6 2 4 10 15 4 7 18 17 17 21 21 17
42 41 40 41 41 40 38 36 36 33 30 26 24 25 26 32 45 52 54 54 55 55 52 46 41 42 36 31 27 26 22 18 13 11 9 11 12 11 15 15 15 16 17 17 18
41 46 46 45 47 46 45 44 39 36 33 32 33 35 27 24 27 37 46 51 52 55 56 52 50 50 45 34 31 32 29 24 19 17 14 16 16 16 11 11 14 15 18 18 18
45 48 49 49 49 50 50 52 48 44 38 41 36 39 36 32 34 27 34 40 46 50 58 56 57 53 51 44 37 35 37 32 27 21 22 20 22 18 15 15 16 20 19 17 12
49 50 55 53 52 53 53 57 55 53 47 46 41 43 43 39 34 32 30 31 37 42 46 62 61 59 55 53 48 41 45 39 36 29 30 25 24 25 22 21 21 23 23 22 18
56 55 56 56 61 53 57 59 61 60 49 55 49 49 49 45 41 38 36 30 30 34 40 49 62 62 62 58 57 53 48 48 40 38 32 31 29 27 26 28 26 26 27 27 26
65 64 63 64 65 63 63 61 62 56 62 62 61 58 58 55 51 43 44 44 42 20 33 40 49 62 67 64 62 60 56 51 47 39 35 37 33 31 31 30 27 24 26 33 31
72 71 75 76 75 71 71 70 62 58 62 71 71 66 64 65 62 59 52 46 43 45 30 35 36 52 65 71 69 67 65 59 51 47 45 44 37 38 36 34 33 33 38 32 33
81 81 80 78 81 82 79 73 65 67 69 71 72 74 69 68 69 65 57 53 52 47 51 36 29 37 50 68 77 69 72 62 62 58 54 46 47 45 46 40 40 36 34 34 33
87 87 90 89 89 87 82 74 72 73 75 81 77 76 75 73 72 73 64 59 58 54 54 51 43 40 42 51 67 78 74 75 69 64 57 56 54 48 50 50 45 42 37 42 39
92 91 97 94 94 93 86 81 80 79 80 81 80 79 79 79 80 77 72 69 66 64 59 60 60 46 48 40 51 74 81 77 77 73 68 61 54 54 55 55 51 48 45 47 47
100 99 103 101 99 100 94 94 93 87 89 91 91 86 84 85 84 84 80 78 77 72 71 65 67 66 54 46 50 58 72 83 83 77 73 68 59 61 61 63 58 53 51 52 55
111 110 115 118 113 114 111 108 108 104 102 103 104 98 95 97 95 89 88 84 84 82 78 72 69 68 61 48 44 45 55 75 87 85 81 79 63 66 72 67 65 61 57 55 58
124 123 127 131 129 129 130 127 126 121 117 116 117 113 106 103 103 99 97 91 94 89 86 82 75 69 64 61 67 58 59 65 80 89 83 83 72 74 78 72 74 69 62 54 57
137 134 137 136 138 141 142 136 137 135 133 133 129 123 122 116 111 106 105 102 101 96 94 90 85 78 66 69 72 59 54 62 69 81 91 82 84 80 83 77 77 75 67 61 62
149 151 148 144 146 147 144 142 139 141 146 141 138 135 134 128 125 120 114 110 105 100 96 95 90 85 79 74 72 65 63 56 59 67 82 87 88 87 84 85 82 83 77 70 65
118 110 97 95 93 97 103 108 118 115 123 128 138 136 137 138 132 124 120 115 108 107 102 99 95 93 86 76 75 73 41 56 60 66 74 85 87 91 94 93 91 87 83 74 70

GFSSW_250_spd_015.txt.gz
Wind_Speed
22 21 20 20 19 20 22 23 23 24 23 22 21 21 20 21 19 15 13 13 15 14 15 16 15 8 9 22 32 39 32 29 22 23 37 31 31 30 25 23 21 22 15 16 20
26 27 27 26 27 27 26 26 25 24 24 23 21 21 23 20 19 17 14 12 11 12 11 12 13 13 7 4 21 34 38 37 36 29 30 33 29 30 23 21 22 18 20 18 21
32 32 32 31 30 30 30 30 28 27 27 23 22 21 21 23 17 18 15 14 11 9 10 8 9 9 11 10 6 16 29 34 37 34 26 29 27 27 24 20 19 18 17 13 16
36 36 36 35 35 35 35 34 32 30 28 26 24 23 21 22 19 18 18 15 14 11 11 10 7 8 7 10 12 9 10 19 29 31 25 21 23 23 20 19 16 17 12 11 5
42 41 41 40 38 37 37 37 36 35 34 33 31 28 27 24 24 20 19 17 15 14 14 13 9 9 9 9 11 11 8 10 23 23 19 25 22 19 19 18 17 13 10 12 11
45 46 46 46 45 44 44 43 42 42 41 41 39 37 33 32 30 26 23 21 20 17 16 17 14 8 10 9 11 12 11 7 2 16 21 20 19 19 20 19 14 11 14 19 16
46 47 47 47 47 46 45 44 43 41 41 41 42 42 42 39 37 35 32 28 25 22 19 18 19 14 10 11 10 13 14 13 9 7 8 11 14 16 15 15 13 13 16 19 17
50 49 49 49 50 50 49 47 45 44 43 45 45 44 45 44 43 42 41 38 32 29 26 22 20 21 14 12 11 10 12 13 12 9 6 8 12 13 9 10 13 13 16 19 21
46 44 42 41 42 42 39 35 35 34 34 37 41 45 46 48 46 46 46 46 42 37 33 29 26 23 23 18 14 13 12 11 11 10 5 10 12 11 10 11 14 16 17 20 19
35 33 34 35 33 34 33 30 30 29 30 31 32 34 39 42 47 49 49 49 48 45 41 37 33 28 26 26 18 16 16 13 10 8 3 12 13 14 11 9 13 11 15 16 13
35 36 35 34 36 34 32 33 31 27 28 26 26 28 29 31 36 41 48 50 50 51 46 43 38 37 34 30 21 22 22 18 13 8 5 4 10 8 7 10 11 13 13 14 18
38 37 38 38 40 39 37 39 37 32 34 30 27 27 26 24 26 26 37 41 45 53 52 48 48 45 41 34 30 25 26 23 19 13 6 9 11 7 5 12 15 17 18 17 19
42 39 39 38 40 39 38 40 38 36 35 40 29 34 27 30 26 26 24 31 36 43 53 53 53 50 47 42 36 31 32 29 24 21 12 12 13 11 12 10 9 14 19 17 14
47 46 46 42 41 43 40 44 37 38 29 44 33 40 41 34 38 25 27 26 26 32 39 49 56 53 51 46 45 37 39 36 31 25 21 15 15 16 15 13 14 12 14 16 16
48 47 50 47 48 44 44 48 43 39 27 41 41 45 47 43 42 41 31 26 25 20 25 41 48 56 55 52 50 49 43 42 37 30 27 19 20 22 16 21 17 17 21 20 18
55 54 55 55 60 51 54 54 51 45 34 45 43 48 51 51 48 45 40 37 34 26 21 29 29 42 58 59 53 56 50 47 44 35 28 27 23 25 25 28 24 22 24 25 22
64 64 64 66 65 62 64 62 61 52 51 52 57 52 53 53 55 50 48 44 40 33 36 29 24 26 41 58 61 58 56 53 48 39 31 35 28 29 29 27 27 25 28 27 24
73 73 75 73 75 70 71 70 63 59 62 68 67 59 56 58 59 56 54 51 50 43 45 39 31 32 30 35 59 62 61 56 53 48 47 45 35 37 33 33 31 29 31 32 33
78 78 79 80 80 80 79 77 71 73 72 76 77 69 61 59 65 66 58 56 56 54 48 46 42 41 29 28 39 54 58 62 65 61 56 47 44 45 43 40 38 36 35 34 38
85 85 90 89 87 86 83 76 79 80 79 82 81 81 76 73 67 69 67 61 61 60 57 52 49 47 41 31 25 30 46 62 62 63 58 54 52 46 48 44 44 43 40 42 39
91 90 98 98 95 94 88 86 88 89 92 90 86 84 82 79 79 76 66 66 67 66 64 63 55 52 50 35 37 34 31 40 67 68 66 62 52 55 55 52 50 50 49 46 46
99 97 106 107 106 102 98 97 98 96 98 98 94 91 88 85 85 85 77 69 73 74 69 67 67 56 53 49 41 36 36 35 51 58 71 71 57 64 63 66 59 58 56 55 50
107 108 115 117 111 112 111 108 107 104 105 106 105 106 102 97 95 91 83 75 76 78 73 73 67 64 61 50 49 50 47 48 41 47 64 73 60 70 71 69 63 60 61 60 57
119 117 120 125 124 122 123 116 115 113 111 114 113 114 112 109 108 101 95 86 85 80 80 80 74 67 67 63 67 57 57 51 49 43 48 57 65 73 78 76 71 69 69 67 63
128 127 129 130 134 134 132 127 129 125 128 125 124 123 120 116 114 107 105 98 97 89 89 90 83 76 70 72 75 64 59 54 53 42 47 46 57 71 82 82 80 76 74 73 70
139 139 142 142 145 146 143 143 140 136 135 133 136 129 130 126 124 118 114 111 106 102 100 97 91 87 80 77 78 74 62 59 56 51 47 45 52 57 70 88 85 84 82 78 75
127 125 125 130 134 137 143 139 136 135 140 143 148 140 140 139 134 126 124 121 113 111 109 105 98 94 85 83 86 86 62 68 66 56 54 40 45 60 63 75 85 87 87 83 80

GFSSW_250_spd_018.txt.gz
Wind_Speed
23 22 20 20 20 19 18 18 20 19 19 18 18 16 15 15 16 16 16 12 10 10 11 12 10 6 17 28 32 36 39 36 38 35 39 42 38 32 33 29 27 24 21 18 16
25 26 25 25 25 24 24 24 23 22 20 19 18 18 17 14 14 14 16 14 9 6 5 6 7 6 5 15 29 35 36 40 39 39 37 35 33 33 33 32 28 25 17 16 16
30 30 29 28 28 28 29 29 27 26 25 24 22 21 20 17 13 16 15 15 15 7 3 3 2 0 2 5 6 21 33 41 40 45 48 45 35 35 30 27 27 25 17 11 16
34 34 33 33 33 34 33 33 34 32 30 27 27 25 23 22 16 20 17 17 17 15 6 6 7 5 6 3 4 4 5 10 20 30 39 36 27 31 26 25 24 15 14 13 10
39 39 39 39 38 37 36 35 35 34 35 33 31 30 30 28 25 23 23 20 19 19 15 8 9 10 11 8 7 8 8 9 12 14 19 14 19 16 18 18 21 16 15 12 7
43 42 43 42 42 40 40 40 39 39 40 40 41 38 36 35 32 31 28 26 24 21 21 16 12 11 12 14 9 8 7 10 12 11 11 17 17 19 19 16 19 17 14 13 8
46 47 46 46 45 45 44 43 42 42 41 41 40 38 40 41 40 37 36 33 31 27 25 22 17 16 13 14 14 12 9 7 12 13 10 9 15 19 19 18 14 17 17 10 9
49 50 50 50 48 48 47 46 46 45 45 47 47 44 45 43 42 43 42 41 39 36 32 28 25 20 19 17 15 14 14 10 6 9 9 11 14 16 16 18 16 12 11 9 8
54 52 52 52 52 50 47 43 40 36 34 35 38 37 38 40 44 44 45 44 43 43 40 36 31 28 24 23 20 15 15 14 10 6 13 9 15 15 15 14 14 11 15 11 11
56 54 52 48 46 46 42 38 34 30 28 28 29 29 30 32 34 38 41 47 46 47 45 43 40 36 31 30 23 19 18 17 13 8 14 11 8 12 14 9 13 15 15 14 12
49 44 43 41 43 40 35 34 33 32 31 28 28 25 24 25 28 29 32 35 42 48 49 46 45 45 41 36 27 24 23 23 14 13 6 3 7 11 10 13 11 12 11 14 18
45 45 45 42 42 41 39 40 36 29 34 32 31 31 26 26 27 22 25 29 33 37 45 51 51 48 45 41 36 31 28 28 21 16 11 3 10 6 7 11 11 10 11 16 22
48 46 46 46 43 41 39 39 35 34 34 39 33 35 27 29 29 29 21 25 27 29 34 43 55 51 49 46 43 38 35 31 28 18 14 12 8 11 6 7 9 12 16 19 18
53 51 52 53 49 47 45 44 36 34 28 42 31 34 35 32 35 32 30 26 21 21 26 33 44 52 54 51 49 45 45 37 31 24 22 15 12 10 13 10 12 15 17 17 17
58 57 58 57 56 51 51 49 44 40 31 41 36 38 38 38 44 37 37 34 29 18 17 27 30 43 51 57 53 56 50 44 40 31 27 20 15 12 16 17 15 18 17 16 15
63 63 60 60 61 56 55 54 51 47 36 42 43 43 45 43 42 40 38 37 33 27 29 28 23 27 44 50 55 63 54 52 48 38 25 27 21 17 22 23 21 16 18 18 20
70 68 68 71 65 65 62 59 59 50 50 54 50 51 50 47 46 44 39 37 40 33 38 34 28 25 29 42 51 61 60 56 52 44 33 40 30 30 28 26 23 24 21 23 25
78 78 80 78 77 72 73 69 63 62 64 63 59 58 59 61 59 55 48 38 41 40 46 39 35 40 32 28 40 49 58 59 55 53 50 48 35 40 36 32 30 29 26 25 29
83 86 89 89 85 82 82 78 74 75 74 72 71 70 65 68 65 61 52 49 49 46 45 44 43 45 34 36 30 37 41 62 61 58 55 51 43 43 41 37 36 32 30 31 35
87 88 93 92 92 91 90 86 83 82 81 80 80 79 73 71 69 68 62 53 55 56 53 48 50 44 44 39 31 31 40 46 57 60 57 55 54 47 48 47 44 38 37 40 40
94 93 98 98 95 95 94 94 94 93 91 89 86 85 82 80 74 70 66 64 61 64 65 60 54 53 47 32 40 40 38 37 42 53 62 60 50 56 55 55 52 50 48 46 46
101 102 109 103 107 104 99 101 104 102 102 98 95 91 90 89 81 74 68 71 73 69 69 66 66 61 50 48 42 34 43 35 35 31 47 60 58 67 66 63 58 54 53 51 48
103 105 111 114 115 114 110 107 105 106 107 108 102 98 95 93 88 82 74 76 78 75 74 76 69 64 59 52 44 40 42 42 37 36 34 37 59 69 71 67 64 63 59 57 55
107 110 113 116 117 118 116 115 116 114 111 112 110 106 100 95 95 90 86 83 85 83 79 81 75 65 59 56 62 54 53 47 39 36 34 29 38 60 73 74 73 71 68 64 60
113 115 116 120 119 119 119 122 123 122 121 118 115 116 111 107 105 102 95 90 89 88 89 84 74 71 66 66 67 59 58 54 41 35 28 33 32 40 58 68 78 76 74 72 66
120 121 122 122 126 125 127 126 127 128 128 127 126 126 119 113 110 110 107 102 99 97 95 93 81 83 74 71 68 69 65 55 49 46 34 30 33 42 46 46 54 74 80 77 74
97 97 100 112 122 129 131 130 132 133 133 132 130 130 127 126 122 115 112 110 106 109 106 100 91 90 84 81 76 83 59 62 59 56 48 42 48 52 46 53 49 53 69 82 82

GFSSW_250_spd_021.txt.gz
Wind_Speed
24 23 22 20 19 18 17 18 17 18 19 19 17 16 14 14 15 11 11 5 5 4 6 7 5 16 24 32 33 34 39 40 40 40 37 38 39 41 41 42 43 29 29 25 25
26 25 25 24 24 23 23 24 24 22 22 21 21 21 18 14 15 14 12 10 1 3 1 3 5 4 10 20 28 33 31 35 36 40 41 48 46 41 39 39 38 30 26 23 23
29 29 29 30 29 29 28 27 27 27 26 26 26 26 24 18 18 17 15 14 11 6 6 4 4 5 5 8 14 23 29 30 34 35 40 48 51 51 48 48 42 32 24 23 17
35 35 35 34 35 34 33 33 33 35 34 33 31 31 27 26 23 22 18 19 17 14 11 10 9 9 8 9 10 10 17 22 30 36 40 47 50 51 49 47 35 29 21 17 15
40 40 40 39 39 39 40 40 40 39 39 35 33 31 32 30 30 29 25 24 21 21 18 15 13 12 11 12 12 12 14 12 14 17 22 34 37 36 31 26 24 24 20 14 15
45 46 45 44 44 42 41 40 41 41 40 40 39 37 36 34 35 36 33 32 29 25 25 22 18 17 15 11 15 14 12 11 10 8 12 19 24 25 19 16 14 16 18 13 17
48 48 47 47 46 44 43 43 44 44 44 45 44 43 42 40 39 40 39 37 37 33 31 28 25 21 20 15 17 17 15 10 7 7 14 18 21 16 20 19 20 16 20 14 14
48 49 49 49 48 48 47 47 47 46 47 48 47 47 46 44 44 44 43 41 41 41 38 34 31 28 26 20 21 19 15 12 11 10 12 17 21 17 17 17 17 15 19 14 10
52 53 54 54 54 53 52 51 51 50 49 51 51 51 50 47 46 48 48 48 45 43 44 41 38 38 29 29 26 21 17 17 12 12 11 15 17 20 18 14 17 17 19 11 11
58 58 56 56 56 55 51 51 49 47 45 45 44 43 43 42 41 41 42 44 47 48 47 44 44 43 41 35 33 23 20 21 12 14 12 14 9 9 15 15 19 17 14 12 14
60 61 62 59 58 55 51 48 45 42 42 41 42 40 38 36 37 37 36 38 39 41 48 49 48 49 47 42 37 31 26 24 18 17 11 9 8 6 5 10 14 14 12 12 9
62 63 63 61 59 55 51 46 44 42 42 41 42 40 36 34 34 32 33 32 31 31 36 42 52 50 48 47 42 39 34 31 24 19 15 8 11 9 9 12 15 14 13 11 12
65 63 64 62 57 54 51 49 45 43 43 45 43 44 37 36 39 36 36 31 27 25 26 32 37 46 52 50 48 44 44 39 31 21 20 13 10 13 9 7 10 13 11 12 16
67 62 63 65 61 58 55 52 50 46 40 47 41 44 43 41 43 40 41 34 31 24 23 27 25 33 43 51 52 48 52 41 35 28 24 18 13 15 13 11 9 11 12 14 20
68 68 66 67 66 62 61 58 56 53 46 49 45 42 44 44 44 43 41 35 37 35 24 26 25 26 27 43 48 57 51 46 40 33 26 21 16 15 17 15 13 13 15 19 18
72 71 72 72 72 69 66 64 62 60 49 52 51 48 48 46 46 47 40 37 41 37 35 35 25 23 26 26 36 53 53 49 45 40 27 30 25 24 20 18 17 16 17 19 19
77 75 77 77 77 74 76 73 69 61 55 55 54 57 55 54 49 47 44 40 40 41 41 40 35 30 27 27 28 34 44 48 48 41 40 40 30 34 25 24 25 20 21 21 21
83 84 86 78 80 82 81 79 75 65 65 62 60 63 63 60 56 51 47 40 41 39 42 39 39 39 39 34 30 30 31 33 43 50 48 49 31 44 37 31 28 26 28 25 25
90 91 92 86 85 88 89 85 77 75 73 72 71 69 66 68 63 60 55 51 51 49 46 42 40 42 38 41 32 35 25 34 28 41 47 48 44 45 40 37 35 34 33 34 28
84 93 95 92 91 91 92 89 89 87 85 83 84 77 74 73 72 69 65 62 58 56 57 51 47 46 41 36 28 32 38 29 25 25 38 51 49 51 47 46 45 40 35 36 33
83 85 87 94 96 97 96 94 93 94 95 93 90 88 83 81 78 75 73 69 66 62 61 59 55 52 49 36 37 36 35 32 29 24 23 33 48 60 56 54 49 45 42 40 40
90 90 89 90 98 100 100 100 99 100 99 94 95 93 92 87 85 83 80 78 72 69 65 64 60 55 52 48 46 39 33 30 22 28 25 21 37 59 65 59 54 49 50 50 47
98 96 96 96 98 98 104 107 106 105 106 102 100 96 95 97 95 90 85 85 79 74 72 67 64 62 60 59 50 42 39 33 31 32 23 26 36 36 52 62 56 55 54 54 54
105 103 101 100 103 103 102 107 110 109 109 108 106 103 100 98 98 96 91 90 87 83 78 74 68 66 62 64 59 50 46 43 36 27 28 28 35 38 31 39 59 62 62 61 58
113 114 112 110 105 106 108 108 109 113 113 113 114 109 109 107 105 102 97 95 94 90 86 81 74 71 67 65 62 56 51 46 35 32 28 39 38 44 42 33 31 43 62 66 65
93 93 98 111 115 114 111 110 112 112 113 116 115 114 113 114 112 108 104 101 100 99 95 89 82 78 72 68 69 64 56 48 42 41 38 39 30 42 48 42 33 36 40 51 64
69 75 82 83 88 99 112 117 118 116 116 117 116 116 116 115 114 114 113 109 106 103 99 94 90 86 79 80 78 71 48 53 50 47 45 40 45 48 46 48 44 38 37 41 45

GFSSW_250_spd_024.txt.gz
Wind_Speed
28 27 25 24 22 19 18 18 18 19 19 18 17 15 16 15 17 10 8 5 1 3 2 2 7 17 23 31 34 37 39 37 36 37 36 36 38 38 36 35 39 42 44 32 28
31 30 27 26 23 22 22 22 22 23 25 23 21 20 18 19 17 18 11 8 6 3 4 4 3 6 13 22 30 34 37 36 39 39 38 38 40 41 43 45 48 43 40 42 39
31 30 28 27 27 28 28 28 27 27 27 27 26 26 25 24 23 19 19 13 10 8 8 8 7 6 6 9 15 22 29 33 35 34 36 40 42 44 44 45 46 49 53 47 37
34 33 33 33 33 34 34 33 33 33 33 33 34 32 32 31 27 24 22 20 17 14 14 12 12 11 10 9 8 9 15 23 32 37 35 36 38 41 44 47 51 52 35 29 27
40 40 40 40 40 40 40 39 39 39 40 39 40 38 35 31 31 27 27 27 23 23 20 19 16 16 15 15 13 11 11 11 17 21 22 25 27 29 32 34 31 19 17 13 18
46 46 46 46 46 45 45 46 45 44 43 41 40 38 37 36 34 36 30 32 30 29 28 26 22 23 17 19 17 16 13 10 17 20 18 18 16 19 21 22 22 12 10 11 17
50 50 50 50 51 50 47 48 46 44 43 43 41 40 40 41 38 39 37 37 36 34 35 33 28 29 22 22 23 19 15 12 16 20 20 16 16 20 18 16 11 12 11 11 15
52 52 53 51 50 47 45 47 45 47 49 48 46 45 44 45 44 43 42 40 41 39 37 37 36 34 30 26 28 24 19 13 12 16 19 17 18 19 16 16 9 15 13 13 13
57 57 56 55 55 51 48 51 50 49 51 51 49 49 49 48 46 43 43 46 46 46 42 40 40 41 36 33 32 29 22 18 17 17 17 15 16 16 14 14 5 10 12 11 13
64 63 60 58 59 55 53 54 52 51 53 52 50 47 47 47 47 46 44 42 47 49 50 48 45 44 43 40 40 31 25 22 20 20 16 14 13 13 10 14 3 7 9 11 16
59 62 61 58 61 60 58 57 56 55 54 52 50 47 44 46 44 45 44 42 43 46 47 49 53 52 48 45 42 37 32 28 24 23 19 15 12 9 11 9 2 9 13 16 14
65 63 65 62 61 60 61 61 58 55 54 52 51 49 44 44 47 45 43 42 40 41 42 44 48 48 49 46 45 42 39 38 30 26 20 17 14 9 11 11 6 9 10 15 12
67 66 68 68 65 65 66 65 63 59 54 56 53 52 48 45 48 46 44 41 38 35 37 37 37 41 46 52 50 47 48 43 36 28 23 18 18 12 9 12 13 13 11 15 12
74 72 72 74 72 68 67 64 63 59 56 57 55 52 50 46 51 48 46 42 38 39 33 32 31 33 38 45 50 52 56 43 37 33 29 20 21 17 13 13 17 10 8 11 15
76 74 73 73 75 73 72 68 65 62 59 58 59 54 53 51 51 52 51 45 44 42 34 39 28 28 30 35 39 50 53 48 38 34 31 27 26 24 21 14 16 12 10 12 18
82 82 79 74 75 75 75 72 68 67 60 60 60 60 57 54 53 53 52 50 49 43 40 43 32 29 30 27 31 36 43 45 45 38 29 37 32 28 27 18 18 15 15 20 24
89 88 84 81 79 80 77 77 77 70 66 66 64 64 64 63 60 54 53 51 50 46 45 49 45 41 34 28 28 31 31 34 38 40 46 42 33 36 31 26 22 18 17 21 23
86 88 89 89 86 86 83 79 78 75 72 71 72 70 69 70 65 62 57 54 49 47 50 45 42 41 39 37 38 31 15 20 32 43 47 40 39 43 35 29 26 24 20 19 22
92 89 88 87 89 91 91 87 79 81 80 77 78 80 75 75 72 67 65 60 59 54 52 47 42 46 42 43 39 31 21 22 17 24 37 42 49 43 40 34 31 30 29 28 27
93 91 89 90 90 90 95 94 94 87 81 83 84 83 81 80 77 74 69 67 65 59 53 48 44 43 41 37 34 29 30 18 15 13 20 38 48 51 47 43 40 36 35 34 32
94 92 90 93 90 92 93 93 95 93 90 87 90 89 86 84 83 83 77 71 69 66 59 54 51 52 48 37 37 34 31 27 22 21 21 24 31 43 52 51 46 42 40 37 34
104 101 98 97 95 96 96 94 93 93 92 93 91 94 92 89 88 90 84 79 73 70 66 63 58 57 55 52 46 40 36 26 20 23 22 21 27 26 39 53 50 47 46 43 40
109 106 102 101 101 101 101 100 99 96 96 93 95 96 98 97 95 93 92 85 80 77 72 69 63 62 63 59 51 44 42 36 33 25 20 23 33 27 22 32 51 51 48 47 47
105 105 106 104 105 105 104 103 102 101 101 98 95 97 100 102 101 101 97 93 90 85 81 77 72 68 66 64 58 49 48 43 37 28 26 23 30 33 27 22 32 51 54 57 53
83 86 90 92 96 103 107 107 105 104 104 103 98 97 101 105 106 105 104 103 99 95 91 86 83 77 71 69 65 55 52 51 44 38 29 34 32 40 34 25 18 23 45 56 57
60 65 71 72 74 82 94 108 111 110 106 106 103 99 101 105 109 109 107 105 105 102 98 93 90 86 79 73 70 63 56 56 53 47 41 38 35 44 43 29 23 26 22 28 37
49 50 54 59 59 62 69 86 100 112 114 111 108 103 100 103 108 112 111 109 106 103 101 98 94 92 87 81 76 69 62 58 58 53 48 40 41 48 47 38 28 27 28 27 26

GFSSW_250_spd_027.txt.gz
Wind_Speed
31 29 28 26 24 23 21 19 18 16 15 11 12 10 13 12 11 10 9 7 3 5 3 4 8 17 22 29 29 31 38 38 35 35 37 39 37 32 32 33 36 38 39 39 40
34 31 29 28 26 25 23 22 21 19 19 19 15 16 13 14 16 19 12 10 10 6 8 7 6 9 13 20 28 34 34 37 37 38 38 37 39 38 38 41 44 42 43 44 46
33 33 31 29 27 26 25 26 25 24 24 24 22 21 21 20 20 20 23 15 13 11 9 11 10 10 10 12 17 24 32 35 36 38 39 40 38 40 40 42 43 44 46 44 44
35 34 32 30 30 30 29 31 31 29 28 29 28 27 27 27 27 27 25 22 19 18 16 12 15 14 16 13 13 14 19 25 31 34 33 34 33 34 35 35 36 40 43 38 14
39 37 37 36 36 36 36 38 38 36 34 33 35 32 33 34 33 31 28 26 24 24 23 19 18 16 19 19 18 17 16 15 14 15 19 24 24 21 20 23 26 26 20 12 13
44 44 44 45 44 43 44 46 44 43 42 41 40 38 36 38 33 31 29 31 30 28 31 27 21 24 22 22 22 22 22 20 18 14 12 17 14 16 20 23 17 14 9 12 10
51 50 50 51 51 48 49 51 50 49 48 46 43 40 34 40 33 35 33 33 33 33 35 33 30 29 28 25 26 24 23 24 24 18 15 17 14 16 16 13 8 7 9 5 7
57 55 55 56 54 52 50 51 50 49 46 44 42 39 36 42 38 39 37 34 36 36 37 37 34 34 34 33 31 28 26 26 25 22 19 17 14 14 12 12 8 7 10 8 8
58 57 53 53 54 55 56 56 56 53 52 51 47 44 40 43 40 44 40 41 39 38 38 40 39 38 37 38 36 34 28 25 28 24 19 15 12 13 10 13 4 4 13 10 11
64 64 62 63 62 63 60 59 59 57 56 53 51 48 43 45 43 42 40 42 37 38 39 41 45 44 44 42 42 37 31 26 28 25 20 15 13 12 8 11 6 5 11 12 12
65 66 67 66 63 63 62 61 60 59 60 56 55 49 49 47 44 42 40 38 38 39 39 40 47 51 47 48 43 39 36 33 32 30 21 18 13 10 9 5 8 4 9 11 12
66 67 68 64 63 62 63 62 59 56 58 58 57 58 53 49 48 45 43 43 38 37 37 43 43 41 43 48 50 44 40 40 37 36 27 19 15 12 11 7 4 5 8 12 12
72 71 71 73 71 67 67 66 65 63 62 66 62 59 56 51 51 51 45 44 42 38 41 41 37 39 41 43 48 51 49 45 42 38 33 23 18 17 14 12 10 6 8 10 11
78 77 76 78 76 72 71 69 69 66 64 66 65 63 61 55 52 54 49 46 43 44 40 39 38 37 36 41 43 47 54 47 41 38 36 28 24 21 18 16 15 11 8 15 15
82 80 81 80 82 81 77 74 74 73 71 68 68 64 63 60 54 57 57 48 47 47 41 45 38 32 32 34 37 46 45 46 44 37 36 35 31 29 21 21 16 14 11 15 20
92 90 89 88 87 86 83 79 75 76 72 71 70 69 68 64 60 60 58 53 52 50 44 44 42 35 39 33 33 33 39 42 44 43 35 45 42 33 32 23 21 15 13 17 23
85 85 85 86 90 91 90 88 85 80 75 75 71 70 70 68 65 64 61 58 56 55 49 52 49 46 42 35 31 29 29 31 36 42 55 51 43 45 35 27 24 17 14 16 24
88 87 86 86 82 84 88 90 89 86 83 77 75 73 72 71 70 69 66 61 61 59 56 54 52 50 48 45 38 27 17 23 28 38 49 48 50 47 40 31 27 23 17 18 25
93 92 90 89 88 90 90 88 85 81 80 82 79 79 77 76 76 75 72 67 68 65 59 56 53 53 48 52 44 35 29 25 21 23 36 48 56 49 43 35 31 27 22 26 29
100 100 98 97 96 95 96 97 96 89 84 83 87 84 81 81 81 82 79 74 72 68 63 56 53 55 55 52 41 39 35 23 18 20 25 36 47 56 50 45 38 32 31 31 31
109 107 105 102 102 101 102 103 102 97 92 88 88 89 86 85 86 85 84 81 77 73 67 62 57 58 57 47 43 43 38 34 32 25 24 25 34 46 52 48 45 40 38 35 34
107 108 109 110 108 107 106 104 103 103 99 94 90 91 92 89 89 89 88 87 83 78 74 69 65 62 58 55 52 47 42 35 31 34 31 26 25 29 37 50 50 47 43 38 36
86 86 88 93 100 106 109 110 107 102 100 97 93 91 94 96 93 92 91 91 90 86 81 76 70 69 65 59 54 48 42 39 37 33 29 29 31 30 24 25 46 51 50 46 42
65 66 66 67 73 84 98 104 110 108 103 98 95 94 96 97 99 97 94 94 95 92 87 81 78 75 69 66 62 55 49 45 39 30 33 32 37 33 31 27 28 48 56 55 52
52 51 52 53 58 62 69 82 98 105 107 104 99 96 98 98 99 101 101 98 97 97 93 89 83 79 76 72 66 61 55 47 44 38 32 39 36 36 33 28 27 30 47 58 58
44 45 45 41 44 51 57 63 76 92 102 106 107 100 98 101 99 100 102 104 101 99 98 93 89 83 79 78 73 66 59 53 48 44 40 38 35 41 36 30 29 27 22 35 52
39 38 37 36 35 41 48 54 61 73 90 100 104 107 101 101 102 99 100 100 104 103 100 99 94 90 84 81 77 72 63 60 56 53 51 41 41 48 40 33 32 32 27 24 23

GFSSW_250_spd_030.txt.gz
Wind_Speed
33 32 31 29 28 26 23 22 20 19 16 15 11 10 7 6 6 4 2 4 7 7 6 6 11 21 28 30 32 33 37 39 42 41 40 38 36 37 38 39 40 38 38 39 40
36 35 34 33 31 29 27 26 24 22 21 19 17 15 13 12 12 10 8 8 10 9 9 10 11 7 13 22 28 32 34 33 36 40 39 39 37 38 39 39 39 40 41 43 43
37 36 35 34 32 32 30 28 27 25 25 23 20 19 19 18 19 19 17 14 14 15 12 11 11 14 11 10 16 23 25 32 35 35 35 39 38 37 36 37 38 40 40 41 41
38 37 36 36 34 33 31 31 29 28 28 27 25 24 24 25 25 24 22 22 20 20 18 18 15 15 14 15 14 12 14 21 26 30 32 34 36 37 37 35 36 38 41 41 37
42 41 41 39 37 35 34 34 32 32 31 32 31 29 30 32 29 29 30 29 27 25 23 22 21 18 20 17 17 17 15 13 14 15 19 22 26 28 29 32 31 30 31 31 14
46 45 45 44 42 42 41 41 40 38 37 37 37 35 35 40 36 34 33 33 29 29 28 25 24 25 26 22 21 20 19 17 16 13 14 11 12 16 18 18 23 25 27 15 9
50 49 49 50 49 50 49 48 47 45 45 44 43 43 40 47 43 37 37 35 33 33 33 30 27 29 30 28 30 26 22 20 18 17 18 14 14 18 17 18 17 20 14 8 11
57 57 57 56 56 55 55 54 52 50 49 48 45 44 42 47 44 41 41 35 35 36 36 36 32 32 33 36 34 31 29 25 22 19 19 17 16 18 13 13 13 15 10 12 13
62 62 61 61 60 59 58 58 57 54 51 50 51 49 43 44 44 42 42 40 40 40 39 38 37 37 37 39 37 36 33 29 26 23 19 18 16 17 11 8 10 10 10 11 15
66 68 65 65 66 67 65 64 60 58 59 61 60 56 53 49 51 46 45 45 42 41 43 43 41 41 41 39 42 39 33 31 31 28 21 20 18 16 11 8 7 6 12 14 16
72 73 73 71 69 69 69 69 69 68 65 67 66 59 55 52 52 50 44 45 43 43 43 42 43 43 41 44 44 39 37 34 34 33 28 20 19 17 12 11 5 7 11 16 17
73 74 74 72 71 70 69 69 70 67 66 65 63 62 57 54 52 52 45 48 43 43 40 42 45 39 40 44 45 43 43 41 40 37 33 26 20 18 16 12 9 6 10 16 19
80 80 80 80 78 77 75 74 74 69 66 70 67 65 58 55 50 52 51 50 49 41 44 46 40 37 40 43 44 45 47 50 47 41 35 29 25 21 20 16 13 8 9 15 18
83 84 85 86 86 84 82 79 78 75 73 73 73 69 66 60 56 55 55 51 49 47 48 44 39 41 41 41 41 41 47 46 47 45 39 33 31 27 24 20 14 12 9 17 18
92 92 92 91 90 89 86 85 83 80 79 74 76 72 69 64 63 61 61 57 53 54 48 51 46 41 41 39 35 38 36 37 42 45 46 35 34 37 30 24 19 16 15 14 22
90 91 93 95 95 96 96 92 89 88 83 79 78 79 77 73 67 65 63 58 57 54 48 52 48 40 41 36 37 31 33 35 37 44 45 46 44 39 38 32 22 21 17 14 18
95 95 94 93 93 92 94 95 98 95 89 84 80 81 81 79 74 73 70 65 59 58 53 57 52 49 45 41 39 32 29 31 34 38 49 58 49 50 44 33 30 24 19 13 17
100 100 100 99 99 96 95 94 93 96 95 89 87 85 87 83 82 78 76 71 66 64 64 61 57 53 51 47 46 36 30 29 32 38 49 49 49 54 45 37 32 25 22 17 19
107 106 105 104 102 101 100 98 100 93 84 86 90 92 92 89 85 81 78 74 71 71 69 64 59 60 56 53 46 38 28 35 27 28 37 45 52 52 44 38 34 32 26 23 20
108 110 110 108 106 104 104 104 102 97 94 93 91 90 94 92 90 87 85 77 75 77 69 66 66 62 62 60 47 40 41 26 20 23 29 39 49 52 51 46 39 35 32 29 25
100 96 95 96 101 106 109 108 102 98 99 97 99 91 92 96 95 93 88 82 80 73 70 71 69 65 65 55 50 48 41 40 34 28 32 34 39 45 47 50 44 43 40 35 30
80 77 73 70 72 80 95 110 109 104 99 96 96 97 93 92 98 97 93 90 82 76 78 77 75 69 65 62 57 56 54 50 41 36 37 30 29 30 40 48 51 47 45 39 35
67 64 60 60 59 61 70 85 97 105 106 103 96 95 98 96 93 96 94 93 89 85 83 79 77 76 73 67 60 54 54 47 47 45 35 33 31 28 27 39 50 52 51 48 43
57 52 48 50 51 52 56 63 76 88 98 106 104 97 96 102 101 96 93 93 92 89 86 84 85 80 73 72 67 58 55 50 50 50 44 40 40 37 30 29 42 53 55 53 51
46 45 40 41 41 44 49 54 61 71 83 96 106 105 102 100 103 103 99 96 95 94 91 88 86 84 81 72 67 59 56 54 51 53 50 48 46 44 39 32 35 44 53 56 55
41 39 36 32 34 36 40 45 52 58 69 84 97 105 108 108 101 101 99 99 96 95 94 92 89 85 82 78 74 68 62 59 57 55 52 51 49 48 43 39 38 39 38 49 59
42 36 35 30 26 29 32 36 42 49 58 70 85 97 102 107 106 96 97 100 98 97 99 96 92 87 86 85 80 71 63 62 62 60 55 48 50 52 45 42 38 40 39 41 45

GFSSW_250_spd_033.txt.gz
Wind_Speed
32 33 33 32 31 30 28 27 23 20 18 18 17 13 10 8 6 4 2 2 3 6 10 17 28 34 36 38 39 40 40 43 44 43 43 40 41 40 38 36 35 38 39 39 39
37 37 36 36 35 34 32 30 28 25 24 23 22 21 18 15 13 10 8 7 6 6 7 8 10 12 20 30 34 34 28 34 40 42 43 44 43 41 40 38 38 38 38 41 40
40 39 39 39 38 37 35 33 31 29 28 27 27 26 25 22 21 18 15 12 13 11 11 12 12 11 11 10 16 26 29 39 38 38 37 38 38 40 40 40 40 41 42 40 41
42 42 42 39 38 37 37 36 34 34 32 31 30 30 29 28 25 24 23 20 18 18 16 16 16 16 14 12 13 13 17 28 27 28 31 33 35 35 38 39 40 39 40 38 41
47 46 45 44 43 41 40 38 36 35 35 35 33 33 33 33 32 27 28 26 25 24 23 21 21 21 18 17 15 15 16 16 17 15 18 23 27 31 31 33 32 31 34 35 36
50 50 50 49 48 47 45 42 40 39 38 38 36 36 35 37 37 31 34 33 32 31 30 29 25 23 26 24 20 20 18 16 17 16 15 14 14 14 15 16 20 22 25 26 27
55 55 54 53 53 51 49 47 45 45 45 43 41 41 40 41 42 37 38 38 39 37 35 33 30 30 29 28 27 28 24 20 18 16 17 17 16 14 15 18 23 20 20 22 14
60 59 58 58 58 57 55 54 52 52 51 51 49 47 47 45 46 45 42 44 43 42 41 39 37 38 35 35 32 31 27 27 21 20 18 17 16 18 18 19 20 19 18 19 11
65 64 63 64 63 63 63 62 61 59 58 57 55 52 49 49 51 48 46 45 44 43 44 43 40 39 39 40 37 36 33 31 25 23 20 19 18 17 18 18 18 17 16 16 15
70 70 69 69 69 69 68 68 66 64 62 61 59 57 56 54 54 53 46 46 45 44 46 46 44 43 42 40 40 39 40 34 29 27 23 21 20 18 18 17 16 15 13 13 17
76 77 77 75 75 74 73 73 72 71 70 67 65 64 61 57 54 57 55 52 54 50 52 50 45 47 48 45 44 41 39 36 32 28 27 25 22 19 19 18 15 12 11 11 18
80 81 81 82 81 80 79 79 78 75 74 73 70 68 64 64 63 59 58 54 57 60 56 50 50 48 46 46 46 44 42 41 39 35 34 29 26 22 19 20 14 11 13 11 17
86 87 89 87 85 85 83 82 81 78 74 77 74 70 72 69 67 62 56 55 55 55 54 54 55 46 43 44 46 44 45 45 46 45 42 33 29 28 22 18 15 14 14 12 16
92 93 94 94 93 93 91 89 87 84 80 79 83 72 72 68 66 63 60 60 54 55 59 55 52 43 44 45 45 44 48 48 46 44 43 40 35 31 26 23 18 18 15 9 16
93 98 101 101 101 99 97 95 94 90 90 88 81 81 79 74 74 67 65 63 55 58 55 54 54 50 48 48 43 45 40 40 42 42 45 42 37 37 36 31 25 22 20 17 11
94 97 98 98 100 102 104 104 99 97 94 98 86 88 85 81 78 74 70 66 66 62 58 55 54 49 51 44 43 42 39 40 40 40 37 39 43 44 40 40 30 25 25 20 17
99 101 103 104 104 102 98 97 98 101 108 107 92 89 89 85 83 77 76 74 69 64 60 61 57 57 52 50 48 43 39 38 34 34 38 47 52 53 48 44 36 32 27 23 19
110 110 110 110 108 105 103 101 103 103 111 94 96 91 92 93 90 86 82 79 73 70 69 67 61 57 53 49 49 45 42 38 36 36 42 48 37 53 54 48 41 36 32 25 24
107 106 109 109 109 106 103 104 107 107 97 97 88 97 101 105 98 91 84 85 81 77 72 69 64 65 58 56 50 47 37 43 39 36 37 35 43 50 49 49 43 40 35 30 28
99 97 97 97 96 94 96 99 105 104 92 87 99 100 102 109 107 101 94 89 87 82 81 76 74 68 64 58 51 43 49 36 32 30 35 36 41 47 45 49 45 42 37 36 31
80 78 77 76 73 71 71 79 91 104 102 98 102 100 105 98 94 104 101 98 91 84 82 82 76 72 69 57 55 52 41 33 34 32 36 37 42 39 41 46 50 45 44 41 36
64 65 65 63 63 58 61 61 67 84 101 104 105 102 102 99 93 104 116 104 90 89 88 83 78 76 63 68 66 60 53 48 43 39 38 42 36 32 35 41 49 52 47 44 40
57 54 57 56 55 48 48 52 57 66 81 97 107 104 102 91 95 103 103 97 98 97 92 86 81 76 76 75 68 59 56 52 51 50 42 44 34 28 30 36 45 53 52 50 45
53 52 51 47 46 46 42 42 47 55 68 84 97 103 105 99 99 102 99 95 105 100 93 88 84 80 76 67 72 68 61 57 55 53 48 44 42 36 31 34 40 50 53 55 49
51 49 45 44 39 37 38 36 41 45 57 71 88 98 105 106 102 102 96 94 103 100 101 95 89 84 83 84 76 69 67 62 57 57 54 50 49 47 38 35 35 48 54 58 56
52 48 43 37 33 31 31 32 32 40 50 64 77 86 95 108 107 103 92 96 103 95 97 97 92 92 90 83 73 68 65 62 61 61 61 56 52 56 49 42 36 38 50 57 62
49 44 38 34 30 25 25 25 28 34 43 55 66 75 87 99 106 105 95 92 99 96 97 95 97 94 86 83 76 72 68 66 63 62 61 59 60 60 56 52 44 36 37 44 55

GFSSW_250_spd_036.txt.gz
Wind_Speed
33 33 33 33 32 31 29 27 25 23 21 19 18 14 12 9 8 10 10 12 20 28 32 35 36 39 40 39 37 34 41 33 46 44 41 42 42 43 41 40 40 39 39 39 41
37 38 38 38 36 35 33 32 30 29 27 25 23 22 19 18 15 11 11 12 12 13 14 20 27 35 40 41 42 42 44 48 46 45 47 46 47 46 43 42 42 41 41 42 42
42 42 42 41 40 38 36 36 35 33 31 30 29 27 27 25 23 20 16 14 15 14 13 14 15 18 21 26 36 43 43 45 45 34 37 34 39 39 40 42 41 41 42 45 46
47 46 46 44 43 42 41 39 38 37 35 32 32 32 32 32 29 28 25 21 20 18 16 14 15 17 18 17 18 21 28 36 37 36 38 39 38 36 38 37 36 38 38 38 38
51 50 49 48 47 46 44 42 40 39 37 37 35 36 36 36 35 32 32 29 26 25 21 19 19 20 20 20 19 17 18 18 25 29 27 23 25 19 30 33 33 34 33 30 27
54 53 53 52 52 51 49 48 46 44 42 40 38 39 39 40 42 37 37 35 33 31 30 27 23 22 23 26 25 21 20 19 21 21 19 15 15 18 18 16 16 17 19 22 25
57 58 58 58 57 56 55 54 52 51 48 44 42 41 42 41 45 43 40 41 40 37 35 34 30 28 29 31 28 27 26 24 21 19 18 17 16 16 17 17 16 17 22 26 26
62 62 63 63 63 63 62 60 57 56 53 50 47 46 49 44 48 48 45 45 45 44 42 39 37 35 33 35 33 32 30 27 25 23 19 19 17 18 16 16 18 19 21 24 22
67 67 67 68 68 68 67 66 62 60 57 55 53 51 53 51 52 50 50 49 48 47 46 45 43 42 39 37 39 36 35 31 28 27 24 23 19 19 17 16 15 16 18 20 18
71 71 72 72 73 72 73 71 69 67 65 62 59 59 56 58 56 57 55 52 52 51 50 49 49 46 42 41 43 43 40 35 34 31 28 27 23 23 18 17 16 16 17 16 14
80 80 80 81 80 80 80 78 75 74 74 71 66 67 63 65 63 62 61 57 54 54 52 51 47 44 49 48 49 44 41 39 39 34 31 30 28 25 21 12 20 15 16 13 12
84 86 87 88 88 88 87 87 84 81 76 78 74 71 71 70 68 65 63 60 56 58 60 54 48 51 49 47 45 44 45 43 42 38 35 33 32 27 23 21 17 15 13 10 11
90 92 92 91 92 93 92 92 92 89 82 83 83 77 80 74 71 68 67 67 63 62 61 56 58 52 50 51 50 47 48 48 49 46 43 40 37 30 28 24 20 16 13 9 9
95 97 99 100 100 101 100 97 95 92 86 82 93 86 85 79 74 75 70 70 66 61 68 63 60 52 51 55 55 51 51 51 49 50 46 48 42 35 31 27 25 21 16 12 7
90 96 101 105 106 107 105 104 101 96 93 97 93 94 88 84 79 80 77 76 69 70 69 61 61 55 51 57 58 55 55 48 45 45 46 44 41 41 37 33 34 26 20 16 11
99 103 107 106 104 102 102 101 99 101 98 118 101 97 94 86 84 85 81 78 75 72 68 67 63 56 53 58 55 56 50 43 42 41 39 41 43 43 43 40 42 31 25 21 16
108 109 107 106 106 103 101 99 95 97 107 118 98 95 95 93 90 90 87 78 75 69 62 64 59 56 56 53 57 52 46 44 40 40 39 48 45 47 52 49 45 36 31 25 21
107 106 106 105 103 102 100 99 96 100 115 102 87 84 95 101 100 96 93 87 82 74 78 72 66 58 57 50 55 53 50 44 43 44 47 48 41 51 56 54 49 41 36 30 26
95 94 92 92 92 91 92 93 90 91 101 103 91 89 97 104 106 106 94 88 84 84 77 75 66 71 65 61 58 52 45 49 50 47 44 44 44 48 49 52 50 44 41 36 33
79 76 73 76 75 75 76 78 82 84 91 94 97 97 92 100 100 109 106 95 92 91 87 78 80 74 71 69 63 54 57 55 46 45 40 43 41 47 45 48 49 50 44 41 39
67 65 60 65 64 65 67 66 65 70 77 88 96 99 100 96 101 102 103 109 108 101 94 89 85 81 80 68 59 56 54 47 46 42 43 46 45 46 42 43 45 48 48 46 44
54 51 55 56 53 51 54 59 58 57 64 75 84 103 97 95 100 103 104 103 98 100 88 87 87 85 76 69 68 61 59 53 46 40 41 46 47 38 37 40 45 45 50 51 49
54 50 47 46 46 46 44 44 47 51 57 66 75 93 93 99 106 109 106 104 95 99 99 94 81 80 83 76 68 62 58 55 55 53 47 48 47 42 37 38 44 48 52 54 53
54 49 47 43 39 37 37 36 37 40 50 56 65 80 88 106 110 109 109 97 96 98 95 92 91 85 78 69 69 67 66 62 60 52 51 50 48 44 34 33 37 46 53 56 55
50 48 42 39 36 32 29 29 30 33 42 48 61 73 85 102 108 109 112 95 95 96 93 95 94 89 81 83 82 76 73 68 61 59 53 55 52 47 41 36 37 39 50 57 57
52 49 46 41 37 33 28 25 24 28 34 41 54 67 77 92 101 109 107 94 100 92 96 91 92 91 85 89 88 79 76 70 68 65 63 61 60 53 51 44 39 37 43 53 57
49 50 45 39 34 30 25 22 19 21 27 36 46 55 70 81 89 101 102 99 101 90 96 93 97 92 89 90 87 84 75 69 69 70 67 65 62 60 58 54 43 39 36 42 52

GFSSW_250_spd_039.txt.gz
Wind_Speed
35 35 34 32 32 32 31 29 26 22 19 18 16 14 12 10 10 11 13 23 35 36 37 38 37 35 33 31 30 30 20 27 28 31 19 23 24 31 37 40 40 44 45 43 42
39 39 39 37 37 36 35 33 30 27 24 22 22 20 19 17 16 14 15 16 20 33 38 38 39 36 38 37 38 36 42 36 25 33 43 38 37 33 42 41 42 41 39 40 40
44 43 43 42 42 42 40 38 36 32 29 27 27 27 26 25 23 20 19 19 20 20 24 30 36 39 39 41 42 46 45 47 44 46 46 45 41 37 36 36 39 37 35 33 32
49 48 48 49 48 47 46 43 40 37 34 33 32 31 32 31 29 28 26 25 23 22 21 23 24 25 28 31 37 43 47 49 48 46 46 44 44 35 43 42 29 28 30 32 32
54 54 54 53 53 53 51 47 44 42 39 36 36 35 35 37 33 34 32 31 30 28 25 23 23 24 23 22 25 26 32 36 39 46 45 41 35 40 37 22 23 23 21 19 17
57 58 59 59 59 58 56 52 50 47 44 40 39 39 39 41 40 39 39 37 36 34 32 29 26 23 23 25 26 24 25 23 25 22 23 25 24 23 17 17 16 16 16 14 17
61 62 63 63 62 61 60 58 55 53 50 47 43 43 45 41 45 46 43 43 42 40 39 37 30 28 28 28 27 25 25 23 23 22 23 21 20 16 15 11 14 18 17 16 16
65 66 68 67 67 66 64 64 61 59 57 54 50 49 51 44 48 50 47 47 48 46 44 42 39 34 31 33 29 27 28 28 28 26 24 22 22 19 15 14 17 14 15 15 17
66 67 69 69 70 70 69 69 68 64 63 61 58 55 57 52 52 51 53 53 52 51 50 48 44 42 36 34 33 32 33 33 30 28 27 27 25 24 18 15 17 21 18 14 17
72 73 74 75 75 75 75 75 74 72 69 66 61 60 60 60 57 57 58 56 56 54 53 52 50 46 41 37 38 41 38 36 33 34 32 31 29 28 24 15 6 19 22 16 14
79 82 83 84 83 82 83 83 81 78 77 74 69 65 66 66 62 61 62 60 59 56 55 55 53 50 53 48 48 42 39 37 37 35 33 33 29 28 26 17 19 26 17 18 10
86 88 89 91 92 92 92 93 93 88 81 83 80 74 78 74 67 66 66 64 63 64 61 56 50 59 56 53 50 45 42 41 41 38 35 36 35 35 31 25 24 8 23 23 8
92 94 94 94 96 98 98 97 97 94 89 92 90 86 87 79 75 74 71 72 66 66 62 60 65 61 56 54 50 46 42 45 46 47 43 41 39 37 37 32 30 24 26 18 11
89 94 97 102 103 105 105 103 102 97 96 98 98 96 91 88 79 83 80 78 74 69 70 68 68 62 60 54 52 46 48 50 49 48 47 43 42 41 40 39 33 32 36 18 15
93 98 99 101 103 103 102 102 103 100 107 109 96 97 93 91 89 90 88 86 78 77 78 65 70 66 61 59 59 56 55 54 53 49 48 45 42 42 41 40 36 33 35 27 23
98 103 105 106 106 105 103 99 97 95 102 104 98 96 99 95 93 93 93 89 88 84 78 75 77 73 66 65 61 62 55 50 51 51 46 45 44 44 44 46 45 38 34 28 24
93 97 103 106 106 101 101 98 95 94 101 106 90 88 95 106 104 103 96 93 89 84 75 79 73 69 68 64 62 64 59 54 47 46 41 49 49 44 49 51 48 44 34 30 27
97 100 99 97 95 91 93 93 91 87 92 97 95 97 92 95 108 108 102 95 90 83 84 80 77 69 70 67 65 63 60 54 51 49 52 58 47 51 53 52 49 43 38 35 31
87 83 78 76 76 76 77 78 79 76 81 87 85 91 96 95 94 101 102 100 92 92 85 83 75 82 79 73 69 64 55 55 57 57 56 53 49 47 44 40 41 40 39 38 37
69 65 62 62 66 66 68 68 67 66 72 80 82 85 92 96 95 96 99 98 105 103 103 91 93 87 80 81 73 60 64 58 55 56 52 53 49 45 37 38 40 41 39 44 43
62 56 52 49 49 56 60 61 61 57 62 67 73 83 95 91 93 98 99 98 100 107 104 95 89 85 88 78 64 63 60 57 58 58 56 56 50 47 42 39 36 40 43 45 50
59 52 48 43 45 44 46 49 55 55 55 56 59 71 87 89 93 96 103 101 101 101 101 99 90 94 81 68 67 69 62 62 53 52 53 54 49 45 44 41 38 38 45 45 53
57 54 48 45 39 37 38 40 42 46 52 51 51 64 78 86 93 97 100 104 99 97 95 99 96 91 88 87 78 66 60 60 59 63 57 55 52 45 42 41 36 40 46 50 54
52 46 48 45 40 36 35 33 32 32 41 47 50 58 70 78 89 96 99 102 101 97 95 92 93 89 83 76 74 68 64 67 66 60 61 54 54 47 43 42 43 42 43 50 53
51 48 43 45 42 38 35 32 30 24 28 37 46 50 60 71 81 92 100 102 102 99 93 89 85 87 83 78 77 76 75 72 61 62 59 61 55 49 47 41 42 39 44 47 53
47 45 46 44 42 39 34 28 27 24 23 28 39 44 52 63 73 86 99 104 101 99 92 86 90 87 87 84 88 83 72 68 67 67 65 65 56 52 52 45 40 41 43 45 51
42 43 45 42 41 40 35 29 23 20 19 22 29 35 46 54 66 74 92 100 100 98 90 88 90 84 90 92 86 79 73 71 71 71 68 66 60 55 56 52 47 46 42 43 42

GFSSW_250_spd_042.txt.gz
Wind_Speed
41 41 39 37 36 34 33 32 30 23 20 20 17 15 14 13 12 17 32 44 43 43 43 39 36 33 32 31 30 29 26 24 22 20 16 17 25 33 38 36 38 41 32 36 35
44 44 43 42 40 38 37 36 35 30 25 24 24 21 22 19 17 15 21 30 41 44 45 43 43 39 37 35 35 32 33 30 19 28 33 26 26 30 34 41 43 39 40 36 33
47 47 47 46 45 44 42 41 40 36 31 28 27 28 27 27 23 23 21 23 30 38 44 43 44 44 42 41 40 37 37 36 35 26 33 33 34 38 44 46 44 36 41 28 25
51 51 51 50 50 49 48 47 46 42 38 34 33 32 34 33 29 31 28 26 26 28 33 39 44 44 44 45 44 43 44 43 41 40 41 44 41 47 48 49 42 35 23 18 15
52 53 53 53 54 54 54 53 51 48 45 40 38 38 38 38 34 37 34 34 32 30 29 33 37 38 42 41 44 45 44 44 45 47 45 43 47 48 44 35 27 18 17 15 13
56 57 57 58 58 59 58 57 55 54 51 47 43 42 44 41 39 42 42 40 39 37 35 34 34 30 28 32 36 31 31 33 34 36 39 41 40 34 23 22 22 16 15 16 14
59 60 61 62 62 63 63 62 60 59 57 53 49 48 49 42 43 49 45 46 46 44 43 40 34 32 32 31 31 28 25 25 24 22 18 20 22 18 21 19 20 17 16 18 15
63 64 65 65 66 66 66 65 64 63 62 59 55 54 57 48 49 52 48 49 51 49 47 46 42 39 35 37 30 29 24 28 26 25 23 19 26 19 21 16 16 15 11 14 15
67 68 69 69 69 70 70 69 69 67 66 63 60 60 63 57 53 53 54 52 54 54 53 51 47 47 41 40 36 30 33 33 29 28 29 24 25 22 21 18 17 17 12 16 13
73 75 77 77 77 78 77 75 73 73 72 68 65 65 66 67 61 60 61 58 58 58 55 54 52 49 45 41 42 45 39 37 32 32 30 27 24 24 22 20 18 14 10 11 11
79 80 82 83 84 85 87 85 82 80 83 76 73 71 73 72 69 66 66 64 60 58 60 60 55 51 55 52 53 48 45 39 34 32 31 30 24 25 25 23 18 18 16 17 16
84 87 90 90 91 91 92 92 91 89 91 87 82 79 81 73 72 73 69 67 66 65 66 60 55 62 60 56 53 49 47 41 41 35 35 32 31 29 26 25 22 22 20 19 13
85 89 92 96 97 98 97 96 95 95 96 97 94 91 88 82 78 81 77 76 70 71 67 65 69 70 66 62 56 49 47 48 49 45 40 38 34 30 30 27 28 27 22 21 15
91 92 92 98 97 99 101 101 100 101 100 98 97 98 97 94 91 93 88 84 78 73 72 70 76 70 67 63 57 51 51 52 54 49 45 44 39 34 32 28 31 29 27 24 21
81 82 87 89 98 104 106 104 100 98 99 99 102 101 99 97 97 100 95 90 83 80 77 67 76 75 69 63 63 59 58 55 58 53 53 46 41 36 34 31 34 35 33 30 30
74 82 88 91 94 94 90 88 92 98 100 93 96 97 103 102 99 102 101 93 92 89 82 79 82 77 72 76 70 71 65 62 61 56 51 46 40 40 35 39 42 39 35 33 31
72 78 84 89 93 92 88 91 91 87 86 83 86 91 98 98 102 107 104 99 99 96 85 87 84 81 80 79 74 74 70 67 64 56 45 47 42 47 44 44 45 38 37 35 33
74 76 83 84 83 81 82 80 81 78 78 77 83 88 94 97 102 103 106 107 101 97 96 92 92 83 82 81 78 75 71 65 59 55 51 49 41 55 53 48 47 41 39 37 36
78 75 72 71 68 65 68 68 67 67 68 69 76 80 87 94 100 103 101 105 108 107 101 96 90 93 90 83 83 79 69 68 66 62 59 52 53 55 55 50 43 41 36 39 38
75 65 60 58 54 53 56 58 61 60 61 60 72 74 83 89 98 100 104 105 107 107 103 99 92 92 88 92 89 75 76 73 66 63 57 57 55 53 53 48 41 35 31 44 44
69 59 52 49 46 44 48 50 53 54 55 54 60 66 72 85 93 102 105 105 108 104 102 103 95 93 100 94 80 79 76 72 71 67 58 59 56 57 49 46 39 34 34 43 46
67 53 50 47 46 43 40 40 42 48 49 51 51 53 67 76 88 96 106 106 107 105 101 104 97 102 93 82 82 87 83 80 73 64 59 61 63 57 49 44 40 37 34 39 47
64 54 47 41 42 43 41 40 35 39 41 46 48 49 58 68 83 91 102 106 108 107 104 100 101 102 94 93 91 86 76 72 69 70 66 66 61 55 51 48 47 43 40 40 46
53 48 39 37 38 38 41 40 37 30 35 38 41 45 49 63 75 83 98 102 107 107 107 103 98 102 100 96 91 81 74 69 68 68 65 62 66 55 54 53 51 50 45 43 44
48 38 31 34 42 39 38 36 35 28 27 29 35 40 43 52 66 75 84 94 102 104 107 100 95 99 100 95 88 79 73 70 65 60 60 68 62 56 57 56 52 50 46 44 43
40 33 32 32 37 40 40 35 32 24 24 21 28 33 37 43 56 69 81 94 103 102 104 99 98 91 91 93 87 83 79 74 66 65 68 70 64 60 58 57 52 51 48 44 43
32 30 29 35 37 39 39 33 29 26 18 17 20 26 32 38 51 60 74 89 100 99 103 101 96 90 91 95 95 89 88 81 75 76 76 74 70 65 63 60 55 53 46 42 41

GFSSW_250_spd_045.txt.gz
Wind_Speed
42 42 42 41 39 37 36 34 32 30 28 25 21 19 16 14 14 23 39 44 44 40 38 37 35 32 30 30 27 26 22 14 15 16 22 27 27 28 29 33 35 36 41 49 47
46 45 44 45 44 43 41 39 37 34 33 30 27 26 23 21 19 17 25 41 45 46 44 42 40 38 35 33 31 30 29 25 24 20 18 27 30 27 31 35 36 37 48 53 38
49 49 49 48 47 47 45 43 42 40 38 36 33 32 31 27 25 24 24 27 38 48 48 48 46 45 43 40 35 35 35 34 33 30 21 33 33 33 28 34 33 44 51 46 27
53 53 51 51 51 50 50 48 47 46 45 43 40 37 37 34 29 32 28 28 29 39 46 50 49 51 48 44 42 40 40 40 37 36 38 35 34 33 38 38 41 47 49 28 25
51 51 51 51 51 53 53 52 51 50 51 49 47 44 43 39 37 38 35 34 34 32 37 43 49 51 50 50 49 44 44 44 43 42 41 41 44 43 42 44 44 45 25 24 20
55 55 55 55 55 55 55 55 54 55 55 54 53 52 51 44 43 45 42 41 39 38 36 39 43 44 45 50 49 48 49 49 47 45 46 46 45 42 44 44 41 20 20 18 15
59 60 61 61 61 60 60 60 60 60 60 59 58 57 59 47 49 51 47 46 46 43 43 40 36 37 42 48 41 41 40 42 42 41 42 43 36 28 24 18 16 18 15 15 17
61 62 64 64 66 65 65 64 65 65 64 62 62 63 67 57 54 53 52 52 54 51 48 46 42 39 37 41 33 32 31 38 33 29 28 28 20 17 17 15 17 17 15 18 15
65 66 67 69 69 69 69 69 69 70 68 67 67 67 68 65 60 61 60 58 57 59 56 50 49 47 42 41 35 31 35 39 32 30 29 25 20 19 20 18 17 16 15 18 13
71 74 75 76 78 78 77 76 76 77 73 70 70 73 72 71 68 66 67 63 62 61 58 55 55 53 49 45 43 46 46 45 37 32 29 28 26 24 22 19 16 16 15 15 13
75 78 79 80 82 82 84 84 85 87 83 78 76 77 75 74 75 73 73 69 65 62 61 61 58 53 59 59 56 52 47 44 42 34 28 31 27 28 23 22 21 17 15 17 16
75 80 83 83 86 87 88 89 89 91 94 89 87 84 82 77 80 78 78 75 70 67 70 65 53 63 66 61 60 55 52 49 48 38 33 31 29 31 27 23 26 21 18 17 13
71 75 77 80 86 89 91 94 95 95 95 97 94 92 91 87 87 85 82 80 77 76 72 68 68 70 68 65 63 59 57 58 56 49 43 35 31 29 34 26 28 25 19 17 14
66 70 73 74 79 84 88 91 97 98 100 103 101 99 97 95 96 95 91 86 83 80 78 73 75 70 68 65 64 62 64 65 63 56 50 43 38 35 37 33 28 26 23 17 17
68 71 73 74 79 83 86 87 88 92 96 101 103 106 104 102 100 104 100 95 90 88 83 73 76 72 68 65 67 66 65 66 67 63 59 48 42 37 34 36 31 29 27 24 18
62 66 70 74 76 80 85 89 84 89 87 86 92 102 108 108 107 107 105 103 99 94 88 83 85 78 74 78 72 76 73 71 70 68 58 50 43 38 32 42 38 34 30 29 27
65 69 71 74 75 79 81 81 81 85 87 83 85 90 97 106 110 114 111 107 107 103 99 91 87 83 82 81 78 78 76 73 71 64 46 52 41 36 38 40 44 35 29 31 32
66 70 74 74 75 73 70 70 72 74 77 78 80 82 90 100 108 116 113 113 112 107 104 101 98 87 82 78 77 76 76 70 65 60 49 51 40 45 46 46 45 37 33 33 32
71 70 74 75 69 64 61 59 61 63 65 69 71 72 80 94 103 109 116 113 114 112 109 105 99 97 92 86 84 79 73 74 72 67 60 54 48 55 49 47 45 46 41 36 35
70 74 75 69 59 54 52 50 51 55 57 60 64 65 71 85 101 108 112 113 114 114 116 107 100 102 97 98 96 84 83 78 69 67 60 56 50 57 50 52 49 46 42 37 37
72 74 69 60 50 47 48 48 47 50 53 54 58 61 63 71 87 102 111 111 115 112 113 112 104 104 104 104 92 87 80 78 79 74 64 59 54 61 56 54 52 47 43 43 40
72 67 59 50 45 44 44 42 42 44 48 48 52 57 59 61 76 88 107 110 114 113 111 109 108 110 105 100 97 94 89 86 76 66 63 62 58 68 62 58 52 49 44 45 41
70 57 50 45 45 44 43 40 40 42 42 45 47 52 54 55 65 80 95 110 112 113 111 109 109 112 110 105 103 99 93 85 78 78 69 63 72 62 62 60 54 50 45 44 45
61 49 41 41 40 37 42 44 43 39 38 40 42 45 47 49 58 74 86 100 109 112 113 110 110 112 113 110 105 98 95 88 82 78 69 62 74 66 66 62 58 51 46 50 53
50 41 37 33 31 32 35 39 43 42 35 31 34 38 44 43 53 69 77 87 98 105 112 110 110 110 111 111 104 95 92 88 83 72 68 73 71 69 68 66 59 52 51 52 54
39 31 29 27 29 35 38 41 43 43 38 28 31 30 39 40 45 62 69 76 84 97 104 106 110 108 105 107 105 100 99 90 82 77 71 75 72 74 69 66 59 55 54 53 55
30 26 26 29 36 40 45 47 46 42 37 29 25 27 32 36 41 54 64 67 74 87 98 103 108 106 105 105 106 106 100 92 88 83 75 75 77 72 69 66 59 56 56 54 56

GFSSW_250_spd_048.txt.gz
Wind_Speed
44 43 43 41 40 38 37 36 33 32 33 29 25 20 17 15 17 26 41 44 42 40 39 37 34 32 31 29 28 25 22 21 21 18 20 21 18 19 21 26 28 26 36 40 40
46 46 46 45 44 43 41 41 39 37 36 36 32 28 24 21 20 20 30 39 46 45 44 41 40 36 35 33 30 27 25 21 19 22 25 22 30 26 28 32 29 32 36 41 44
44 46 46 46 48 47 46 45 44 43 41 40 39 35 31 28 26 26 25 30 39 45 48 45 44 41 38 35 33 32 29 29 27 24 24 22 18 22 25 29 29 30 38 40 45
46 47 48 50 51 51 51 49 48 48 47 45 44 43 38 34 32 34 29 28 29 38 47 52 49 45 42 39 39 36 35 35 33 32 33 32 28 27 30 32 34 35 41 44 47
50 51 52 53 53 54 54 53 52 52 50 49 49 49 47 39 41 38 36 34 32 33 35 49 53 51 48 46 44 42 40 38 39 37 37 35 32 32 32 36 38 42 44 43 25
51 52 53 54 54 54 53 52 52 52 51 53 53 54 53 46 45 44 42 39 37 36 36 36 45 51 50 50 49 50 47 45 43 41 41 40 37 37 37 39 41 43 37 19 19
55 55 57 58 58 58 58 58 57 57 56 56 56 57 57 52 50 49 48 46 43 42 40 38 34 36 46 52 47 50 48 50 49 47 45 44 42 41 40 40 41 32 14 16 17
57 58 59 60 61 62 62 64 64 64 61 61 62 62 61 58 56 55 54 54 52 48 46 43 42 38 36 41 40 42 45 50 49 50 51 47 45 43 40 31 22 14 11 16 16
64 64 65 66 66 67 67 68 68 68 66 67 67 68 67 66 63 62 60 60 57 55 52 47 47 45 41 39 35 34 40 47 47 48 46 42 43 34 24 20 14 11 12 13 11
65 67 68 71 74 75 77 77 77 76 71 71 71 72 72 72 70 68 67 65 62 60 56 51 50 50 48 45 42 41 49 48 44 43 40 35 29 26 25 18 13 13 12 9 9
66 68 69 72 75 78 79 82 85 86 81 80 78 77 76 76 76 74 73 70 67 64 60 61 56 50 55 56 54 47 49 43 41 36 36 32 30 28 22 18 16 16 14 10 6
57 58 61 64 67 71 76 83 89 89 89 88 88 87 86 83 82 79 79 78 73 70 69 64 57 67 61 56 56 51 52 50 46 38 39 36 36 29 26 19 18 19 15 11 6
59 58 58 60 64 71 76 79 85 89 91 94 93 94 93 93 93 89 85 83 80 76 73 70 71 70 66 63 59 56 56 58 56 45 44 41 38 30 28 22 24 21 17 13 6
61 64 66 67 68 70 72 74 80 88 88 93 96 98 100 101 100 98 94 90 86 82 81 76 78 73 72 65 63 59 61 65 64 51 47 45 39 33 30 26 24 21 19 16 11
61 64 66 71 74 75 76 77 79 83 87 91 96 97 101 102 104 105 102 99 97 91 86 78 81 78 76 71 68 67 65 67 70 59 54 47 41 39 34 32 31 29 22 19 16
62 67 70 73 77 78 79 75 77 80 81 84 90 95 99 103 105 107 109 107 105 101 94 87 86 83 80 82 76 77 70 71 74 67 53 46 40 45 37 44 36 30 28 24 20
63 69 73 76 77 78 78 77 78 80 81 81 85 89 93 94 104 108 110 111 111 108 104 96 92 86 86 86 84 79 77 74 76 69 46 50 42 41 47 46 39 38 32 28 23
66 68 73 77 79 80 77 77 77 77 77 76 78 82 89 93 97 102 108 110 114 114 111 106 102 95 90 88 88 84 83 75 69 61 50 53 44 39 55 48 47 43 37 30 26
71 70 74 77 75 74 74 72 70 66 66 65 67 69 76 84 91 96 102 111 112 116 116 112 105 103 99 97 94 89 83 77 74 65 57 53 50 51 56 51 51 46 38 32 30
69 72 71 67 68 71 70 63 57 56 55 56 60 62 65 73 83 90 94 105 113 113 117 117 111 110 106 103 99 91 86 87 77 71 62 56 52 55 57 56 55 48 42 38 34
64 65 61 64 69 66 60 52 45 46 49 51 54 58 61 67 74 83 88 99 111 112 113 119 118 114 113 109 102 96 93 87 82 77 65 59 53 58 63 60 56 53 46 38 32
60 58 61 64 60 52 44 42 44 46 48 49 51 55 57 61 67 75 81 91 107 116 112 115 120 120 115 111 109 105 98 92 85 73 69 64 61 66 67 62 59 58 48 42 36
57 58 58 53 44 38 39 37 37 39 42 46 47 51 54 57 61 67 72 80 94 108 111 111 116 121 121 118 114 112 106 97 85 82 73 66 61 70 70 63 61 57 49 46 39
57 53 47 39 34 35 38 39 40 41 43 46 46 46 51 54 54 60 64 68 84 98 105 106 111 121 124 122 117 112 109 102 92 82 73 67 70 73 73 66 62 59 50 46 42
50 46 33 28 27 29 33 38 43 46 45 42 37 39 44 47 48 51 56 62 79 88 95 101 109 118 125 124 119 115 109 104 96 86 77 72 73 75 74 69 64 57 55 53 48
41 29 24 20 21 27 34 40 48 52 52 43 33 33 33 37 39 43 46 58 74 80 87 94 105 113 125 122 121 117 112 105 98 90 82 79 82 79 77 71 64 59 52 51 52
24 19 19 22 25 31 40 45 52 53 50 38 29 27 27 28 32 34 39 50 65 72 79 86 102 112 123 123 119 116 112 104 98 92 88 86 88 81 78 73 66 62 56 56 56

GFSSW_250_spd_051.txt.gz
Wind_Speed
48 48 47 45 43 41 40 37 35 33 32 28 22 18 16 16 20 37 44 42 42 40 37 36 32 29 26 25 25 27 25 23 20 18 21 22 23 18 20 19 27 27 30 34 34
45 46 47 46 46 45 44 41 40 38 36 35 31 25 22 21 22 23 37 44 45 43 40 38 36 33 31 30 28 29 26 24 24 21 23 23 21 22 21 25 25 26 29 34 41
42 44 45 45 47 48 47 46 44 43 41 39 37 34 29 27 26 27 26 32 44 47 45 42 41 38 35 32 30 30 29 28 25 24 21 23 26 18 22 25 23 27 33 36 40
43 44 45 46 47 47 49 49 48 46 45 44 43 41 36 34 32 31 30 29 33 39 50 50 45 43 40 38 35 33 32 31 29 26 23 23 23 25 22 20 24 27 27 36 39
46 47 48 48 49 50 50 51 51 50 50 49 49 47 43 40 40 37 37 34 34 33 38 48 49 48 44 43 41 38 36 35 35 33 31 28 30 29 29 29 28 25 35 38 41
48 49 50 51 52 53 54 54 54 53 53 52 52 51 49 46 46 43 42 40 38 36 36 37 43 48 49 50 47 45 44 42 39 37 35 36 37 34 34 32 31 31 36 36 28
50 51 52 53 54 56 57 57 56 55 55 53 53 52 51 49 50 49 47 46 43 42 40 39 37 38 46 49 50 52 49 47 44 43 40 39 37 35 34 32 32 34 35 24 14
56 56 57 56 56 57 59 59 59 59 58 58 58 57 55 54 53 52 52 52 50 47 45 42 39 38 37 42 43 51 53 51 50 48 47 43 41 40 36 34 35 35 25 12 10
64 63 64 65 64 64 64 63 62 61 61 62 63 63 63 61 59 58 56 56 55 53 50 47 45 43 41 39 35 39 45 53 54 52 48 46 45 43 40 38 36 26 16 7 7
65 64 65 68 70 71 71 72 71 69 68 68 67 68 67 68 67 65 64 61 60 59 54 52 50 48 46 45 45 45 49 48 53 52 52 48 45 42 36 31 23 18 9 3 4
63 64 65 68 71 72 73 74 74 75 76 76 77 76 75 73 72 72 72 69 66 63 61 60 56 55 57 54 52 48 47 42 42 41 39 39 39 34 26 22 20 17 10 5 4
62 62 62 63 65 67 70 72 75 77 75 79 82 83 84 84 81 79 77 76 74 70 69 65 60 67 61 56 55 52 51 47 42 37 36 34 32 25 27 22 23 21 15 11 6
62 65 66 66 67 67 71 72 71 72 72 75 80 84 88 89 89 89 86 83 80 78 74 70 73 69 68 62 59 55 55 57 50 44 40 35 30 29 28 28 28 21 17 12 8
65 65 64 64 67 69 71 74 74 74 74 73 76 83 88 90 92 95 94 94 89 85 82 76 77 74 73 66 63 59 61 64 59 52 47 40 36 34 29 29 28 22 19 16 12
62 64 66 68 70 71 72 74 77 80 81 81 82 87 91 86 93 97 99 98 98 94 88 81 84 80 76 75 72 69 66 70 67 57 53 44 39 37 30 30 31 28 23 18 14
58 62 61 62 65 69 70 74 77 81 83 86 86 88 91 93 91 96 101 101 103 101 97 92 89 85 80 84 80 81 75 76 73 64 53 50 43 39 34 38 36 31 25 21 17
57 61 66 68 70 71 73 75 78 81 85 84 87 88 88 91 93 92 97 102 103 106 104 102 98 92 87 90 87 85 80 79 79 67 50 55 48 45 44 44 41 34 30 24 19
67 70 71 72 74 77 78 80 81 82 83 83 83 81 81 83 86 88 89 97 104 106 109 108 107 101 96 93 90 90 86 82 78 70 58 58 48 47 48 50 45 40 35 26 25
74 74 76 74 75 77 79 77 75 75 75 73 74 74 75 79 83 88 90 92 98 108 109 113 112 108 106 103 98 95 88 81 87 77 67 57 54 54 56 53 48 45 39 35 33
73 73 72 71 70 70 69 67 66 69 70 70 70 66 65 67 73 79 84 90 95 100 109 112 113 115 113 110 105 99 94 95 89 80 70 65 60 57 60 59 57 52 46 41 37
53 53 54 56 57 58 58 61 63 61 59 57 56 57 57 59 64 70 75 83 91 98 104 110 115 117 119 115 113 106 103 95 90 83 73 68 62 63 63 66 61 56 53 48 42
43 44 46 49 52 56 56 55 51 46 45 44 47 49 51 54 56 62 69 76 85 94 103 106 112 118 121 119 119 116 108 101 96 83 77 73 67 69 70 68 65 60 55 50 42
43 45 48 48 50 49 44 39 37 38 39 40 44 47 50 53 55 61 66 73 80 87 98 106 109 111 122 126 124 123 116 107 94 89 83 77 68 72 75 72 62 61 56 51 44
45 46 44 43 40 34 33 34 35 38 40 43 45 45 47 52 58 61 65 70 77 82 91 101 106 113 120 129 128 127 121 114 102 95 84 80 74 76 77 75 68 65 62 55 45
34 34 31 23 22 26 30 34 38 39 42 45 48 45 47 52 56 57 58 64 71 76 84 94 101 109 118 126 127 128 123 116 106 96 86 82 79 82 81 81 75 67 62 54 46
15 14 15 16 21 27 32 36 37 41 45 49 47 49 46 43 46 47 49 55 63 69 78 83 91 100 112 122 125 128 125 118 109 99 89 84 81 85 86 81 76 67 60 53 46
12 11 15 20 25 29 33 38 40 41 50 44 43 43 38 35 36 39 42 47 53 60 67 74 87 94 107 119 124 125 124 117 112 104 95 88 84 87 89 83 78 71 63 56 52

GFSSW_250_spd_054.txt.gz
Wind_Speed
42 48 47 47 46 45 43 40 37 34 31 26 21 18 17 16 17 31 44 43 42 40 38 34 33 30 26 24 22 25 24 26 23 19 18 21 20 15 18 19 23 25 29 30 33
39 41 46 50 50 49 47 45 42 38 36 33 29 25 22 22 21 19 37 44 44 44 41 38 36 32 30 29 26 25 27 25 25 23 20 21 22 20 19 23 24 26 25 27 31
38 40 42 44 47 47 46 46 44 43 41 39 37 33 28 26 27 26 25 35 45 48 45 42 40 35 34 30 26 26 26 25 24 24 22 22 22 24 23 20 18 18 23 28 28
42 43 43 43 45 45 45 44 44 45 45 44 42 40 35 33 32 32 29 29 39 48 49 47 45 42 39 37 33 29 30 30 28 27 25 23 16 22 24 23 22 20 26 27 31
46 46 46 47 48 46 47 46 46 47 47 47 46 44 42 39 38 37 37 34 34 35 44 50 47 47 44 42 39 37 34 34 33 30 27 25 26 25 23 22 24 26 29 29 32
47 47 48 49 50 50 50 50 49 49 49 50 49 48 47 45 44 44 42 40 38 38 36 41 47 53 51 48 45 44 42 40 37 35 35 32 28 28 26 25 27 29 30 30 31
50 51 51 51 52 51 51 52 53 53 53 54 53 52 51 51 48 48 49 47 45 43 42 39 37 42 49 53 54 50 48 46 44 40 39 35 36 34 33 31 32 30 28 29 34
55 55 56 56 56 55 55 55 55 56 56 56 57 57 56 54 52 51 51 52 51 48 46 44 41 40 40 43 48 55 55 52 49 47 45 41 39 35 33 30 30 28 30 29 25
63 62 64 65 65 63 63 61 60 59 59 59 59 60 60 59 57 55 54 53 56 55 53 49 47 45 44 41 40 47 56 56 54 51 49 45 43 38 37 34 32 32 31 27 16
66 66 68 70 71 70 70 69 68 67 66 64 64 64 63 63 62 61 60 58 55 57 57 55 53 51 49 46 45 47 53 57 58 56 53 48 46 42 39 36 33 31 27 17 12
66 66 69 72 73 73 72 72 71 72 73 73 72 72 70 69 67 66 65 64 62 59 60 60 58 58 59 54 50 48 48 46 49 54 53 51 47 44 41 39 34 28 20 20 11
67 68 69 70 71 72 75 76 76 74 75 76 77 77 77 78 76 73 71 69 68 67 64 63 62 67 62 59 55 52 51 49 44 43 44 47 47 43 39 33 29 24 26 21 13
67 67 68 70 72 75 75 73 73 71 72 75 78 80 81 81 81 81 81 77 74 72 72 69 70 69 68 66 62 58 56 56 51 45 40 37 36 34 30 29 31 28 27 21 16
68 69 69 70 71 73 74 75 78 77 76 76 78 78 79 80 82 84 85 87 84 81 78 74 74 73 73 70 68 63 63 62 57 53 46 39 33 31 29 31 30 29 27 24 20
66 69 68 68 71 74 75 76 77 78 79 78 81 85 84 83 82 80 84 88 89 88 86 83 82 79 78 77 75 73 70 67 64 57 53 40 35 33 31 32 32 32 30 26 22
64 66 67 68 69 68 71 75 76 79 80 80 81 84 86 86 86 87 87 85 87 89 90 92 90 86 83 84 82 82 75 76 72 64 56 48 40 38 34 37 39 36 32 30 24
69 69 69 68 70 71 70 68 72 77 77 78 82 87 88 89 88 89 89 89 89 88 89 93 94 97 93 89 88 85 81 80 80 70 51 56 49 44 42 42 42 38 33 30 25
73 75 73 74 75 75 75 75 77 77 80 83 86 88 91 91 91 92 93 94 95 93 92 90 95 103 100 98 94 91 88 85 80 75 61 64 52 52 49 48 46 39 36 29 29
60 68 74 75 79 82 83 83 83 83 85 88 90 90 90 91 91 95 96 98 100 101 104 97 98 98 105 106 104 97 93 82 89 85 74 68 62 61 57 55 52 45 39 35 34
38 47 53 59 64 69 73 76 79 82 81 82 85 86 87 88 93 94 95 96 100 105 106 101 105 104 103 109 110 109 95 98 94 89 78 74 67 62 63 62 58 53 47 45 41
38 37 38 42 46 49 52 54 55 59 62 64 66 68 73 75 79 81 83 86 91 97 102 103 104 106 106 112 114 110 112 104 95 90 82 78 72 67 68 68 65 61 57 53 48
40 40 40 40 40 42 45 48 52 55 57 59 62 65 66 68 70 73 74 78 83 89 94 97 102 105 105 114 117 115 119 110 103 93 87 85 81 74 70 73 69 68 63 60 54
34 36 38 39 41 43 45 48 50 50 50 53 55 58 59 61 63 65 69 71 76 80 85 93 99 102 102 109 120 124 125 120 112 100 95 90 82 74 74 77 74 70 66 64 59
25 26 28 31 35 36 38 41 44 46 48 49 51 53 55 57 60 60 65 66 72 76 81 86 94 102 105 114 123 126 126 122 113 105 96 91 85 80 82 79 79 74 71 66 59
18 16 17 17 21 27 31 34 37 41 44 47 51 53 53 57 62 64 63 64 67 72 79 84 89 98 106 112 115 123 126 120 118 109 101 96 90 84 86 85 82 81 76 68 62
13 11 11 16 21 26 29 32 36 38 40 41 44 48 55 57 56 56 56 59 60 63 69 78 85 91 101 112 114 119 128 125 122 113 107 99 90 92 93 86 81 79 75 72 66
16 16 19 20 22 26 28 32 36 40 40 41 39 43 43 41 39 39 43 47 51 57 61 68 80 84 92 104 110 111 120 124 117 115 113 102 95 93 93 93 86 82 80 72 69

GFSSW_250_spd_057.txt.gz
Wind_Speed
34 36 38 40 42 41 41 41 39 35 31 27 24 21 20 20 20 30 44 44 42 41 40 36 34 32 28 26 24 22 23 22 22 20 19 16 18 10 14 19 22 22 25 32 30
35 34 37 39 41 44 44 43 42 41 39 34 31 28 25 25 23 24 29 45 46 43 42 40 36 33 31 29 25 23 23 23 24 23 21 18 17 19 22 27 24 23 26 22 27
38 38 39 38 40 42 44 45 46 45 43 41 37 34 32 30 29 27 26 34 45 47 45 44 40 36 34 30 26 23 25 26 24 25 21 18 13 21 21 24 24 22 23 25 29
43 42 42 43 42 42 43 44 45 45 44 42 41 39 37 36 35 33 31 32 39 46 48 46 45 42 38 35 33 30 27 27 27 25 23 21 21 20 23 27 24 24 26 25 29
46 46 47 46 46 45 45 44 45 45 45 45 44 44 43 41 41 39 38 36 36 41 48 49 49 47 43 41 38 36 34 32 31 28 24 23 22 5 27 24 22 23 24 24 31
51 51 51 50 50 49 49 49 49 48 48 48 47 46 46 45 44 43 43 41 41 39 43 50 49 52 49 48 46 43 40 36 34 34 32 28 25 29 32 30 23 23 24 28 27
56 56 55 56 55 53 53 53 53 53 53 52 51 50 48 49 48 48 47 47 46 45 42 43 46 49 51 51 52 49 45 43 40 37 35 33 32 31 31 30 27 25 26 28 26
59 59 59 59 58 57 57 57 57 56 56 55 55 55 54 53 53 52 51 51 50 50 48 47 45 44 49 50 55 53 52 48 45 43 39 36 35 34 36 34 31 27 26 26 27
64 65 66 65 64 63 62 61 61 60 59 58 59 58 58 58 58 58 57 54 54 55 54 53 50 49 46 46 46 55 57 55 50 46 43 39 30 39 39 36 31 27 27 27 25
64 65 68 69 69 69 69 68 67 66 65 64 63 62 61 62 61 61 61 60 57 57 58 57 57 54 51 48 47 51 56 58 58 54 47 41 31 31 37 39 36 31 29 26 25
68 68 68 69 70 71 71 72 74 75 74 72 72 70 69 66 65 65 64 64 63 59 60 62 61 61 60 55 53 49 47 49 53 53 53 49 42 29 33 40 38 33 30 27 24
73 71 70 71 73 73 72 73 74 75 77 78 79 77 76 75 73 70 68 67 66 66 64 61 62 67 66 61 56 53 53 51 50 49 50 53 54 55 52 46 41 35 34 29 21
69 74 75 75 74 74 75 76 76 76 76 78 79 79 80 80 79 78 76 72 71 69 68 67 68 68 69 66 63 58 59 58 52 46 45 45 49 53 51 47 44 38 34 28 23
70 71 75 77 79 78 78 77 77 78 79 77 78 78 82 83 82 82 82 81 78 76 73 72 74 71 70 69 69 65 64 63 58 51 48 46 42 40 25 49 43 37 32 27 27
72 72 71 72 73 78 78 79 79 79 82 75 79 81 82 81 80 84 85 85 85 83 81 78 77 76 75 74 73 71 69 65 63 57 56 47 40 35 37 36 35 33 30 31 29
68 73 73 71 72 72 73 77 80 81 84 77 80 82 83 84 83 83 84 86 88 88 86 86 85 82 78 80 78 77 75 72 68 66 61 51 43 37 33 33 35 34 33 35 31
49 61 68 72 75 72 72 72 74 77 78 75 78 82 83 83 85 85 87 88 86 86 88 90 90 89 87 84 83 82 79 77 77 74 57 57 49 44 39 38 40 38 38 38 31
45 45 53 62 69 75 76 76 75 76 73 74 78 80 81 81 86 87 89 90 91 90 91 89 90 93 93 90 90 87 87 82 79 74 60 64 53 48 48 45 41 29 39 40 33
43 43 43 45 56 68 75 78 79 77 77 76 80 81 81 82 84 85 90 93 90 92 94 97 94 94 90 94 96 91 94 82 83 82 73 74 66 60 58 53 50 47 45 40 40
41 42 42 41 40 50 59 68 75 77 80 80 83 84 86 84 88 89 93 92 92 93 96 97 95 99 96 95 94 100 95 93 90 87 80 82 72 66 63 58 57 53 48 43 31
33 37 39 40 39 39 41 48 53 62 71 78 83 86 88 90 91 96 96 93 96 96 97 99 97 99 104 95 95 98 97 103 97 91 85 85 77 74 69 65 63 59 57 53 59
24 26 32 37 40 41 41 43 43 48 55 59 65 68 69 73 77 82 90 92 90 93 98 99 94 100 99 99 104 104 100 106 107 99 90 88 86 83 79 73 71 69 64 59 57
18 20 23 28 35 40 43 45 48 51 54 57 59 62 65 68 70 73 76 78 76 84 91 92 92 99 102 102 106 105 106 98 96 101 99 94 88 89 86 81 76 75 70 67 64
17 14 18 23 26 30 36 40 42 46 48 50 51 53 56 58 63 68 70 73 73 79 79 83 88 95 101 112 113 111 112 114 112 108 105 101 97 94 90 82 78 82 78 75 69
23 16 13 13 16 18 21 24 27 32 38 42 46 48 52 59 64 67 67 68 69 73 74 79 84 90 97 107 106 109 112 111 110 102 103 104 104 99 95 91 87 89 82 80 77
22 19 18 15 13 16 19 24 29 32 36 42 42 50 56 60 62 59 57 60 62 66 73 77 81 87 91 101 102 110 113 114 115 109 103 107 109 104 103 97 95 98 89 83 76
24 20 18 19 20 23 25 26 26 30 34 33 40 44 43 45 49 51 48 48 53 58 65 69 74 82 85 95 101 106 108 114 115 112 110 111 111 111 101 102 96 95 94 82 77

GFSSW_250_spd_060.txt.gz
Wind_Speed
36 36 35 34 36 37 38 38 36 35 32 29 25 21 21 22 29 38 42 43 40 40 38 38 36 36 33 31 28 24 18 18 18 19 17 7 8 11 6 15 25 17 23 31 30
37 37 37 36 34 37 38 40 40 38 37 35 32 29 27 25 27 30 39 45 44 43 41 38 40 36 35 33 31 26 20 12 22 21 17 12 18 17 20 23 19 22 30 28 30
42 40 38 38 39 37 38 39 42 42 41 40 38 36 33 31 30 32 33 40 48 46 44 43 40 38 36 34 30 28 26 21 18 20 20 17 16 20 22 18 20 23 24 26 29
45 45 44 42 41 41 41 40 42 43 44 45 43 41 38 37 37 35 34 37 42 48 49 48 45 42 39 37 37 31 27 31 26 21 19 15 12 5 1 18 32 23 18 24 26
51 50 49 47 46 45 44 45 44 44 45 45 46 45 44 42 42 40 38 38 40 42 49 53 49 48 45 42 40 37 36 30 27 27 22 16 16 22 18 23 8 17 25 23 26
55 55 54 53 51 50 49 49 48 48 47 47 47 47 46 45 45 45 43 41 40 42 44 47 53 53 50 48 45 40 37 33 29 27 25 23 25 28 16 27 34 31 27 22 25
61 61 59 57 56 55 54 54 53 52 52 51 50 49 47 49 48 48 48 47 45 44 45 44 45 51 53 53 49 46 43 37 33 32 30 24 26 25 27 42 39 33 29 22 23
68 67 66 64 62 62 61 60 58 58 57 55 55 53 52 51 51 50 51 50 50 48 47 48 46 47 48 52 55 51 48 43 39 36 35 34 31 27 22 25 31 27 27 21 22
70 70 72 71 68 66 64 63 63 62 62 60 59 58 57 57 55 55 53 54 54 52 52 51 52 50 50 46 53 54 54 50 46 42 41 36 30 27 27 33 35 35 29 22 24
71 70 71 71 73 72 70 69 67 66 65 65 63 62 61 61 61 60 58 58 58 57 55 57 55 54 52 49 52 58 57 56 52 48 44 40 35 29 36 35 33 34 27 24 26
75 74 73 72 72 73 74 73 73 72 72 70 69 66 65 64 64 64 64 63 61 60 61 61 58 57 59 57 53 53 56 56 56 52 49 45 39 34 31 35 40 36 28 26 27
74 76 76 76 75 74 73 74 76 75 76 77 75 73 72 69 68 66 66 66 66 66 66 62 62 64 63 61 58 56 53 53 56 57 55 51 46 40 37 35 32 34 20 26 25
76 74 74 76 77 76 76 75 75 76 77 79 79 79 79 77 74 73 71 67 67 69 69 68 69 67 65 65 62 61 59 60 56 53 54 53 51 44 42 29 32 41 37 33 30
64 71 74 73 75 77 77 78 78 78 80 78 80 78 82 82 82 80 78 76 74 72 71 70 72 70 68 67 67 65 65 65 60 56 51 49 47 48 45 22 33 40 45 41 36
47 53 67 72 75 74 75 76 78 80 85 77 77 81 80 83 79 84 84 84 83 81 78 74 73 73 71 71 70 69 70 68 66 60 55 48 45 47 52 52 58 44 37 39 35
45 47 49 56 73 76 77 75 77 80 89 80 81 81 82 83 83 81 85 86 85 84 84 83 81 76 75 75 73 74 73 72 70 67 57 51 45 45 42 47 50 42 30 33 29
43 45 46 47 51 67 76 77 77 78 80 81 81 83 85 84 82 84 85 86 86 87 86 86 86 85 82 78 78 77 77 74 75 73 57 60 54 49 42 40 39 35 29 33 29
38 41 44 44 46 47 60 74 77 82 84 71 72 77 85 87 85 83 84 87 88 89 89 87 88 89 88 85 84 81 82 79 75 72 63 68 58 51 50 49 60 45 41 33 34
29 32 40 43 44 46 45 56 72 79 75 74 77 78 79 77 83 85 87 88 91 87 86 88 86 92 89 89 90 85 88 78 79 75 71 73 68 62 59 53 53 54 53 28 36
25 26 30 37 44 47 47 47 50 65 77 78 80 80 78 80 76 80 85 88 90 82 86 92 91 92 90 93 89 93 87 89 84 81 75 78 73 69 64 58 55 50 46 53 47
21 20 23 30 38 47 49 48 46 46 57 70 77 80 83 83 81 83 84 87 88 85 84 91 93 93 100 93 87 91 93 95 94 88 80 79 77 74 70 66 60 52 51 43 40
20 14 18 24 30 39 45 46 45 46 45 50 61 74 82 84 86 88 91 91 85 85 86 91 90 90 98 95 97 100 95 99 103 96 87 84 80 79 81 75 68 63 58 61 61
27 14 12 18 24 32 40 44 45 47 49 49 51 56 63 70 78 85 90 95 92 91 93 95 93 94 96 99 105 102 96 100 101 98 95 89 83 84 84 82 76 72 70 68 63
31 20 11 11 19 24 32 39 44 47 49 52 55 58 61 64 68 73 78 84 85 89 91 100 101 98 98 102 113 112 108 111 108 104 101 96 93 91 92 91 85 79 76 73 74
32 24 16 10 10 13 19 26 31 37 44 49 54 58 61 65 70 73 76 80 78 79 82 86 91 97 101 107 108 108 104 107 109 104 101 99 103 97 102 97 95 88 85 81 77
33 27 24 20 18 19 22 26 30 33 36 40 44 49 51 55 61 66 70 72 76 79 79 84 85 90 91 99 108 104 105 109 112 105 105 108 107 105 109 96 94 91 89 87 85
34 29 25 23 22 24 26 28 29 32 34 37 41 42 45 50 56 59 59 59 61 61 67 77 82 87 85 90 100 103 102 107 109 109 112 106 98 106 111 102 101 98 99 94 94

GFSSW_250_spd_066.txt.gz
Wind_Speed
42 41 41 39 38 36 34 34 32 32 35 34 31 28 26 28 48 46 44 43 45 42 39 37 34 35 35 36 33 29 25 22 17 14 12 10 11 11 10 4 13 16 18 23 28
47 46 45 44 43 41 38 36 34 33 36 39 38 35 34 31 34 49 46 45 47 47 43 40 38 36 36 34 32 30 28 27 23 17 15 17 9 11 10 11 16 19 11 21 28
50 49 48 47 47 46 42 40 37 35 36 40 42 41 38 39 37 42 47 49 47 50 48 44 43 40 38 38 34 30 29 29 23 20 21 18 14 12 6 5 4 14 14 20 24
54 53 52 51 49 49 46 44 42 39 38 40 44 46 45 43 42 42 44 49 50 50 52 51 48 44 42 40 38 35 33 30 24 18 26 20 13 12 5 5 8 7 14 15 19
59 58 58 57 55 53 51 49 48 45 43 42 44 48 50 49 47 46 45 48 50 52 52 52 52 50 46 43 41 38 34 30 28 24 21 16 14 13 3 5 17 18 16 18 20
66 66 65 64 62 59 57 54 52 51 48 47 46 48 53 56 53 49 48 49 49 52 55 55 55 54 50 48 44 42 39 36 33 32 27 21 14 11 7 8 18 26 18 22 21
69 70 70 70 69 67 64 62 58 55 54 52 51 50 53 58 57 55 53 53 52 52 54 56 56 57 57 55 51 48 44 42 39 36 36 33 25 20 18 16 12 23 22 21 18
68 68 71 74 74 73 72 69 66 62 59 57 56 55 55 55 56 59 59 58 55 55 54 54 57 57 58 56 55 54 51 48 43 42 39 36 31 25 22 18 16 18 23 15 17
63 66 69 72 75 77 76 75 73 69 66 63 62 60 58 58 59 60 61 61 60 58 55 55 54 57 59 59 58 58 55 51 50 45 44 42 35 29 24 19 17 16 18 24 23
63 68 65 67 72 76 77 78 78 77 73 70 67 65 62 64 61 61 62 63 63 63 60 57 57 55 56 61 63 60 56 53 52 48 45 45 42 35 25 21 15 21 23 28 19
62 64 68 66 70 71 73 76 80 82 82 77 75 71 69 68 67 64 64 63 63 63 65 62 60 61 59 60 63 61 60 58 58 53 49 44 41 35 31 28 19 26 25 19 16
56 56 55 56 60 69 73 78 78 82 83 83 81 79 78 73 71 69 66 65 64 66 67 64 65 67 63 61 59 59 59 63 62 56 53 49 46 42 40 37 37 34 23 26 17
48 49 46 49 54 64 74 78 76 79 83 85 86 84 81 80 76 74 72 69 67 67 66 67 72 67 64 63 60 59 59 62 62 58 55 52 48 48 45 44 40 36 23 23 19
43 43 44 42 45 54 67 76 80 81 80 84 87 86 88 84 81 82 78 75 73 72 71 70 71 70 68 67 65 61 63 62 59 55 56 57 55 50 52 49 44 42 37 35 26
43 38 38 41 42 47 55 65 82 84 84 82 86 88 89 89 85 86 82 80 79 77 72 73 72 71 71 71 70 69 67 66 59 55 53 54 55 58 56 50 47 45 41 33 33
42 34 32 36 42 46 48 56 66 86 88 87 85 89 90 89 88 90 87 86 83 83 79 78 78 75 74 73 70 72 70 68 64 59 56 57 54 58 57 59 59 54 47 48 43
37 31 27 31 37 44 50 57 60 69 79 90 87 84 87 89 87 90 90 90 89 86 83 81 79 78 78 77 75 76 74 73 70 65 61 63 58 59 62 62 61 58 53 52 45
37 25 21 24 30 43 50 52 51 52 62 76 86 85 84 85 87 88 90 94 91 89 85 83 82 81 77 78 76 76 77 75 73 69 68 70 62 59 63 59 61 61 59 57 52
42 28 18 18 24 33 43 47 49 52 54 61 80 86 84 84 85 91 90 89 89 89 88 86 86 84 81 81 80 80 78 77 75 74 71 72 66 68 69 61 58 57 61 65 63
45 31 22 13 20 26 35 46 48 48 50 53 63 82 84 85 84 86 87 87 86 85 85 85 89 89 88 88 83 82 83 83 80 78 73 72 70 74 75 70 65 59 59 63 62
51 37 24 13 15 22 29 41 48 50 50 53 56 67 79 84 85 85 85 86 86 86 85 85 90 90 94 94 92 90 91 85 81 78 76 74 74 81 77 76 71 62 56 57 58
53 40 27 15 13 20 26 33 43 47 51 53 54 58 62 78 86 86 85 84 85 86 88 90 93 95 95 98 98 98 97 92 88 84 80 75 80 84 84 82 78 69 63 58 60
56 42 32 20 12 18 25 30 36 46 49 50 53 54 57 61 68 82 87 87 86 87 87 89 91 94 95 98 99 100 101 101 97 93 89 85 84 86 88 85 81 75 70 64 60
63 47 34 25 15 15 22 30 34 39 44 50 55 56 57 59 59 62 74 88 92 91 91 91 92 94 96 102 100 98 101 102 101 100 98 95 90 93 93 87 83 77 76 71 62
66 50 32 23 19 17 18 24 32 38 42 45 50 53 57 59 61 61 61 66 80 92 96 95 96 96 98 100 105 103 102 103 101 102 101 101 100 97 99 91 85 80 79 76 70
67 51 37 24 19 19 21 22 26 31 38 44 49 53 58 61 62 63 63 63 64 69 83 94 99 99 101 101 102 104 104 106 105 104 107 104 101 99 100 98 90 84 81 79 77
71 53 37 26 18 18 20 22 26 30 33 38 43 49 52 55 58 60 62 62 64 66 69 74 86 97 103 107 106 102 103 106 107 111 108 105 102 101 99 103 98 91 84 81 83

GFSSW_250_spd_069.txt.gz
Wind_Speed
43 42 41 40 38 37 35 34 33 32 32 32 35 33 33 37 48 49 50 49 46 44 41 39 40 39 38 38 32 30 28 22 19 19 12 11 9 11 10 11 8 18 21 21 24
49 49 48 47 46 44 41 40 38 36 35 37 39 40 37 40 45 51 52 51 49 47 44 40 40 41 40 42 38 33 29 26 23 19 16 13 7 6 8 10 15 18 9 18 21
53 52 52 52 52 50 47 45 43 40 39 39 42 45 44 42 41 50 54 53 52 52 47 45 43 40 43 43 41 38 31 31 25 22 18 15 12 12 9 10 12 6 12 19 25
57 57 58 57 56 54 51 50 48 46 44 42 43 47 50 47 46 45 54 56 55 52 52 50 46 44 44 43 43 40 35 33 28 26 23 17 17 11 10 5 4 13 19 18 27
57 59 61 62 61 59 56 53 52 51 49 47 46 48 53 53 51 50 49 57 57 54 54 56 52 50 46 45 43 38 35 35 30 28 25 20 22 17 12 11 11 18 13 19 22
55 58 62 64 65 64 62 59 56 54 53 53 51 51 53 57 55 54 52 54 55 59 58 58 56 53 48 48 45 43 40 39 33 33 29 21 21 22 17 11 9 20 18 23 24
58 61 63 63 66 69 69 67 65 61 58 57 58 55 55 57 58 58 58 57 59 59 59 58 58 57 55 51 49 47 46 45 39 37 31 26 23 16 18 14 12 21 15 28 23
51 59 65 67 69 71 72 74 72 69 65 64 63 62 58 58 60 63 63 62 62 63 60 60 59 61 62 58 55 53 49 48 44 40 36 33 33 32 24 20 15 18 25 27 19
46 55 63 70 74 74 72 76 77 76 74 71 68 66 64 63 61 62 66 65 65 63 59 60 63 63 61 63 61 58 54 52 46 43 39 38 37 37 32 24 22 19 14 11 18
50 55 60 69 74 76 75 75 80 81 79 79 75 72 69 68 65 62 66 69 68 64 62 59 62 62 65 66 65 63 58 57 53 49 46 41 39 37 34 28 25 21 16 12 18
61 62 68 72 73 73 75 77 76 82 84 83 82 78 76 73 72 69 67 68 69 68 67 66 62 62 65 67 65 63 64 63 59 55 51 49 46 42 33 30 30 26 22 18 17
66 54 54 61 66 66 68 74 76 72 82 87 86 84 83 78 75 73 70 68 69 71 72 69 69 68 66 66 65 65 66 65 63 60 56 52 49 48 42 36 33 33 27 23 22
69 49 47 49 55 56 62 70 77 84 80 88 90 91 87 84 79 77 75 72 71 71 71 73 77 71 67 66 64 64 68 67 64 60 61 58 55 50 48 41 40 36 29 26 22
60 46 43 42 47 47 52 62 74 85 86 86 92 93 91 89 86 83 79 77 75 73 73 76 74 73 71 69 65 64 69 67 63 60 61 60 58 52 52 48 47 45 39 35 26
53 43 38 33 35 42 48 52 63 75 83 89 92 94 94 93 91 87 84 80 77 75 73 76 74 73 73 75 70 71 71 66 63 58 56 60 61 58 54 55 53 50 46 43 38
53 42 34 29 27 33 42 49 54 67 76 86 91 93 94 94 94 91 89 86 83 78 77 79 75 74 77 75 73 74 73 70 64 60 57 57 56 60 62 63 59 53 51 47 42
56 45 31 24 22 27 38 46 50 55 68 80 90 92 93 94 96 96 94 91 88 84 81 81 78 76 76 72 75 75 76 74 71 66 63 63 61 62 65 66 65 59 53 48 43
59 48 30 19 17 21 31 40 44 45 50 65 81 89 90 91 96 95 95 93 89 86 83 83 81 78 77 75 75 76 76 77 74 72 70 68 67 65 63 63 64 62 59 56 49
64 49 33 16 13 17 26 36 44 45 44 54 65 84 87 89 91 94 94 93 92 90 88 87 85 84 81 80 80 80 78 78 78 77 75 74 71 72 68 64 62 62 62 61 59
65 48 33 19 9 14 23 33 44 47 49 50 55 70 86 90 90 89 91 91 91 92 91 91 89 88 86 85 84 83 82 82 80 78 78 80 81 76 72 65 61 58 60 61 59
65 51 31 19 9 12 23 30 42 48 50 53 57 60 75 88 92 90 89 91 91 90 90 92 93 93 92 91 89 88 86 86 85 83 82 83 82 77 75 71 65 62 60 58 58
66 50 35 16 9 11 22 29 37 47 50 52 56 59 63 75 83 90 90 88 90 92 94 94 97 100 99 98 94 92 91 89 89 89 89 86 85 81 79 75 71 68 64 60 60
64 48 36 17 9 10 19 26 33 42 51 54 56 59 63 63 73 83 88 90 91 91 94 97 96 99 100 100 99 97 95 94 93 93 92 90 85 84 82 79 76 73 69 66 64
66 50 37 20 9 10 15 25 30 37 48 54 56 56 57 61 62 68 82 90 93 94 94 97 100 101 101 100 100 99 99 97 97 96 96 91 87 87 85 83 79 79 75 72 71
65 50 39 22 11 9 15 21 29 35 41 50 56 58 60 59 61 62 67 80 90 94 93 95 95 97 101 102 101 101 103 103 103 103 101 95 91 89 90 87 84 81 80 77 77
68 53 41 24 13 9 14 20 26 33 39 44 49 56 59 61 63 62 66 70 78 88 93 96 96 96 98 100 104 103 105 107 107 107 106 104 101 94 94 93 89 86 84 82 80
70 53 44 27 16 9 12 17 21 27 34 41 44 48 53 60 63 64 66 67 72 76 82 91 96 98 99 100 102 106 109 111 109 109 107 107 106 102 101 99 95 91 87 85 84

GFSSW_250_spd_075.txt.gz
Wind_Speed
47 48 47 44 43 41 38 35 35 34 32 32 31 29 30 28 34 46 51 47 47 48 48 47 44 40 37 35 32 28 23 21 19 20 10 3 7 5 9 15 15 11 9 19 26
44 47 48 49 48 46 44 42 40 39 38 37 35 34 32 32 33 47 49 49 48 50 48 47 47 44 40 38 35 32 28 25 23 19 10 8 5 11 19 14 10 11 13 18 22
45 46 47 50 51 51 50 48 47 44 44 42 41 39 37 36 36 42 50 54 50 51 51 50 52 48 44 41 36 33 31 29 27 22 16 16 23 18 14 8 8 9 15 16 18
47 48 49 50 52 53 55 55 53 51 49 49 46 45 43 40 41 42 45 54 55 54 54 51 53 53 48 44 40 39 35 31 31 26 19 13 12 13 13 6 4 8 9 13 15
44 47 52 54 55 56 57 59 60 58 56 54 53 50 49 47 46 46 47 52 58 57 58 55 53 53 47 45 41 44 40 37 33 31 24 20 13 11 12 11 8 13 12 9 13
46 47 48 52 57 59 60 62 62 63 63 62 60 58 54 52 52 51 52 52 56 61 60 60 56 53 49 47 41 50 45 41 37 32 29 26 20 18 14 12 14 11 9 10 12
45 47 51 53 55 56 58 64 65 65 67 68 67 64 62 59 57 56 55 56 56 61 64 62 61 58 53 50 44 52 47 43 41 38 34 30 26 25 20 17 12 8 4 9 9
50 50 53 56 58 60 61 61 65 70 71 72 73 72 69 66 63 62 59 59 57 60 64 66 65 63 60 57 52 50 46 41 39 39 37 34 32 27 22 16 13 10 7 6 5
48 53 53 59 60 62 64 66 67 68 75 76 77 78 76 73 68 66 64 62 63 60 62 67 68 65 65 62 58 54 51 44 39 38 35 34 32 29 26 22 21 13 8 8 2
52 52 56 60 64 66 68 70 69 74 74 80 82 82 82 80 74 71 69 67 65 65 63 64 69 69 68 66 64 59 54 49 45 40 37 36 33 32 27 24 25 17 11 13 9
43 51 56 58 58 56 68 70 70 80 81 82 84 87 88 85 81 78 75 73 69 68 68 67 68 71 73 71 65 63 58 54 51 45 41 39 36 35 33 31 29 29 25 17 16
37 37 42 53 54 60 67 75 82 88 90 85 85 86 90 89 87 83 79 77 73 72 72 71 70 72 71 72 70 67 63 58 56 52 47 42 40 39 37 35 33 30 25 19 20
34 45 49 51 58 68 74 80 83 83 87 87 85 84 90 92 92 89 85 81 80 76 75 77 77 71 71 72 74 72 68 62 59 58 55 51 46 43 40 38 35 28 26 22 23
40 41 51 56 64 70 68 66 65 62 64 70 75 80 89 95 95 93 89 85 81 79 78 78 77 73 71 71 73 75 74 67 63 60 59 57 53 50 47 43 40 37 30 29 27
40 47 53 61 62 56 51 50 49 51 53 59 66 76 86 93 98 96 94 90 85 83 81 79 78 78 75 74 73 76 76 71 66 64 64 62 60 57 54 48 46 42 39 34 31
45 51 62 65 55 46 41 38 40 41 46 52 60 71 81 86 95 99 98 95 90 87 86 84 81 80 82 78 77 73 72 69 65 67 67 65 65 62 58 54 50 47 44 40 37
49 61 70 58 48 41 33 30 33 36 42 49 57 69 78 87 93 100 101 98 94 89 88 86 82 80 81 81 79 75 71 69 67 64 64 67 67 64 62 61 58 55 52 48 44
59 68 68 53 45 34 26 23 26 33 41 49 59 67 77 81 88 95 101 101 98 94 92 89 86 84 81 80 81 80 76 72 69 63 63 64 66 66 64 63 62 60 59 56 50
67 73 66 52 41 29 19 17 23 30 39 49 57 62 71 80 87 92 98 101 100 98 95 92 88 86 83 82 81 80 79 76 73 71 69 67 66 66 65 64 63 62 61 58 55
70 75 63 52 39 27 15 15 21 29 36 46 54 58 64 73 83 88 93 98 100 101 99 95 92 90 86 85 83 81 82 80 77 76 73 69 66 65 65 63 62 61 61 60 58
75 77 62 52 36 26 13 15 22 28 36 46 54 58 62 68 77 86 89 95 99 100 101 99 96 93 91 88 86 83 80 79 79 78 76 73 71 68 66 64 63 61 61 60 59
77 80 60 48 37 22 12 14 22 30 37 46 54 57 58 66 73 82 88 93 97 100 103 103 101 98 95 90 89 86 84 81 79 78 78 78 77 75 72 70 67 65 63 61 59
77 80 60 46 34 20 10 15 23 30 36 47 57 59 60 61 69 78 87 92 96 98 102 104 104 101 99 96 93 90 88 84 82 79 78 78 79 79 79 77 74 72 69 67 64
76 80 62 47 31 18 8 14 23 30 36 43 52 55 58 61 65 75 82 89 95 96 97 101 102 101 100 99 97 95 92 90 87 84 82 79 80 81 81 81 81 79 76 73 71
73 80 61 48 28 18 10 13 24 30 34 43 51 53 53 53 57 63 75 88 93 96 97 98 100 99 99 98 96 95 94 93 91 89 86 84 83 83 82 83 83 82 81 79 77
73 79 63 46 29 17 10 12 22 29 34 40 49 54 54 55 56 56 61 71 83 94 98 99 100 101 101 101 100 99 99 98 96 94 93 90 89 88 88 87 85 85 84 82 82
72 79 61 45 30 18 10 9 18 27 32 36 44 52 56 56 56 58 60 63 69 80 89 96 100 101 101 103 103 104 103 102 101 100 99 98 96 93 91 91 91 90 89 86 85

GFSSW_250_spd_078.txt.gz
Wind_Speed
43 45 45 46 46 45 43 40 38 35 34 34 33 33 31 28 28 39 57 55 53 51 49 46 44 40 36 33 33 28 25 25 22 20 10 3 9 4 4 13 20 18 20 27 25
43 45 46 46 48 48 47 45 43 40 38 36 36 35 35 34 32 36 52 56 54 52 51 48 46 45 41 38 37 32 26 24 23 19 11 6 7 12 13 12 13 12 19 23 24
43 46 47 48 49 50 50 50 49 46 44 41 40 40 39 38 38 36 46 56 57 54 53 52 49 48 44 42 40 36 29 26 25 21 15 13 15 9 7 8 10 13 15 19 22
44 47 48 50 51 51 53 54 54 54 51 48 46 45 44 42 41 41 41 54 58 57 54 55 53 50 46 44 43 37 36 31 29 24 20 17 21 19 11 8 8 13 12 15 19
38 46 51 52 52 54 55 55 57 58 58 56 53 51 49 47 46 44 43 47 58 59 56 55 56 50 49 46 45 45 38 35 32 29 25 18 14 14 14 9 7 10 10 14 15
39 47 52 55 54 56 58 59 59 60 62 62 60 57 55 53 51 49 48 47 52 60 59 56 57 53 49 48 49 49 44 39 34 30 27 23 18 11 14 9 8 8 7 10 14
40 46 54 56 55 57 56 60 62 62 63 65 66 64 61 61 57 55 52 51 50 58 62 61 58 57 52 49 53 52 47 42 38 33 30 28 24 20 21 12 11 10 1 5 8
39 45 53 59 59 59 59 60 63 65 66 67 68 70 68 66 64 61 57 56 53 54 61 64 62 60 56 54 56 55 51 46 42 35 33 32 29 28 23 21 16 12 8 1 2
40 45 49 56 60 62 61 62 65 66 67 69 71 71 74 73 71 68 63 61 58 56 58 64 66 64 62 59 57 57 53 46 45 38 37 37 31 27 27 22 18 16 11 9 2
42 45 45 48 58 59 62 64 68 69 69 69 71 74 74 78 77 75 71 66 64 62 60 62 67 69 67 64 60 57 55 51 49 40 39 38 36 36 30 25 23 20 16 12 6
40 42 48 47 47 57 60 62 67 72 75 73 72 74 78 80 83 82 79 75 70 67 65 66 67 71 72 70 64 61 56 51 48 42 39 39 34 35 31 30 26 25 22 16 10
34 38 40 49 48 52 56 65 69 72 75 77 80 78 80 83 85 86 85 81 76 74 71 69 70 70 70 71 70 65 62 57 53 48 43 42 37 35 32 31 30 26 28 25 19
26 33 38 42 48 52 60 65 72 72 80 79 85 85 85 85 89 90 91 88 85 78 77 74 75 71 70 72 73 70 67 63 57 55 50 46 43 39 37 35 34 32 30 26 21
22 21 26 32 40 47 55 62 70 77 85 91 94 90 88 87 89 94 95 94 90 85 81 79 76 74 72 71 76 75 70 66 62 61 57 53 49 47 40 37 37 38 33 26 22
28 25 33 38 45 53 62 71 77 78 83 75 84 85 89 89 91 92 98 97 95 91 85 83 79 75 75 74 73 77 73 70 67 63 63 59 55 52 47 41 38 36 33 28 27
33 32 38 48 56 58 53 52 55 55 57 60 61 73 81 89 92 93 97 101 98 96 93 86 84 81 81 79 76 71 74 69 68 69 67 64 59 56 53 49 46 42 39 37 36
42 42 49 55 60 43 42 41 41 42 46 51 55 62 72 80 87 93 97 99 101 100 95 90 87 84 81 80 77 73 72 70 66 69 69 68 65 60 58 55 51 50 47 42 41
51 52 59 68 50 42 35 30 28 31 36 40 48 57 61 70 79 89 95 95 100 101 100 96 89 89 84 81 79 77 74 70 66 65 68 66 67 66 62 60 57 54 53 48 45
59 60 64 70 50 38 29 24 20 23 26 33 42 52 60 66 75 84 93 96 97 103 104 99 94 90 89 83 81 82 77 76 70 70 71 72 66 68 65 63 61 59 59 56 51
63 64 67 66 49 37 27 18 16 17 22 30 39 47 55 65 72 80 87 92 96 101 104 101 93 92 90 88 85 81 84 79 76 74 72 69 66 65 65 64 64 62 61 59 56
64 66 69 62 50 36 23 14 12 16 21 28 37 46 54 62 68 76 83 89 94 98 104 103 99 97 94 92 87 83 82 83 83 78 77 71 71 67 66 64 63 63 63 63 60
64 67 72 61 49 33 19 11 11 16 21 30 37 45 53 60 66 72 82 88 92 96 100 104 102 101 95 92 91 88 83 82 83 83 83 77 71 73 70 67 66 65 62 62 60
64 67 72 58 45 31 17 9 11 17 22 30 38 45 52 58 62 67 75 85 92 94 96 101 103 103 101 97 94 92 88 84 84 85 86 83 80 80 77 73 70 68 66 64 61
61 67 71 58 42 29 17 9 12 17 23 28 37 46 53 57 61 66 72 77 86 91 93 97 102 103 104 103 96 94 91 89 86 85 86 90 84 85 83 80 78 75 72 68 66
58 67 69 56 42 28 16 9 12 18 23 28 33 42 52 57 61 65 69 73 78 86 90 92 96 101 103 102 100 96 94 93 90 86 86 84 87 89 89 87 85 82 79 76 72
58 66 69 56 44 28 16 8 10 17 23 28 34 39 47 52 55 59 65 70 78 83 88 91 93 97 100 101 101 99 96 95 94 91 89 87 86 88 89 90 89 87 85 82 79
55 61 67 54 40 29 17 10 6 15 21 27 32 39 48 53 55 56 58 62 67 75 84 89 93 96 99 100 103 103 102 101 98 97 95 95 89 89 89 89 90 89 88 86 84

GFSSW_250_spd_081.txt.gz
Wind_Speed
38 40 41 42 44 45 45 45 41 39 37 34 35 34 34 33 32 29 34 60 59 57 52 49 46 43 38 34 33 29 25 20 22 18 15 2 8 4 10 14 18 22 23 25 32
33 36 39 42 44 46 48 48 47 44 42 40 37 37 36 35 36 32 33 53 61 60 55 51 48 46 43 39 37 32 28 26 24 23 13 8 14 10 5 9 17 19 22 22 27
31 32 38 39 43 46 48 50 51 49 48 45 42 39 38 38 39 37 35 42 62 60 59 55 51 50 46 42 40 37 32 28 27 26 14 11 5 10 8 11 12 16 20 20 22
40 38 37 38 43 46 49 52 53 54 53 51 48 44 41 40 42 41 38 39 56 61 61 57 53 51 49 47 43 40 34 30 27 28 22 19 21 14 9 7 7 13 16 17 20
37 39 43 41 44 47 51 53 55 56 57 56 55 52 48 45 45 45 44 42 47 64 61 59 54 52 49 49 47 47 40 34 32 29 27 18 20 16 11 12 7 7 12 13 18
41 43 44 45 46 49 52 55 57 58 60 60 60 58 55 52 51 49 47 47 46 57 64 60 56 55 53 52 51 50 45 40 36 32 28 24 19 13 14 12 7 5 5 9 13
39 42 46 48 47 50 54 56 59 61 61 63 64 63 61 59 57 55 52 51 49 52 62 63 59 56 55 54 55 53 50 44 40 36 32 27 22 15 14 14 11 7 4 3 8
38 41 44 49 51 49 52 57 58 62 63 65 64 67 65 66 62 61 59 56 54 52 58 65 63 59 56 57 58 56 52 50 42 39 35 28 25 24 26 21 16 14 8 3 3
39 37 42 45 49 51 49 53 60 61 64 64 67 67 68 70 69 66 65 62 59 56 55 63 64 64 60 59 59 57 53 49 46 42 39 34 29 24 29 24 19 15 11 9 5
40 38 40 44 49 51 49 49 55 62 63 67 67 69 70 71 73 72 70 67 65 62 59 59 64 65 64 58 60 60 55 49 47 44 44 38 34 33 30 24 24 20 15 13 10
43 39 39 40 39 45 46 49 51 57 64 66 68 71 70 74 75 78 76 74 70 67 65 62 63 60 68 67 62 60 56 55 46 44 45 41 39 36 32 27 24 22 20 17 13
48 42 36 36 34 40 42 47 52 57 66 69 71 72 72 74 77 78 80 78 76 75 71 67 62 64 64 68 63 63 61 56 48 48 43 48 40 38 34 33 30 25 24 23 19
58 41 33 35 38 39 42 47 54 58 61 70 72 74 77 75 77 80 82 85 83 81 77 74 73 68 65 67 70 66 64 59 57 52 48 47 43 37 35 28 27 29 33 25 26
61 47 33 31 32 35 40 45 54 63 69 72 76 78 76 81 79 80 84 87 88 86 84 81 78 70 66 68 70 69 69 65 60 59 54 50 46 39 38 35 39 30 32 30 29
61 55 39 28 28 31 39 48 54 61 73 70 81 82 85 84 85 81 86 88 90 90 88 85 80 75 70 69 71 72 71 67 68 65 60 56 50 42 41 41 39 38 35 32 31
64 58 43 34 36 41 46 57 64 69 79 80 81 87 90 91 86 84 86 90 92 94 93 92 87 82 78 75 73 76 69 67 70 69 66 62 56 49 56 48 45 43 40 40 34
68 58 45 43 44 51 51 48 52 56 64 65 78 86 91 94 90 88 88 90 91 93 95 94 90 88 84 80 77 74 66 67 67 70 69 68 67 59 61 53 50 47 42 41 41
64 58 49 50 52 52 43 37 40 42 48 55 59 68 80 91 92 89 91 90 95 95 98 99 96 93 86 83 78 73 73 69 64 64 69 74 70 61 62 58 55 52 50 48 44
69 58 54 56 59 49 39 30 27 30 37 43 50 58 68 73 81 90 92 91 96 92 99 102 101 100 92 89 83 77 75 74 73 71 72 73 70 67 66 63 60 57 54 50 48
70 57 55 58 61 48 35 23 19 21 26 32 41 49 57 64 68 81 94 96 98 94 96 98 106 95 96 91 87 82 81 82 76 75 72 73 70 70 71 68 65 62 60 55 52
66 56 57 60 55 44 26 20 14 15 20 27 35 44 50 57 65 71 83 93 89 94 101 101 102 101 98 94 90 90 87 84 82 82 78 74 69 61 69 67 68 67 65 61 55
62 54 57 64 53 37 23 15 11 13 19 26 31 38 43 50 58 69 76 79 88 96 98 101 98 98 101 100 95 91 91 87 85 86 83 83 78 72 71 70 70 70 67 65 61
56 53 57 65 51 34 21 12 9 13 18 24 30 36 42 50 55 60 66 74 85 93 99 99 96 101 102 101 99 95 94 90 87 91 88 88 80 76 75 72 69 68 69 67 66
49 51 58 65 47 31 21 11 6 11 19 23 28 35 40 44 51 57 62 68 76 83 90 95 98 96 105 104 103 100 93 92 90 89 88 97 87 81 78 75 72 69 68 67 66
44 49 57 64 48 33 23 12 5 11 18 22 26 33 40 42 49 54 59 64 70 76 84 90 97 99 97 99 102 101 100 94 94 95 95 101 88 84 83 81 79 76 73 70 67
40 48 56 63 47 34 25 14 5 10 17 23 25 29 34 44 48 54 59 62 66 71 78 84 91 94 96 97 102 100 98 95 95 93 97 94 86 82 88 89 86 82 79 76 72
40 46 52 59 44 31 26 14 6 8 15 21 25 29 33 39 45 53 58 62 66 70 75 79 84 91 97 98 99 101 101 99 98 95 99 97 88 90 89 92 91 89 85 82 79

GFSSW_250_spd_084.txt.gz
Wind_Speed
36 38 40 40 39 41 42 42 44 44 41 38 37 36 38 39 39 38 38 44 53 51 50 49 45 39 35 28 33 28 23 15 13 17 8 7 5 3 14 14 22 21 24 25 30
36 37 39 40 43 43 43 44 44 46 45 42 40 39 38 39 40 39 39 37 55 56 53 52 50 45 40 34 37 31 25 23 20 21 18 5 11 3 6 11 20 20 24 23 28
36 39 41 37 39 44 46 46 46 47 48 47 45 42 41 41 40 42 39 39 38 61 59 56 53 50 45 40 41 36 30 29 25 26 15 12 9 6 6 12 13 17 20 21 27
24 30 37 43 39 39 43 49 49 50 50 51 50 47 45 43 43 42 43 41 38 53 64 61 57 54 49 44 45 37 36 33 29 29 21 16 11 9 4 11 8 9 14 19 24
36 37 34 39 47 48 46 47 52 53 53 54 55 53 50 48 48 44 43 43 41 44 62 65 61 57 52 51 50 48 42 38 33 33 28 20 20 13 7 22 8 3 8 14 20
43 41 38 37 48 51 53 51 51 56 57 57 58 59 56 52 54 48 47 47 45 43 54 66 63 61 55 54 54 50 45 42 37 31 32 24 21 17 12 12 15 4 4 10 13
40 37 42 39 40 54 55 54 55 54 60 60 60 62 62 57 57 53 52 51 49 45 49 63 65 63 61 57 58 55 48 47 40 32 31 29 21 17 13 17 15 9 2 6 10
38 43 41 38 41 43 55 56 58 58 58 63 63 63 66 65 63 60 56 54 54 52 49 58 65 65 62 60 59 58 54 46 44 36 32 24 22 21 17 15 16 13 11 8 4
42 46 43 39 37 43 46 53 59 59 57 63 65 66 67 71 68 66 62 59 57 57 55 53 64 67 65 63 60 59 55 50 45 40 35 30 30 15 15 23 21 16 11 8 5
49 47 44 40 37 36 44 50 53 59 60 58 66 69 69 72 72 72 69 66 62 60 59 57 59 66 67 62 59 59 56 50 47 43 39 35 32 30 29 29 25 21 17 12 7
49 50 50 42 37 33 34 44 50 56 59 58 62 70 69 74 74 77 75 73 69 65 62 63 58 58 67 69 65 62 59 52 49 45 44 43 38 34 33 26 27 21 19 15 10
53 55 56 44 32 33 32 33 42 47 56 58 58 67 69 73 76 78 80 78 74 71 69 65 60 61 65 71 67 61 59 53 51 49 39 46 43 38 38 38 31 25 20 17 13
53 56 58 45 33 27 32 34 37 42 48 55 60 64 71 72 75 78 79 83 80 78 74 70 69 67 65 70 67 65 61 58 56 48 49 46 45 38 46 38 35 30 26 23 21
59 57 54 46 34 27 30 36 39 45 50 54 58 62 67 72 75 77 79 82 85 83 80 76 75 70 67 67 72 70 68 63 57 57 50 40 53 49 30 32 34 28 33 28 30
65 60 53 51 34 27 28 36 40 43 55 55 59 60 64 69 77 78 82 83 84 87 85 82 79 74 68 66 72 72 74 69 63 62 61 47 41 37 43 36 30 22 16 26 35
71 63 59 54 39 31 30 34 43 50 55 63 67 71 69 70 78 82 81 84 84 87 88 87 84 79 74 71 72 73 77 72 68 67 65 63 54 50 45 35 39 41 30 13 28
74 61 58 47 38 35 40 44 48 56 63 70 73 76 79 77 77 79 84 84 83 85 87 90 88 85 81 76 74 78 75 75 73 69 65 66 63 53 46 42 29 49 45 33 23
70 57 49 42 39 42 47 49 45 47 56 61 73 80 82 82 84 81 82 85 87 85 87 91 95 90 84 81 79 76 76 73 69 73 72 73 70 57 52 38 50 53 54 54 44
66 54 43 38 43 48 54 42 34 36 42 48 57 63 82 89 87 87 83 84 87 88 90 89 93 96 93 90 87 81 77 73 71 73 79 81 65 61 59 59 36 46 48 50 50
54 44 38 43 47 52 48 40 22 27 31 38 43 50 67 83 92 87 87 94 90 93 98 94 97 101 101 98 90 83 81 78 75 75 81 78 74 73 72 73 71 62 56 50 49
46 40 39 46 51 47 39 36 24 21 22 29 37 44 57 69 78 89 87 94 96 91 89 97 97 97 99 97 90 87 82 79 80 80 78 79 77 73 73 78 73 69 61 57 55
39 40 41 50 57 48 32 23 21 18 17 22 30 39 50 59 68 83 96 85 98 96 94 94 93 92 90 94 96 93 91 90 89 78 80 84 83 76 82 86 80 78 74 67 61
33 41 41 49 59 52 43 24 18 13 15 19 24 31 39 50 59 73 83 97 99 101 97 94 92 92 99 94 102 98 92 92 91 89 88 87 88 85 84 81 80 79 77 70 65
31 43 40 47 54 44 31 20 13 11 14 17 21 27 35 43 53 63 74 86 91 101 105 102 91 94 96 95 98 97 98 94 92 90 89 98 92 90 84 76 79 75 75 73 70
34 44 41 45 54 44 33 19 11 10 16 19 21 25 33 41 47 56 64 74 75 86 94 99 103 97 96 101 100 95 99 100 96 92 102 93 91 88 83 77 73 72 71 72 72
35 43 36 45 51 43 30 20 9 9 15 19 20 24 29 36 40 49 54 60 66 75 81 91 103 105 105 99 86 90 99 105 102 101 107 103 98 90 82 80 78 75 72 72 71
35 40 38 45 52 42 27 19 9 5 13 16 20 24 27 32 38 43 47 52 58 62 70 83 91 95 101 91 93 96 95 93 101 109 107 103 97 90 90 86 84 84 80 77 74

GFSSW_250_spd_087.txt.gz
Wind_Speed
29 30 33 33 35 39 41 43 43 42 41 43 42 42 43 43 43 44 40 41 41 46 45 44 41 37 32 25 25 24 20 19 15 16 15 10 9 4 10 13 21 27 28 28 26
26 27 30 35 36 35 37 44 45 45 44 44 46 44 43 44 44 44 45 42 44 47 46 47 45 41 37 30 29 22 24 8 8 19 16 7 11 6 6 10 16 22 27 28 25
18 21 18 25 28 34 39 40 46 48 48 46 48 47 45 44 45 46 46 45 43 50 54 49 50 46 40 35 36 26 28 28 23 19 18 13 12 10 6 9 11 19 23 29 26
22 25 25 32 27 30 36 42 42 48 51 50 50 51 49 46 47 47 48 48 46 46 57 57 53 51 46 40 45 25 32 29 22 21 22 18 13 11 4 6 9 14 17 25 29
28 27 30 31 29 32 33 41 45 45 51 54 53 53 53 50 49 48 50 49 49 49 50 61 58 54 51 47 50 40 39 33 27 28 27 20 18 13 5 9 11 13 14 17 24
25 30 32 33 34 34 36 39 48 50 47 53 57 56 56 55 56 50 52 53 52 50 49 56 63 57 55 54 52 51 43 32 31 30 33 22 16 14 8 19 14 11 7 14 18
31 28 30 34 33 37 39 42 45 53 55 52 57 61 60 59 60 55 54 54 53 52 50 49 64 63 60 58 53 57 48 38 35 29 31 28 13 16 14 13 10 11 2 8 13
31 36 34 36 35 34 40 43 47 53 58 60 57 63 65 64 65 60 58 56 55 55 54 53 54 68 67 61 57 57 49 38 42 36 31 30 22 16 18 13 16 12 8 6 4
39 41 43 41 40 36 36 42 47 51 59 60 63 63 66 69 70 65 63 60 58 57 56 53 53 67 70 67 62 58 59 46 47 43 34 30 27 18 24 20 17 16 11 4 2
43 46 45 49 46 39 35 39 43 47 54 63 62 66 66 71 71 71 69 65 62 59 59 56 55 57 71 70 65 61 63 55 51 46 38 30 32 22 20 21 18 16 15 11 2
55 50 51 56 48 46 37 34 36 44 52 59 66 66 66 70 73 75 74 70 67 62 60 60 57 54 63 73 72 69 63 60 57 47 46 35 42 32 28 25 24 20 17 15 7
52 57 58 55 51 43 38 35 33 38 51 60 62 66 67 69 75 76 78 75 71 67 64 62 59 60 62 71 72 70 66 59 55 54 47 44 43 38 36 32 28 23 22 15 10
55 59 65 66 51 44 40 32 34 34 46 56 63 63 69 69 74 78 79 81 78 75 70 66 68 65 63 67 71 71 65 62 57 61 54 40 15 45 42 38 36 24 26 18 20
71 72 76 59 46 37 33 29 34 32 41 49 59 65 66 71 71 80 82 83 84 80 77 72 72 68 66 63 71 70 70 67 64 63 59 44 34 43 45 44 40 42 33 25 25
71 69 68 54 43 33 32 27 33 34 40 44 50 60 65 70 75 78 85 85 86 86 82 78 76 71 68 65 64 72 75 71 69 68 70 58 42 49 51 43 41 37 37 25 30
77 73 56 46 34 31 29 29 31 36 39 44 51 57 67 70 75 78 83 87 89 89 87 85 82 76 72 71 66 72 76 77 70 74 77 77 66 53 49 41 36 37 35 31 29
74 70 49 36 32 29 26 26 30 34 41 45 49 60 64 69 73 77 80 85 86 87 88 91 87 82 79 74 71 72 72 77 75 69 69 70 70 63 53 51 38 37 31 32 19
74 65 40 32 30 26 27 32 37 42 48 51 56 61 67 71 73 77 80 85 86 86 90 91 93 89 84 79 76 75 72 73 76 72 69 73 69 59 53 61 47 37 34 37 34
74 48 30 26 29 32 37 40 42 38 43 53 58 65 71 75 82 82 80 82 87 86 89 91 93 94 91 87 83 79 76 70 76 81 80 76 67 64 62 59 52 50 29 33 28
62 37 24 27 39 38 43 43 36 25 30 40 56 66 78 81 83 83 80 85 88 93 91 93 93 93 94 93 89 89 81 82 75 76 82 77 72 70 74 75 66 62 54 42 44
46 26 26 34 37 39 47 37 32 20 22 32 39 55 69 79 84 83 84 85 89 90 93 95 89 92 99 96 94 91 85 81 76 77 78 78 78 75 76 76 68 64 60 53 52
33 20 26 39 37 43 52 36 28 21 17 22 28 36 52 68 82 87 87 93 86 86 91 93 88 92 92 91 96 94 89 85 82 77 79 81 82 77 78 78 73 68 61 54 61
24 20 33 40 38 49 52 39 27 19 14 18 22 31 40 51 68 82 92 90 89 91 85 83 90 89 91 93 96 95 92 91 87 88 87 84 82 84 73 84 79 72 61 61 56
19 25 34 34 41 50 50 33 22 15 12 15 19 23 32 46 56 71 83 95 93 88 88 92 91 91 92 91 90 94 99 90 91 95 97 94 83 85 87 85 84 78 74 71 65
19 27 39 38 43 50 48 31 20 13 10 14 16 18 21 37 46 58 72 85 98 96 96 93 90 89 89 91 94 91 96 97 98 101 101 95 83 83 89 87 85 83 80 80 78
19 28 34 39 46 51 49 33 20 11 9 13 12 13 16 24 38 45 56 73 86 100 91 88 90 95 90 91 91 91 89 93 101 105 105 98 92 89 87 86 84 86 87 86 82
21 27 28 35 44 51 47 32 20 11 7 10 12 13 18 22 31 44 49 61 76 84 96 95 96 98 90 90 90 90 93 98 103 112 110 101 97 93 90 88 84 83 86 89 90

GFSSW_250_spd_090.txt.gz
Wind_Speed
27 25 25 27 29 31 34 38 40 41 42 45 45 47 48 47 46 45 43 43 40 40 41 41 37 32 27 29 27 22 14 7 8 8 12 4 3 7 12 19 22 31 30 27 25
27 26 25 23 23 25 32 34 40 42 43 45 47 47 48 48 48 48 47 46 43 43 44 44 42 36 31 30 31 23 13 5 11 17 16 11 9 5 6 13 16 27 30 28 25
25 25 23 24 25 24 28 34 38 41 45 47 48 49 49 49 49 51 51 48 49 45 44 47 45 43 37 33 34 32 13 13 9 15 19 16 11 8 7 9 12 21 27 29 24
18 23 27 28 29 30 28 31 36 42 44 49 50 52 51 52 49 50 52 52 51 49 49 49 48 47 43 39 39 35 27 28 16 19 19 19 12 11 3 8 13 16 22 26 27
20 24 24 27 31 33 35 33 36 38 44 48 52 54 55 55 53 52 53 55 54 54 51 50 51 50 48 44 42 45 32 20 29 23 20 20 14 11 6 5 5 14 18 22 25
24 26 25 25 28 32 36 36 38 39 42 48 50 56 58 58 58 56 53 56 56 56 55 53 54 52 53 49 46 43 41 28 28 28 25 24 17 11 10 8 11 4 9 13 16
22 23 29 29 31 33 36 35 41 40 43 47 51 55 60 61 62 59 56 56 59 60 60 54 56 58 55 54 51 49 36 36 33 30 27 27 22 15 17 9 9 3 2 8 9
30 34 35 32 35 29 33 35 38 44 45 49 55 57 61 65 66 63 62 59 59 62 63 57 56 60 60 59 56 54 48 28 35 33 29 31 25 18 20 13 11 11 2 3 5
36 39 39 39 35 37 36 33 38 41 47 51 57 64 58 65 72 67 67 64 60 63 63 60 59 59 66 64 62 58 55 52 32 35 33 33 18 15 13 16 14 11 8 2 0
44 39 50 43 39 35 35 37 33 39 47 52 55 65 67 64 69 69 70 69 66 64 63 63 61 61 62 70 69 66 61 59 51 34 35 39 40 18 23 19 18 16 12 7 2
50 53 55 44 44 47 44 38 38 37 41 52 53 61 69 70 70 74 74 73 69 65 63 63 65 63 61 73 75 70 64 59 54 38 38 38 40 36 22 22 23 20 18 12 8
56 55 44 42 40 44 43 36 34 37 41 46 50 58 70 74 73 76 76 76 72 70 68 63 63 68 67 65 77 72 66 60 58 48 40 42 40 36 38 28 29 29 22 15 10
61 57 50 45 48 48 47 36 36 37 42 46 49 56 68 76 76 76 77 79 78 76 71 67 72 72 69 66 72 75 70 68 66 61 47 39 47 47 42 34 35 32 28 23 15
69 64 59 54 57 59 44 37 35 38 40 44 45 56 67 75 78 78 78 81 82 80 77 74 75 70 69 68 65 75 73 73 68 68 59 53 48 44 45 42 39 32 27 25 21
73 67 67 57 57 46 38 35 38 42 43 42 46 53 68 74 82 81 83 82 83 85 81 78 75 72 69 70 67 68 77 78 74 69 68 60 48 55 49 45 40 38 36 28 28
73 77 58 53 50 37 31 32 38 41 45 44 44 53 67 75 80 84 83 83 87 88 86 85 81 76 73 75 69 71 75 80 78 76 74 72 47 46 50 55 54 46 38 34 32
82 69 47 42 34 27 24 24 28 35 39 43 45 50 62 74 79 82 85 85 85 87 87 89 85 79 78 76 73 74 70 77 79 76 71 75 64 52 48 47 53 46 41 36 30
76 49 40 26 20 20 16 18 23 30 32 36 40 49 62 68 79 82 84 87 87 90 90 91 90 86 82 77 75 76 71 71 76 77 82 77 71 55 56 50 54 47 42 39 34
66 41 28 16 17 16 24 25 25 29 36 44 46 48 53 65 70 83 83 86 89 91 94 93 95 93 89 85 83 80 75 71 75 83 85 80 73 71 63 54 54 49 46 38 36
49 32 16 14 15 19 31 27 32 38 43 46 54 58 61 62 74 77 87 89 92 95 96 97 97 96 92 90 88 85 79 78 74 79 83 83 78 72 78 71 64 51 48 41 44
39 19 13 20 19 25 29 32 37 31 31 34 47 61 68 71 72 82 85 88 95 92 91 93 95 96 98 93 89 87 85 80 79 76 79 84 82 77 77 74 71 69 58 47 44
30 12 16 18 32 33 36 42 36 24 23 25 39 52 67 77 81 82 84 88 91 89 88 90 90 98 95 96 94 94 92 88 86 81 77 83 84 82 75 72 70 67 60 56 43
21 14 19 24 27 30 40 46 31 20 16 18 29 45 59 71 81 81 82 87 89 91 89 90 91 92 96 99 101 100 97 92 90 86 85 80 81 84 82 76 71 67 66 71 57
11 19 23 25 31 34 43 47 29 17 13 12 20 31 41 53 69 80 81 85 91 90 95 92 89 94 94 96 99 100 100 97 94 90 88 84 78 81 84 82 78 74 74 73 70
12 19 24 29 33 43 48 43 28 18 13 8 10 20 27 37 53 70 84 88 88 93 89 90 87 89 92 92 92 95 96 99 99 96 95 90 83 80 85 85 85 84 83 79 77
17 24 29 32 33 39 51 44 32 18 10 6 10 18 24 35 40 54 71 85 89 89 89 90 88 87 89 93 92 92 91 95 103 103 104 97 90 81 80 86 85 91 88 86 82
19 24 29 35 36 43 49 47 33 24 12 5 6 11 19 23 31 38 53 72 86 91 88 92 91 87 87 91 92 92 94 93 98 107 106 99 93 87 86 86 88 86 91 90 84

GFSSW_250_spd_093.txt.gz
Wind_Speed
20 22 22 21 24 28 33 38 43 45 46 46 47 50 54 50 48 46 45 44 42 40 39 36 32 30 27 28 23 21 13 16 12 7 12 4 3 7 12 17 24 28 23 23 24
24 23 23 23 23 21 25 33 39 44 46 47 48 49 52 55 52 50 48 48 45 43 41 39 36 32 31 28 27 24 19 7 18 12 17 8 8 8 10 14 23 27 24 24 22
23 25 25 23 25 23 24 26 29 39 46 48 50 51 50 54 57 55 52 50 48 46 44 43 43 39 34 32 32 25 18 9 14 20 23 14 10 7 7 14 20 23 27 21 20
25 23 23 23 26 27 28 30 31 30 37 47 52 54 53 52 57 58 56 52 51 51 50 46 45 43 37 36 36 32 20 11 13 19 20 18 13 5 8 12 16 19 21 27 25
28 27 28 29 26 27 27 30 34 35 32 36 46 54 56 55 55 60 60 57 55 53 54 49 48 47 42 40 41 33 21 23 16 15 17 16 16 11 9 2 6 9 15 21 25
32 32 29 27 27 27 30 32 33 35 38 37 40 49 58 58 58 60 62 62 59 57 56 53 49 49 48 45 46 43 28 21 23 24 23 18 17 12 11 11 8 4 10 14 18
38 34 33 34 35 38 32 31 35 38 40 42 42 44 55 60 60 60 64 64 64 61 60 55 51 52 51 52 49 46 37 25 28 34 29 22 22 19 16 9 5 2 3 6 13
45 43 33 35 37 43 42 41 38 38 42 45 46 46 46 58 66 65 65 66 66 67 62 56 54 55 56 57 55 53 47 41 32 33 33 28 25 23 15 11 12 8 3 2 7
49 44 39 34 42 42 45 45 44 46 41 44 47 50 46 61 69 66 66 68 68 68 63 60 61 58 59 61 62 58 50 49 42 33 33 30 29 26 18 18 13 9 8 1 2
56 60 52 43 38 39 43 46 46 47 48 46 49 51 53 58 61 65 67 69 70 68 65 64 63 62 62 67 68 65 57 50 47 39 34 32 30 24 24 22 17 14 11 6 2
66 65 61 47 43 36 38 40 44 48 50 48 50 52 54 61 63 69 71 71 70 68 66 68 67 66 68 71 71 71 67 61 42 38 33 32 28 26 21 21 18 19 16 10 7
76 73 62 49 46 38 39 40 42 41 47 50 55 54 57 61 65 71 70 73 73 72 71 69 68 72 72 71 74 72 70 66 63 52 38 31 40 35 24 27 18 22 19 15 12
75 68 55 54 51 45 35 40 43 45 47 50 55 56 57 61 65 69 74 74 77 77 74 71 74 76 75 74 72 75 72 71 67 57 54 39 36 41 36 28 32 28 24 20 16
87 69 63 56 50 41 42 40 44 45 45 53 56 57 60 61 67 73 80 76 78 79 79 76 78 76 77 75 72 73 79 76 73 67 59 50 35 40 46 40 35 34 30 30 22
87 88 62 51 38 34 35 38 43 45 49 52 56 57 60 61 63 74 80 82 79 82 81 81 80 77 76 78 75 73 80 81 76 70 64 62 42 42 45 44 41 24 38 32 26
79 88 54 39 26 24 29 32 34 38 41 47 53 55 58 59 64 73 80 84 84 85 84 87 85 80 77 82 78 80 78 81 79 75 71 66 59 54 48 49 48 46 39 36 33
86 72 45 31 23 22 19 20 25 27 32 38 45 50 54 58 64 74 80 84 86 83 86 89 86 82 80 79 77 80 75 75 81 79 78 70 61 60 56 51 50 55 55 42 40
80 55 37 20 16 11 11 12 11 18 25 33 39 47 49 54 62 72 81 86 89 89 89 91 89 87 84 79 78 81 76 72 73 79 81 75 71 62 61 52 52 50 47 44 42
76 45 29 12 8 10 11 12 15 19 21 27 36 41 45 49 59 70 81 88 91 91 89 90 91 91 88 85 82 82 78 76 71 78 85 80 79 71 66 62 56 60 52 45 45
65 36 23 7 8 10 12 19 16 18 24 30 35 41 48 52 57 64 80 87 91 89 91 93 94 94 93 90 86 84 82 80 72 74 81 82 83 76 66 61 61 56 49 48 47
50 30 15 10 13 16 19 18 22 27 33 41 47 55 55 57 62 66 73 89 91 92 92 92 94 94 95 94 92 89 86 82 76 74 81 83 82 83 78 65 62 59 50 51 48
39 17 20 16 13 17 21 21 30 37 40 41 45 56 64 68 67 70 72 82 91 93 93 93 93 96 93 94 95 93 90 85 81 77 79 82 83 80 78 80 59 66 58 53 56
32 13 22 20 24 28 29 34 42 26 27 31 40 50 61 69 75 75 74 78 87 94 98 97 94 96 97 97 98 99 95 90 85 83 84 80 83 81 81 81 79 68 65 64 55
28 18 23 23 24 26 26 37 32 21 14 23 32 43 52 61 71 79 82 83 87 90 92 95 96 97 97 100 97 99 97 95 89 86 85 81 79 84 87 86 85 83 77 70 64
27 19 19 22 27 26 31 40 28 21 9 15 22 31 40 48 61 74 82 81 85 84 92 96 98 98 101 101 100 99 100 98 94 90 87 83 78 77 84 85 83 83 84 84 79
26 20 23 25 28 33 37 43 29 25 16 7 8 18 27 37 47 63 74 84 83 87 87 94 98 99 104 101 102 102 100 102 101 97 92 87 82 79 77 81 86 88 87 86 86
27 23 23 26 24 31 38 42 33 28 22 11 5 12 18 26 37 49 64 76 85 86 92 90 96 102 103 102 101 102 102 102 104 102 98 92 90 85 82 82 82 84 91 89 87

GFSSW_250_spd_096.txt.gz
Wind_Speed
24 23 21 19 24 26 29 34 39 44 47 49 51 54 53 51 49 47 45 43 40 39 35 32 31 30 28 25 21 21 17 8 7 6 3 6 10 16 17 22 26 22 24 24 17
22 23 22 23 22 22 23 27 34 40 44 48 51 52 55 54 52 51 48 47 43 41 38 36 34 31 27 28 26 27 17 15 16 18 14 6 10 9 13 17 22 25 24 23 21
28 26 23 24 24 25 24 24 25 31 38 43 50 53 54 55 56 55 52 50 47 46 43 41 38 33 31 31 29 26 23 19 14 16 13 14 9 7 7 13 20 23 24 22 21
32 30 28 25 24 26 28 29 30 29 30 34 44 51 54 55 57 57 56 53 51 51 48 44 41 36 32 33 30 27 24 16 24 30 17 15 12 11 4 8 14 16 20 23 21
39 30 28 30 29 28 30 30 32 34 34 36 37 44 52 55 57 59 59 57 55 55 52 47 43 40 38 37 35 32 24 19 15 20 18 19 16 15 6 7 8 12 17 18 24
39 39 30 31 27 30 32 33 35 35 36 38 40 39 45 53 58 60 62 61 59 57 55 51 46 46 44 40 38 35 30 22 12 16 16 15 13 14 10 9 8 7 13 14 19
42 47 45 41 32 30 35 38 40 39 38 40 42 45 43 45 56 62 63 64 62 60 57 54 50 49 47 46 43 41 35 32 18 16 16 17 13 10 7 10 2 1 6 7 14
47 53 49 49 44 36 36 43 43 46 46 44 42 45 43 48 55 61 65 65 65 63 60 56 54 51 52 51 48 48 44 32 31 22 30 14 18 14 21 15 8 5 4 6 7
55 57 53 55 49 42 35 37 50 50 50 50 50 45 47 52 52 57 63 66 66 66 63 60 59 56 56 56 56 54 54 40 36 29 31 36 27 24 24 20 7 8 4 2 6
63 61 61 61 53 40 40 39 40 52 56 58 57 53 49 52 50 53 60 66 68 68 67 66 63 60 59 63 64 61 57 52 44 43 39 37 39 30 25 26 15 12 8 5 2
66 67 67 67 54 41 44 47 43 48 55 58 60 59 57 52 55 55 60 65 70 70 69 68 68 68 68 65 67 67 64 59 54 42 40 36 32 31 28 27 21 19 14 11 8
74 78 74 67 56 49 49 49 50 49 56 55 57 60 61 60 55 55 58 63 70 73 72 71 71 73 70 69 69 70 70 65 61 58 44 40 36 34 29 28 25 22 17 14 12
80 79 72 63 62 52 55 53 55 58 56 51 57 60 65 64 61 56 61 62 70 74 75 75 76 76 74 72 71 72 73 71 65 59 57 49 41 37 32 29 25 22 20 19 16
86 81 78 66 58 44 41 46 56 59 56 59 59 60 63 65 63 62 62 67 69 74 77 79 81 77 77 75 73 72 76 74 69 61 56 56 49 36 36 34 30 29 25 21 19
89 79 76 60 42 28 28 37 48 55 57 58 61 64 61 62 64 64 65 67 69 75 77 80 82 79 78 78 76 77 76 75 72 62 54 55 48 45 47 36 35 37 31 26 21
88 82 74 46 30 22 18 20 29 43 54 54 58 62 62 64 65 67 69 70 71 75 79 82 84 83 81 81 80 80 75 77 76 74 65 57 46 55 58 54 38 43 39 34 30
83 86 59 34 22 17 14 15 18 24 39 47 55 59 62 64 66 71 72 71 73 73 79 82 84 84 83 81 81 80 77 77 80 78 80 73 63 58 55 56 52 45 34 37 35
84 78 42 27 16 12 5 6 8 14 24 36 44 50 53 58 64 69 74 72 75 76 81 84 84 86 86 84 83 83 81 77 75 80 82 77 69 66 63 54 52 48 48 50 40
83 66 34 18 9 5 6 8 9 9 13 25 35 40 45 52 57 65 74 75 75 80 82 85 86 87 90 89 87 85 81 82 78 79 83 80 76 68 63 64 53 48 51 52 49
80 51 25 11 7 8 9 12 14 18 18 22 31 41 46 49 54 61 67 74 75 81 85 86 89 88 92 91 90 87 85 83 81 77 79 82 80 73 72 65 67 55 53 50 46
78 40 16 14 11 16 16 19 19 20 22 23 30 37 42 49 54 58 64 68 74 80 87 89 91 91 92 94 93 92 88 83 82 78 76 79 83 81 73 69 65 65 63 59 48
71 36 21 16 18 14 18 25 30 33 36 41 43 44 46 48 52 57 61 66 71 77 85 92 93 94 92 95 95 95 93 88 84 82 75 74 81 86 84 73 64 66 62 61 56
62 36 24 17 20 17 18 17 22 31 38 40 46 52 57 56 55 58 62 67 71 75 80 90 94 96 96 95 97 96 95 91 84 82 76 75 77 83 86 82 73 66 68 67 62
57 34 25 19 20 21 20 22 30 28 30 31 33 42 56 65 66 67 67 68 71 73 77 84 94 99 99 98 97 97 96 94 90 84 77 74 75 78 83 87 85 75 73 75 64
50 32 26 24 22 22 24 27 34 25 20 20 23 30 40 51 60 70 72 73 73 74 78 83 90 99 102 101 100 99 100 98 95 90 82 77 79 78 81 84 87 86 76 72 68
45 29 27 27 25 23 27 32 33 25 18 14 14 23 31 40 48 59 71 75 74 74 78 81 90 96 102 103 102 101 100 100 99 95 89 81 80 82 79 85 85 87 88 85 77
44 28 25 26 27 25 31 36 33 26 27 17 10 13 20 30 39 46 56 71 77 74 77 78 86 96 99 101 103 103 101 99 98 98 94 89 85 84 84 80 87 88 88 90 93

GFSSW_250_spd_099.txt.gz
Wind_Speed
22 19 17 17 17 16 24 28 33 37 43 48 50 52 51 49 47 45 44 42 39 37 35 34 30 29 27 26 18 18 13 9 13 5 4 8 13 18 19 27 30 24 25 25 19
29 25 19 15 16 19 19 23 28 34 39 45 51 51 53 53 51 49 46 46 44 41 38 38 34 31 30 29 25 20 19 14 12 13 9 8 9 13 14 22 27 27 22 25 22
26 31 25 23 23 20 22 22 24 28 33 40 46 52 53 53 55 53 51 49 47 45 42 40 36 32 29 28 27 26 21 19 21 16 16 15 7 10 10 18 23 26 25 25 21
27 31 31 29 30 25 22 24 27 29 29 33 39 47 53 54 54 57 54 54 50 48 45 42 38 35 30 28 29 29 22 23 18 15 13 10 7 5 7 9 19 20 21 26 23
28 32 32 34 32 27 26 28 28 31 33 35 34 38 46 53 58 57 57 57 53 51 49 45 40 36 35 32 36 30 25 25 20 27 15 14 12 10 7 7 13 14 18 23 27
31 33 33 40 36 34 34 33 34 34 36 37 39 37 40 46 56 59 58 59 57 54 53 48 44 40 40 36 38 32 31 20 16 21 22 16 13 7 8 7 6 9 14 18 24
37 35 39 39 45 40 44 37 36 41 42 41 42 44 40 44 50 59 61 59 60 58 56 51 48 46 44 41 41 36 32 28 26 19 20 21 10 7 8 5 2 4 9 11 19
41 42 44 45 48 48 51 45 41 45 49 49 47 45 43 47 50 54 61 62 61 61 59 55 51 50 47 46 44 40 35 30 24 24 18 17 11 13 9 9 3 4 4 8 10
49 51 51 52 55 54 54 52 47 47 52 56 56 54 49 50 49 50 57 64 63 62 62 61 55 54 53 50 48 44 43 39 29 21 22 15 22 21 15 17 7 6 1 4 6
56 58 62 59 64 63 58 54 52 51 54 59 61 59 57 54 52 50 54 62 67 66 65 64 61 59 57 57 55 52 55 49 37 34 30 29 34 26 22 22 14 6 6 3 4
63 66 66 71 70 64 59 58 56 52 56 60 64 64 63 60 56 54 55 58 68 69 67 67 67 66 64 60 59 59 59 59 50 41 43 40 33 27 30 28 21 14 10 10 7
69 72 78 74 67 66 66 60 55 55 56 57 65 68 68 65 63 58 58 58 64 71 71 70 71 70 66 65 64 63 63 60 57 56 47 50 46 40 37 27 26 22 18 16 10
75 82 78 72 66 67 61 48 45 53 56 62 63 69 68 70 67 64 59 62 64 69 74 74 75 74 72 68 69 68 69 66 62 62 57 54 51 49 45 33 28 27 24 19 15
82 83 76 69 68 60 44 35 33 44 54 61 63 67 71 69 69 68 67 61 63 65 74 77 77 76 75 73 72 74 72 72 70 67 62 59 45 53 50 40 33 29 29 23 19
84 85 74 70 63 41 29 24 24 33 47 61 65 69 71 68 67 69 70 65 64 65 69 77 80 77 78 77 77 76 74 74 73 68 66 63 56 52 46 42 37 32 32 24 22
85 82 74 69 45 29 20 16 16 23 36 50 64 70 72 69 66 67 70 70 66 65 69 75 81 81 81 82 81 80 78 75 76 73 70 66 58 50 45 41 43 40 32 29 30
89 86 72 54 32 20 14 10 13 15 26 39 55 65 71 68 66 67 69 70 71 67 69 71 78 80 81 83 84 82 79 77 76 77 74 72 68 63 59 51 45 40 39 35 35
86 81 65 40 23 12 6 1 6 12 17 29 43 59 70 70 69 70 70 72 74 72 71 74 76 81 82 82 85 86 83 80 75 77 77 74 65 62 60 61 53 43 47 39 40
95 76 55 32 16 8 3 4 5 5 10 19 31 43 60 70 73 72 71 71 74 75 76 75 78 82 85 88 88 87 86 85 82 80 80 74 68 62 60 61 59 52 47 45 49
93 71 44 27 15 9 9 8 10 11 13 14 18 31 44 59 67 73 75 73 73 75 77 78 82 84 88 90 90 89 89 89 86 80 80 76 70 67 67 67 65 62 50 50 50
93 72 37 22 14 12 13 16 19 21 21 21 22 23 33 46 58 67 74 75 75 76 79 81 83 86 89 91 92 91 89 87 87 83 79 84 79 72 71 67 68 71 67 59 58
92 72 37 22 13 16 17 20 24 29 33 33 32 33 34 36 48 61 66 69 74 75 80 84 84 87 91 93 94 92 91 89 87 84 80 84 90 85 76 71 70 71 72 69 62
91 76 37 22 15 15 17 19 24 25 31 38 40 41 45 44 45 53 61 68 71 75 78 83 84 86 92 94 95 94 92 91 88 85 82 80 89 93 93 86 75 66 66 66 65
89 74 38 26 18 16 17 16 20 26 34 29 33 40 48 52 53 55 59 65 72 73 77 82 86 85 88 94 97 96 95 94 92 87 84 80 81 90 96 95 90 82 71 73 68
87 75 38 27 22 20 20 19 25 32 27 24 23 26 35 44 56 61 61 63 67 72 75 79 84 88 88 93 97 98 96 96 94 93 87 84 82 85 86 92 94 90 85 73 75
87 70 40 28 26 23 18 22 31 35 24 24 19 17 22 31 47 62 66 65 67 70 73 76 79 85 89 91 96 99 99 97 96 95 92 87 83 84 85 84 87 94 92 86 71
88 66 39 28 27 25 23 28 34 36 26 21 18 14 14 22 32 45 61 70 67 67 71 75 78 79 85 90 95 98 99 98 97 97 95 91 86 85 85 85 83 86 95 93 81

GFSSW_250_spd_102.txt.gz
Wind_Speed
15 19 14 13 12 13 16 23 27 30 38 46 49 50 51 49 47 45 42 41 38 37 34 32 29 29 25 25 19 14 14 8 8 7 5 11 16 16 22 31 28 24 22 26 24
16 18 18 15 15 14 15 20 23 30 31 38 48 51 53 52 50 48 46 44 43 40 39 36 34 31 28 25 21 19 16 12 11 6 4 6 12 12 18 27 30 25 21 24 24
17 18 19 19 17 17 17 16 21 28 32 35 40 49 54 54 54 51 49 48 46 44 41 39 35 33 31 27 26 21 19 21 12 10 12 9 10 11 11 18 23 25 21 23 26
20 21 19 20 19 18 21 19 19 24 31 35 37 42 50 56 57 56 53 51 49 48 45 41 37 35 33 31 29 28 24 23 16 21 12 10 8 7 9 13 19 23 26 22 23
23 22 22 22 23 22 22 22 25 23 29 36 39 39 44 51 58 58 58 55 52 50 48 44 41 38 36 33 29 24 28 27 27 21 17 15 14 9 8 7 13 19 22 23 22
26 29 27 30 29 29 29 30 31 31 30 35 42 43 43 46 54 60 60 59 56 53 50 48 45 40 39 35 30 33 29 27 21 17 23 15 12 15 6 4 8 15 16 23 21
29 32 36 35 34 38 40 39 38 39 38 36 42 48 48 47 50 57 62 60 60 57 52 50 48 44 42 38 34 39 31 33 31 28 25 13 13 12 5 2 6 6 11 15 19
33 38 41 43 44 49 49 49 47 49 48 44 44 49 53 53 52 54 60 64 61 60 58 55 52 49 46 43 39 36 34 31 26 24 18 16 19 13 9 8 5 1 8 11 14
38 43 49 52 57 62 62 58 58 56 56 53 50 51 54 58 55 53 57 64 65 62 62 59 55 53 51 48 46 38 35 33 30 25 22 21 19 16 10 10 5 4 3 6 8
46 50 56 65 66 69 68 65 60 58 57 56 56 55 57 59 61 57 57 59 68 68 64 62 61 58 56 54 52 46 39 36 35 28 16 26 32 16 14 13 12 6 5 2 3
50 59 66 70 69 72 67 62 55 52 50 55 57 57 60 63 63 63 60 61 64 70 68 66 65 64 61 56 56 53 46 49 40 36 35 28 37 32 27 29 19 13 6 4 3
57 65 75 72 73 70 66 56 52 48 51 55 57 64 62 67 66 66 66 64 63 70 71 70 69 67 64 61 60 59 55 55 50 48 38 38 42 30 31 28 25 22 12 8 9
63 72 78 78 79 69 61 51 40 38 45 54 60 63 65 67 66 70 70 68 67 67 73 74 74 71 69 66 66 65 68 64 62 54 48 50 36 42 47 33 31 27 21 16 14
68 76 81 81 75 65 49 36 27 23 29 45 58 65 67 69 72 70 72 71 68 68 70 76 75 75 73 73 71 71 70 70 66 63 56 56 49 42 42 40 36 27 24 22 18
72 81 87 83 74 53 39 27 21 19 21 37 52 63 68 70 73 72 73 74 71 68 69 72 79 77 76 77 75 75 73 75 71 68 66 64 58 57 51 48 43 34 28 27 27
74 83 89 82 63 42 30 21 15 15 18 26 48 61 68 71 70 74 71 75 73 71 71 68 75 79 81 80 79 77 77 77 78 76 70 67 66 58 62 55 48 42 33 31 32
78 85 89 76 50 30 21 14 11 11 13 20 36 57 66 73 71 74 72 75 78 74 72 70 73 77 81 81 81 81 80 80 82 77 77 71 70 64 59 56 51 45 40 37 37
79 86 87 69 40 22 14 10 8 5 8 10 24 43 59 71 73 74 74 74 78 79 74 73 75 75 82 82 83 84 85 84 81 85 79 75 69 64 66 59 54 50 50 42 41
79 85 84 65 36 19 12 5 6 3 4 5 13 29 47 63 70 74 73 75 77 81 82 78 78 75 79 86 85 86 84 87 86 83 85 82 79 74 71 68 62 52 50 50 46
80 87 80 62 34 18 12 10 10 9 8 7 10 19 33 51 64 73 74 73 74 77 80 81 78 79 80 86 89 86 88 87 86 85 87 85 81 82 79 76 65 60 54 52 49
80 87 83 61 34 20 15 13 14 17 17 17 16 17 26 38 54 67 73 76 75 73 75 82 81 79 81 84 90 91 89 88 89 86 86 85 80 80 79 77 72 68 61 56 52
80 87 85 60 34 23 16 20 20 21 20 25 27 26 26 35 45 58 70 74 77 75 76 79 84 80 82 83 87 90 91 91 90 87 86 85 84 77 76 76 74 71 70 62 55
78 87 83 59 34 23 18 17 18 20 19 22 27 29 33 33 39 53 63 75 79 79 76 77 80 82 82 80 86 90 94 93 92 89 87 86 88 92 92 87 83 76 73 65 66
79 85 87 64 35 22 17 18 18 17 22 28 28 29 35 36 43 44 59 69 79 81 80 80 81 83 85 90 89 90 92 94 95 93 88 88 93 91 88 85 80 74 79 73 74
79 87 91 71 37 20 17 14 16 19 26 31 24 22 23 34 42 46 50 63 70 76 80 83 84 84 86 83 83 83 87 93 95 96 93 91 91 95 93 90 86 83 78 78 76
79 86 92 72 41 26 19 16 20 25 28 32 22 20 21 24 37 48 55 56 63 73 79 81 89 88 85 83 85 86 89 93 95 97 96 93 91 96 99 93 90 89 87 83 79
79 86 89 79 46 31 28 20 23 30 34 35 26 21 20 18 26 42 55 63 63 65 75 81 84 88 89 87 87 86 89 91 94 95 97 96 96 92 97 101 99 94 91 90 85

GFSSW_250_spd_105.txt.gz
Wind_Speed
11 11 11 11 9 8 11 19 23 27 34 41 47 49 49 48 46 46 42 40 37 34 32 32 30 28 26 19 19 12 12 7 6 4 7 12 17 19 27 29 23 22 21 24 24
9 9 11 13 13 14 13 13 20 25 30 35 43 49 51 51 50 48 47 44 41 38 36 35 32 31 27 23 21 16 11 8 8 5 4 9 14 16 22 25 24 21 23 22 25
11 11 11 11 12 14 17 18 14 18 26 32 37 45 52 53 52 52 49 48 45 43 40 37 34 31 26 26 25 20 18 15 14 8 5 10 13 10 15 21 23 20 22 23 25
12 11 12 13 16 17 18 18 20 21 22 31 35 41 47 54 55 55 53 51 48 46 44 40 37 33 30 30 25 24 22 21 17 8 10 10 8 8 13 15 19 21 22 22 25
19 19 21 20 21 23 24 25 25 28 29 29 35 39 44 50 57 59 57 54 52 49 47 43 40 38 35 33 29 28 25 26 19 15 15 15 7 9 10 8 14 18 20 23 26
23 23 24 24 26 26 28 29 32 34 36 37 38 41 45 47 54 60 61 58 55 53 50 49 45 42 40 37 33 34 24 28 24 25 26 17 8 8 10 2 7 13 18 19 24
29 27 26 29 31 34 37 39 43 47 46 45 43 42 47 48 52 58 63 62 59 56 53 51 50 45 43 41 37 32 32 32 33 24 18 20 11 12 8 3 4 8 13 16 18
32 28 32 36 40 45 47 51 54 56 55 53 51 49 44 54 54 56 61 65 64 61 58 55 52 50 46 44 39 31 30 33 27 23 27 21 16 14 9 7 4 3 11 13 16
31 32 36 42 47 52 56 60 63 64 65 62 58 57 53 52 57 57 59 64 67 65 63 60 57 53 50 47 42 36 36 36 29 27 32 22 21 16 9 9 5 4 5 9 13
31 36 42 46 54 60 63 68 71 68 63 60 58 62 62 57 56 60 61 63 68 69 66 65 61 57 53 50 47 34 38 35 39 30 27 22 23 14 12 10 6 5 4 5 8
35 41 47 56 62 70 71 75 66 60 54 54 54 59 66 64 63 62 66 65 67 70 70 67 65 61 59 55 52 45 27 40 41 29 34 33 30 30 20 16 11 6 7 4 3
39 47 54 62 71 71 76 69 59 44 43 50 53 57 63 67 66 65 67 69 68 70 73 71 70 68 61 57 60 61 53 46 38 39 37 35 35 27 31 31 27 19 13 7 5
46 52 60 70 77 76 71 58 37 28 30 40 52 56 61 67 68 69 69 72 72 71 72 75 74 71 67 67 65 64 57 52 35 43 45 38 41 32 30 30 29 26 23 13 9
50 57 66 73 78 72 60 44 29 21 19 26 47 57 60 67 70 71 70 74 74 71 73 76 76 71 72 70 69 67 60 54 42 50 50 45 36 41 33 32 36 32 26 22 17
53 60 70 77 74 67 52 36 26 20 13 14 31 56 61 66 67 72 72 72 76 74 73 74 75 74 76 75 73 69 67 59 59 48 54 53 44 46 49 41 39 40 33 30 23
55 63 71 75 73 62 44 31 24 18 12 8 19 43 64 67 70 71 73 73 76 76 74 77 76 78 79 78 75 73 76 77 68 65 65 59 55 46 53 49 47 45 40 37 27
56 64 74 76 70 58 39 22 20 17 12 8 10 28 54 69 73 74 75 76 77 80 79 75 72 76 79 78 79 80 80 77 74 73 70 62 61 59 53 58 55 52 47 46 36
57 66 74 78 76 57 37 20 11 7 9 11 7 17 39 60 72 75 77 78 79 82 83 79 80 78 79 80 81 85 85 83 79 78 75 74 61 63 61 60 55 51 51 46 41
59 66 74 80 82 58 34 22 13 9 5 4 6 7 25 49 64 73 77 80 80 83 87 81 83 84 82 83 85 88 88 88 90 80 81 75 62 64 70 68 65 60 56 50 43
59 67 75 83 82 60 33 20 15 13 12 6 4 5 13 36 56 68 75 80 81 83 85 82 82 79 81 83 85 89 92 91 90 91 87 81 77 70 66 69 71 70 63 60 50
60 67 75 83 86 63 32 22 19 16 15 18 13 10 12 20 46 63 70 75 77 79 78 82 83 81 80 83 87 90 90 93 94 95 94 90 79 74 72 67 68 64 70 65 55
60 66 73 81 87 71 32 23 18 19 15 14 20 21 18 21 28 53 66 73 73 78 79 82 85 81 79 82 86 91 94 95 97 95 96 97 95 88 83 79 70 73 67 64 62
59 65 71 78 85 78 37 25 22 17 19 16 13 15 22 30 30 37 59 70 76 79 81 80 81 84 83 81 83 85 90 95 97 100 102 102 104 90 92 84 78 71 71 69 67
59 63 70 74 83 79 45 30 26 17 14 16 18 23 26 31 35 39 47 63 73 77 79 79 83 87 89 90 86 90 91 93 98 100 100 103 108 106 87 92 88 83 79 78 75
59 62 68 73 78 77 60 31 26 24 20 21 23 23 22 25 36 40 47 55 67 75 80 81 85 86 90 90 89 87 88 91 94 98 100 100 106 103 106 88 88 97 86 80 80
59 62 67 70 73 77 74 34 26 22 23 22 27 28 17 21 30 38 47 52 61 71 80 84 86 85 84 89 88 89 85 87 89 95 98 100 98 105 104 104 90 86 94 85 85
58 64 67 70 71 77 73 43 30 24 25 27 31 25 19 17 25 34 41 53 58 67 75 83 86 88 87 86 86 90 90 89 90 90 97 101 101 108 99 101 102 91 83 85 82

GFSSW_250_spd_108.txt.gz
Wind_Speed
13 11 11 10 11 11 11 12 18 19 25 32 39 43 45 45 44 44 40 38 36 32 31 30 29 26 26 15 17 11 8 1 4 4 9 15 21 25 29 27 22 20 21 23 23
9 9 9 10 11 11 12 12 13 15 22 25 32 40 45 47 47 45 45 42 40 37 34 33 30 29 21 18 17 12 1 6 6 11 9 13 17 20 25 28 21 21 23 23 24
14 13 13 13 13 14 14 16 17 16 18 25 29 34 42 47 49 48 47 46 43 42 38 35 32 30 26 23 24 19 11 11 14 12 9 13 17 15 20 24 22 20 23 22 23
22 20 19 18 18 16 18 21 21 21 20 20 26 33 38 44 50 49 49 49 48 45 43 39 37 33 29 29 27 26 17 31 30 16 11 12 14 11 17 18 22 19 21 21 22
27 27 23 23 24 23 24 24 25 24 25 26 25 27 36 41 47 53 54 52 51 49 46 44 40 38 33 32 33 28 22 28 15 11 9 16 10 8 13 11 16 16 18 20 23
30 30 29 27 27 26 28 30 30 32 33 35 34 34 33 37 49 51 56 56 54 53 51 48 45 41 38 36 36 36 32 32 21 16 14 19 17 7 10 5 12 14 15 17 18
34 34 31 29 29 30 33 36 38 40 44 45 44 43 42 36 49 51 56 60 58 57 54 52 49 46 42 39 39 35 29 32 28 17 24 23 19 7 6 3 7 11 14 12 15
33 33 31 27 31 35 39 42 47 51 54 54 56 55 47 50 52 52 56 60 63 60 58 57 53 49 46 44 41 34 29 31 32 26 20 20 18 12 7 5 2 7 9 11 14
35 32 29 31 34 39 46 53 57 61 67 65 68 65 63 61 56 55 59 60 63 65 61 60 57 53 48 47 43 39 33 31 37 33 26 24 22 14 7 6 4 4 6 10 11
35 33 31 37 42 47 55 60 66 72 77 79 76 74 69 64 64 62 61 63 64 66 66 64 60 55 52 49 46 40 30 32 37 32 29 30 30 22 10 7 7 4 3 6 10
38 35 34 42 46 56 62 69 73 79 76 69 62 61 61 64 67 67 67 67 65 66 69 67 64 59 55 54 47 46 44 23 40 30 30 34 29 20 18 15 11 5 4 1 6
41 37 39 45 54 63 70 76 79 70 54 47 44 47 57 61 66 71 71 68 67 68 70 69 68 66 61 56 52 53 47 48 41 41 35 34 31 25 29 21 16 9 4 5 1
42 38 43 49 59 67 74 76 67 46 35 31 32 38 52 62 68 73 77 71 69 70 70 72 74 71 64 59 56 55 49 50 48 47 39 39 40 33 38 25 26 24 23 18 8
43 40 46 54 60 67 75 70 53 36 28 22 24 34 49 59 69 74 78 75 72 72 71 73 76 72 69 68 69 64 63 57 52 50 48 44 43 41 42 31 32 30 27 20 19
43 43 49 57 62 68 68 62 41 30 23 14 18 30 46 58 64 74 78 78 74 73 73 72 76 74 74 74 71 71 75 44 58 48 51 48 48 36 39 36 29 32 30 26 24
45 44 51 60 65 69 66 54 32 25 20 13 10 22 39 57 67 71 74 80 77 74 74 76 77 76 78 77 77 78 63 53 57 54 52 51 56 51 41 41 32 41 34 31 29
46 46 53 59 67 71 69 44 24 17 19 14 11 11 30 52 63 70 74 79 77 76 76 78 74 73 77 83 79 78 78 65 62 57 51 58 61 56 47 42 40 41 44 36 36
44 47 54 61 68 73 73 42 23 14 8 13 12 7 18 47 59 64 71 77 79 78 80 83 78 75 83 85 81 82 86 79 73 58 49 57 61 50 49 48 48 43 40 40 39
42 47 55 60 68 73 70 45 27 16 13 8 7 7 6 34 56 61 68 73 79 80 83 86 84 84 83 87 86 89 87 88 80 78 62 63 62 57 53 50 52 54 50 47 41
40 47 54 60 66 71 71 54 30 21 15 17 9 5 3 15 50 63 70 74 82 86 86 83 81 81 82 84 87 88 91 91 86 81 69 65 70 63 59 54 57 60 57 50 53
40 47 54 61 66 70 71 68 35 24 18 15 20 14 6 8 28 57 69 73 75 81 78 80 82 82 81 81 88 90 93 92 90 88 72 71 71 69 66 62 58 63 66 60 61
41 48 54 61 63 67 68 70 52 25 21 15 14 23 17 14 16 36 65 72 74 75 78 81 82 86 82 81 86 91 94 95 95 96 92 79 84 76 67 64 59 67 64 63 56
43 48 54 61 63 64 64 72 57 33 21 19 15 15 18 25 21 23 43 65 75 78 80 79 78 81 82 82 85 90 95 96 100 102 100 89 92 83 73 75 73 72 75 68 64
42 48 53 58 62 63 62 67 64 34 22 17 17 17 18 20 27 34 34 52 69 77 79 80 83 84 91 88 87 88 95 95 99 104 106 103 92 92 93 78 60 83 74 79 77
42 50 53 56 62 63 61 67 69 41 24 16 18 21 25 29 33 35 42 44 58 72 79 81 83 89 87 91 89 88 91 96 99 103 108 108 103 99 93 94 75 72 69 59 59
43 50 53 56 61 63 67 65 68 59 25 20 18 22 26 30 31 35 42 48 51 65 74 80 84 84 85 88 91 89 91 95 98 101 104 108 111 102 107 85 84 83 70 70 71
46 49 53 54 56 61 66 63 68 66 31 25 25 29 24 24 27 32 38 48 55 58 69 77 81 83 84 88 92 93 91 93 95 98 101 106 113 114 99 86 48 92 92 80 73

GFSSW_250_spd_111.txt.gz
Wind_Speed
14 13 11 12 11 11 10 9 9 9 13 18 24 31 37 39 40 41 38 37 33 31 29 26 27 23 20 15 13 2 4 4 7 8 12 19 26 24 30 25 23 24 25 25 24
16 17 16 16 15 15 13 10 10 10 9 13 20 27 32 39 40 41 41 40 38 35 33 29 28 25 20 19 16 13 12 9 8 9 7 12 18 21 25 24 24 24 24 25 25
21 23 22 20 20 20 19 17 15 14 14 12 13 21 27 34 41 42 43 43 42 39 37 33 30 28 23 23 22 18 17 18 13 7 4 4 13 17 20 23 23 23 22 23 24
27 27 27 27 25 25 26 24 22 21 19 17 15 16 23 28 36 41 45 45 46 43 41 37 34 31 29 27 26 25 22 9 22 15 9 2 6 13 18 19 21 23 21 22 20
30 31 31 31 30 30 31 29 29 26 25 24 22 19 19 24 34 36 45 48 48 48 45 43 39 34 34 30 33 31 21 8 17 8 9 2 3 10 14 13 19 19 21 21 21
29 30 32 35 34 34 32 34 33 32 32 33 31 29 26 23 35 36 42 48 51 50 50 47 44 39 38 35 37 35 23 17 21 16 13 8 4 9 10 9 14 19 17 18 19
34 34 34 34 36 35 34 34 37 39 40 41 41 39 35 35 38 33 40 47 52 54 55 52 48 45 40 40 38 34 25 27 22 22 10 11 11 9 8 6 9 14 16 17 17
39 41 42 37 34 32 32 37 40 46 49 50 51 48 45 45 44 40 38 44 51 56 57 56 54 50 46 45 38 37 38 28 29 23 17 13 17 15 2 4 4 9 14 15 15
44 47 47 40 34 33 37 44 51 54 55 55 58 60 59 53 54 53 48 46 50 56 60 60 59 54 51 51 57 26 44 39 33 28 16 21 16 14 3 3 4 7 12 14 16
46 51 50 39 36 36 43 51 57 56 59 62 66 68 70 72 69 67 61 56 51 57 62 63 64 59 56 56 58 49 42 39 32 32 29 20 22 18 9 4 6 8 8 12 13
52 54 51 39 38 41 48 57 56 58 62 70 69 64 65 70 77 77 73 66 60 55 62 68 66 63 61 60 58 54 48 42 38 37 36 32 25 20 20 11 11 10 7 8 8
55 54 48 40 42 46 55 63 62 64 71 70 57 46 44 54 63 72 77 71 66 65 65 66 69 69 67 62 61 57 52 46 44 43 41 36 29 31 25 19 15 11 12 5 6
51 50 47 42 44 51 60 68 69 73 72 51 41 37 37 42 54 68 76 76 70 71 64 65 74 74 71 66 63 61 54 43 44 46 46 38 38 34 29 27 20 12 7 4 8
51 51 47 42 46 54 65 69 73 74 49 33 30 28 25 32 47 63 74 81 75 74 68 69 74 76 73 69 67 64 59 50 42 45 50 38 41 38 37 32 24 17 18 16 9
51 49 45 39 49 59 63 68 71 61 37 27 25 22 21 27 43 61 71 78 79 78 74 73 75 76 76 72 68 67 68 64 50 49 56 46 43 46 40 29 26 23 19 25 15
51 47 39 41 50 56 60 64 61 47 29 25 22 18 16 24 39 59 70 75 80 79 75 72 75 78 78 78 70 71 74 72 65 56 50 52 50 49 42 38 31 28 25 28 23
48 43 36 43 49 54 58 57 55 45 30 16 20 18 12 21 38 57 68 74 76 78 79 76 76 76 80 78 77 77 76 70 75 65 54 58 57 52 44 42 42 39 39 37 28
45 34 34 43 51 52 56 65 63 47 30 15 15 18 13 15 36 53 66 73 76 79 81 81 80 78 78 79 80 83 83 75 71 69 67 61 56 59 53 48 43 39 40 35 32
37 29 35 42 51 53 55 64 63 58 31 18 16 12 16 12 27 51 64 74 79 83 88 83 82 85 82 87 89 85 80 79 77 68 64 66 52 53 61 49 47 44 43 37 39
26 29 34 44 51 54 53 62 65 61 40 21 15 15 11 11 20 45 62 71 79 84 82 85 81 81 80 86 90 88 84 80 78 74 69 68 64 51 57 63 54 49 38 44 42
23 29 35 42 47 49 53 60 62 63 57 25 15 13 13 10 13 35 59 66 71 74 79 80 80 80 80 80 87 87 87 86 83 70 71 65 66 61 55 58 60 54 42 44 44
24 28 37 42 48 50 53 55 63 68 64 34 15 12 13 15 11 22 46 60 70 74 77 78 79 78 79 80 87 91 93 97 96 81 73 65 68 66 63 59 57 50 44 48 48
25 31 38 40 46 47 50 54 58 67 61 46 23 12 12 15 17 15 34 53 62 71 77 81 83 81 83 86 86 93 94 99 99 98 84 76 60 68 68 60 56 53 56 50 57
25 33 39 40 45 46 47 52 55 61 64 58 29 18 13 16 20 27 22 39 62 67 76 82 85 85 85 86 88 90 92 98 102 101 99 90 85 71 74 71 68 63 62 61 60
31 35 37 39 44 45 49 52 56 60 62 56 41 23 18 23 25 27 30 30 45 63 73 79 87 89 87 87 90 91 92 96 101 100 101 103 91 83 76 71 67 65 63 60 64
32 34 37 40 45 48 50 52 55 61 61 58 58 24 22 25 30 35 30 37 43 57 74 80 83 90 86 87 92 93 93 93 97 105 107 115 98 87 78 63 65 63 67 58 56
34 35 38 41 45 49 51 52 55 60 63 60 60 33 25 29 31 35 38 36 46 52 64 80 84 86 84 91 90 95 93 92 96 107 109 114 103 93 89 74 60 69 58 50 58

GFSSW_250_spd_114.txt.gz
Wind_Speed
15 18 18 18 16 14 13 12 9 7 6 13 19 26 33 36 35 37 38 36 33 31 27 26 23 22 18 16 13 1 3 3 6 8 15 19 23 26 28 29 27 25 23 23 23
19 19 19 21 19 19 18 16 13 11 9 7 12 18 26 34 37 38 40 40 37 35 32 29 25 25 21 18 17 12 9 14 9 2 12 16 20 23 25 28 27 23 21 23 23
22 23 23 22 24 25 24 23 19 17 16 13 12 13 20 27 34 38 41 43 41 38 36 33 29 28 26 22 21 15 10 14 6 2 7 10 15 19 22 25 26 24 21 21 22
22 24 24 24 25 27 29 29 26 24 23 22 18 16 17 24 28 36 42 44 45 43 41 37 34 31 29 27 24 20 17 18 22 6 2 7 8 17 18 22 23 26 23 19 19
24 26 28 29 30 30 29 30 33 30 29 29 26 23 21 21 29 33 40 44 47 46 45 43 38 36 33 31 29 28 25 4 27 17 8 3 6 13 16 17 21 24 24 23 22
28 30 32 35 38 36 31 27 31 33 35 34 35 33 30 28 26 30 36 43 47 49 50 48 43 39 36 34 34 35 23 11 12 9 12 7 1 8 14 12 16 20 23 21 23
33 37 38 36 41 40 33 33 31 35 39 41 43 43 37 35 32 25 33 40 46 51 54 51 48 44 40 41 42 36 25 16 9 10 12 13 7 3 10 10 12 17 19 24 25
39 39 40 45 41 39 35 33 35 39 43 47 46 45 41 40 40 34 31 35 44 51 56 55 53 49 48 47 42 34 31 24 14 27 21 18 9 3 4 6 7 13 18 20 21
41 45 47 46 40 38 34 35 39 43 50 46 48 49 48 47 47 47 44 42 39 49 59 59 58 54 52 50 49 43 38 43 35 37 28 23 10 7 3 3 7 11 18 20 19
45 44 44 44 40 39 36 37 43 48 47 44 47 50 54 56 56 59 51 52 50 44 52 63 63 62 58 58 55 52 35 52 44 44 32 23 18 13 11 5 9 10 11 15 15
45 46 48 44 41 38 38 42 50 51 51 48 50 55 61 64 67 70 69 60 57 51 49 60 68 69 64 61 60 52 53 45 48 37 33 26 28 17 14 6 13 15 11 12 14
47 46 47 44 41 35 39 47 54 57 56 52 57 58 63 67 72 76 77 76 69 67 59 56 71 73 68 66 64 57 46 47 49 38 34 32 28 21 19 13 12 16 14 12 11
46 48 48 42 36 33 41 51 58 62 61 61 49 40 37 38 51 67 75 80 82 76 69 68 69 76 74 71 71 69 57 45 43 48 39 40 34 26 23 18 18 16 17 9 5
48 51 49 38 30 33 44 53 56 63 64 54 40 32 27 28 36 51 67 81 84 84 82 76 68 77 78 74 74 73 72 65 54 49 46 48 42 39 33 24 23 22 18 15 10
50 51 43 32 26 34 44 50 56 60 58 50 36 30 25 23 27 40 56 75 88 88 85 82 75 75 78 79 76 75 71 63 61 56 52 47 40 41 38 32 33 29 23 17 14
51 46 37 26 26 35 45 47 53 59 63 51 32 25 25 21 18 32 50 69 85 89 90 85 78 70 78 79 78 76 73 65 63 60 58 49 46 47 40 37 34 29 25 22 17
48 39 29 22 28 35 43 44 50 61 65 56 35 25 24 21 15 24 41 61 78 87 97 90 84 78 76 76 80 77 74 69 66 59 56 53 53 50 48 43 41 38 32 29 27
42 31 20 22 29 35 42 41 49 56 66 63 34 26 23 19 13 20 36 59 76 86 95 94 87 80 76 77 80 82 80 75 72 60 52 56 57 57 50 46 44 36 37 28 30
35 21 16 23 31 35 40 40 45 53 59 64 43 25 19 18 13 13 30 53 72 88 91 91 86 83 81 84 85 87 87 83 79 73 57 58 60 64 58 53 49 39 39 39 37
27 17 17 25 31 35 40 41 43 53 57 63 57 32 22 16 13 8 29 48 65 75 84 88 88 82 79 80 82 87 86 83 81 79 73 64 65 66 66 57 50 44 46 46 38
19 16 17 26 31 34 40 46 44 50 54 61 58 38 22 16 11 10 22 42 59 70 79 82 83 81 83 79 81 86 86 86 85 83 82 72 66 66 62 63 58 51 47 45 39
16 15 19 27 30 33 38 43 47 48 51 55 59 54 24 15 15 9 12 38 55 68 76 81 83 81 82 79 80 85 91 90 88 88 86 80 73 67 64 64 60 58 54 51 47
16 17 24 28 30 35 38 43 46 49 49 52 58 54 33 20 13 15 13 28 51 64 76 83 83 83 83 81 85 86 91 91 90 86 85 83 78 67 66 65 62 60 62 54 51
17 21 25 28 31 33 36 42 45 48 48 51 56 58 52 21 17 16 18 19 42 59 71 82 82 85 85 84 84 86 90 93 95 94 88 79 80 73 63 60 58 62 66 65 61
18 22 26 28 30 35 38 40 45 48 49 48 53 58 48 41 19 20 23 27 30 56 69 76 84 85 85 87 84 88 90 98 98 96 94 87 81 76 61 49 64 56 61 60 68
19 22 25 31 32 35 39 39 43 44 47 50 51 58 51 54 26 24 26 32 35 41 61 73 82 85 87 89 86 86 94 94 98 98 98 92 79 82 80 54 60 59 59 56 53
27 34 35 37 35 37 40 42 43 43 46 48 51 56 55 54 33 30 29 28 36 45 52 68 78 82 88 91 89 89 92 95 99 101 100 94 89 80 80 78 64 63 56 54 53

GFSSW_250_spd_117.txt.gz
Wind_Speed
13 15 16 17 18 17 16 15 13 10 6 10 15 23 31 36 36 37 39 37 34 33 29 25 23 22 21 18 12 3 4 0 7 11 19 24 26 27 29 31 28 25 25 24 24
14 16 16 17 18 19 20 21 18 16 14 11 11 17 22 30 38 38 42 41 38 35 33 30 27 24 23 21 20 12 6 3 6 7 18 22 22 23 26 29 28 26 23 25 26
14 17 19 21 21 22 20 21 23 22 20 19 16 15 20 25 31 39 41 44 42 39 38 34 29 27 26 25 21 18 13 10 3 12 12 15 19 18 22 27 28 25 21 21 24
15 20 22 24 27 25 26 24 22 23 24 25 24 22 19 22 29 34 41 43 45 43 41 38 33 31 29 28 22 15 10 8 7 9 7 8 13 15 19 23 26 26 27 24 23
19 23 28 28 29 29 30 28 25 24 25 29 28 30 27 24 26 33 39 44 47 47 46 43 38 35 32 31 27 22 16 9 15 12 4 6 11 12 17 20 24 26 27 26 31
24 28 34 35 35 36 31 30 27 25 27 28 33 35 35 33 30 32 38 43 48 51 50 45 43 40 36 36 32 28 19 12 13 23 9 4 5 9 13 17 20 24 27 29 32
31 34 35 35 36 34 34 30 28 29 29 29 34 36 41 40 37 31 36 41 48 53 54 50 47 44 41 39 36 35 25 16 10 17 26 11 3 4 10 13 16 20 23 26 28
33 35 35 37 39 38 35 32 30 28 31 33 37 36 39 42 42 40 37 36 43 52 55 54 51 50 46 43 40 39 26 17 13 16 20 9 6 2 3 9 16 18 21 23 26
31 34 38 40 39 37 38 31 29 30 33 36 37 39 37 40 44 46 45 41 40 46 52 57 57 55 52 48 47 42 34 30 19 29 21 18 9 5 6 7 12 17 19 19 25
34 37 42 40 41 41 38 32 31 34 35 37 38 38 38 42 44 42 49 47 43 40 47 54 61 60 57 54 53 49 43 38 27 29 30 28 19 13 10 11 13 12 14 17 16
39 42 43 41 41 44 37 32 29 35 39 42 46 43 43 44 48 50 52 51 48 47 45 49 59 66 63 57 57 56 53 51 39 41 31 33 27 19 15 12 15 14 15 15 15
41 45 43 42 44 41 36 28 28 36 43 49 53 52 53 52 53 55 59 59 56 56 53 53 57 67 66 64 63 61 54 60 48 33 37 39 32 25 19 16 16 18 15 14 14
44 45 43 45 44 37 33 26 32 41 47 53 55 47 37 40 49 64 71 72 69 64 65 64 59 65 70 70 69 66 62 60 60 47 40 41 34 27 25 17 19 17 17 12 13
46 46 45 46 41 33 26 28 36 44 49 49 53 47 30 28 38 52 69 81 80 76 72 68 65 64 70 73 73 70 65 60 61 55 48 44 39 31 30 23 20 20 16 14 14
48 47 46 43 33 25 22 30 38 43 43 46 54 52 31 22 24 38 52 68 88 88 81 74 70 66 65 74 78 75 69 69 56 56 53 50 45 40 34 27 27 24 20 14 15
46 46 43 34 25 17 22 29 36 36 39 44 53 58 36 24 21 26 36 50 70 94 94 86 78 74 69 70 77 77 73 73 71 62 60 60 51 45 41 36 30 28 25 20 16
45 42 36 25 14 16 22 29 34 36 40 45 53 59 41 27 20 24 25 38 56 80 98 95 87 82 75 67 73 81 78 72 64 65 61 62 58 54 48 42 37 34 30 26 20
41 36 28 20 13 18 22 28 33 38 41 47 52 59 53 28 22 23 21 31 50 70 87 97 90 85 81 74 72 85 85 81 78 70 64 62 60 59 54 49 42 41 39 31 30
37 29 21 14 14 20 23 28 33 38 43 45 50 56 61 34 26 21 19 27 43 58 74 90 95 88 86 82 78 84 89 88 87 82 70 70 65 60 60 52 46 43 43 36 33
31 24 17 13 16 21 23 29 33 38 43 46 47 52 59 48 28 21 19 21 36 52 68 85 93 93 90 88 80 79 90 92 89 81 74 73 70 66 62 55 47 48 47 44 37
27 20 16 14 19 22 26 29 33 37 42 45 46 49 54 52 31 24 17 17 30 46 61 78 92 97 94 87 83 81 85 92 91 80 77 76 75 73 65 58 52 51 51 47 43
25 18 16 16 22 27 28 29 33 36 41 43 45 46 48 54 52 27 20 13 24 40 54 71 87 95 96 91 88 87 84 90 93 82 76 69 75 72 67 62 57 55 53 51 47
22 17 18 22 25 28 29 32 33 34 39 41 43 46 44 47 49 40 22 17 17 32 44 64 81 91 97 94 92 88 83 85 89 85 80 73 71 69 69 66 62 60 58 57 49
24 22 22 23 25 28 32 35 36 37 39 41 41 44 45 46 48 48 28 19 15 25 42 57 74 86 93 95 91 87 83 84 88 90 85 85 76 70 67 68 68 66 63 63 60
23 25 24 23 29 35 36 38 40 41 41 42 42 41 43 43 46 50 39 22 20 19 35 53 65 81 87 91 92 87 85 85 87 88 87 88 86 78 68 68 69 69 73 67 63
25 31 33 36 42 43 42 42 42 45 46 46 42 42 42 43 43 48 42 25 26 26 25 44 62 75 85 89 90 86 85 85 86 89 89 90 88 86 81 70 74 71 69 73 67
34 37 40 43 47 51 52 53 50 46 48 47 45 45 42 43 44 45 42 34 28 32 33 39 56 70 81 88 90 87 86 86 88 90 91 92 90 83 84 80 80 76 71 70 70

GFSSW_250_spd_120.txt.gz
Wind_Speed
10 11 14 14 16 17 15 15 17 15 13 9 12 18 23 31 35 34 38 38 34 32 29 25 23 19 17 17 11 5 3 8 7 14 21 20 23 26 23 27 26 23 25 26 26
9 11 15 16 18 18 18 18 16 15 16 15 13 12 18 25 32 36 36 40 38 36 34 29 25 22 20 22 16 8 7 4 7 9 15 16 22 25 26 27 29 27 27 27 28
10 14 17 21 21 21 24 24 23 18 16 18 18 17 14 20 27 34 39 39 42 39 37 33 28 26 23 26 21 18 15 8 6 7 13 13 22 23 28 27 30 28 28 27 29
14 17 21 24 27 27 27 27 24 24 20 19 21 22 21 20 23 29 37 41 43 44 40 37 32 30 27 31 28 21 16 11 9 8 7 12 18 21 26 28 29 30 33 32 30
20 23 26 28 28 28 29 30 28 24 24 22 21 24 26 26 25 26 33 40 45 47 45 41 37 34 32 31 30 25 17 14 9 5 4 7 14 18 21 26 30 29 32 35 36
24 28 28 31 27 31 32 31 29 28 26 24 24 24 27 31 29 28 30 38 45 49 48 46 42 40 36 33 32 26 17 17 15 10 9 5 10 14 18 21 28 27 28 31 31
24 26 27 30 31 35 33 32 30 31 27 26 24 25 27 27 31 33 31 32 39 47 51 50 48 45 41 37 36 31 24 20 22 22 16 7 3 8 14 19 24 24 26 29 32
22 24 28 30 34 35 33 31 33 32 29 28 28 27 26 26 28 32 37 36 36 43 50 53 53 51 46 42 40 36 28 24 22 20 20 19 8 5 12 14 23 22 23 26 31
26 28 32 33 37 37 35 35 36 35 30 29 30 27 29 31 32 33 39 41 41 41 46 53 55 56 52 48 45 42 39 24 17 18 16 17 8 5 13 12 21 22 21 24 25
30 33 34 36 38 38 37 39 39 33 31 29 25 27 31 35 36 39 42 46 48 47 44 51 56 60 57 53 49 48 43 31 20 19 25 23 16 10 12 8 17 20 19 19 21
34 36 36 37 41 40 40 41 38 33 32 27 27 34 41 43 34 38 44 48 52 53 51 53 58 64 61 57 55 55 46 38 32 34 28 27 20 14 11 8 10 19 20 17 17
39 39 40 41 42 42 41 40 34 31 25 28 35 39 42 48 46 41 48 52 54 57 59 58 60 64 66 63 61 59 55 43 36 39 38 28 33 26 15 12 14 18 19 17 18
41 42 43 44 44 43 40 35 27 21 26 33 35 40 44 48 42 40 46 54 57 59 64 63 65 67 69 68 66 65 60 54 47 44 41 39 34 25 22 13 18 20 19 19 16
43 43 44 44 42 41 37 26 19 22 27 33 36 40 43 47 41 35 47 61 62 69 69 70 67 67 70 72 71 69 68 60 53 51 47 39 33 33 27 19 24 22 20 20 18
40 40 39 41 39 37 28 16 19 22 28 33 37 41 40 43 35 32 42 57 72 72 76 72 73 69 69 76 76 73 71 69 58 56 46 42 39 41 28 25 28 26 21 20 20
39 38 40 40 35 30 16 16 20 23 28 33 39 41 42 44 35 23 36 50 67 80 80 80 76 76 74 74 76 76 73 74 69 61 54 48 46 46 37 35 29 28 26 22 18
40 41 39 35 29 19 14 18 21 25 28 34 40 43 44 44 45 20 22 35 54 75 88 82 82 80 76 72 78 80 80 78 76 72 61 57 51 47 44 39 35 33 30 25 22
45 39 34 28 23 16 17 21 23 27 30 34 39 43 46 45 46 27 16 21 35 57 79 89 86 84 80 76 79 84 85 83 79 76 75 68 59 52 53 47 41 37 34 31 26
40 34 29 26 19 16 17 21 24 28 33 36 39 43 44 45 46 47 23 18 18 38 59 84 95 89 85 83 78 81 83 85 82 79 71 70 66 62 56 54 49 42 37 35 32
36 32 29 25 18 18 20 23 26 30 33 36 39 43 45 47 45 47 41 23 15 23 44 66 91 96 90 83 80 77 75 86 86 84 79 72 68 66 63 57 56 54 44 41 37
35 31 26 22 18 20 23 27 30 32 36 36 39 42 44 47 46 45 47 26 21 15 29 49 73 98 96 90 88 83 81 85 88 87 84 81 70 69 65 63 61 58 50 46 46
32 27 24 22 20 24 29 31 31 33 37 40 39 43 43 45 46 44 44 43 22 17 21 36 58 84 102 99 94 89 85 81 89 88 89 80 74 71 71 68 66 59 54 48 50
31 24 24 24 25 25 28 29 33 37 41 42 43 44 44 43 44 44 41 42 36 21 15 25 48 73 100 104 98 93 86 82 83 90 88 82 81 73 73 75 71 68 61 52 52
30 23 24 25 28 31 33 35 38 44 45 46 45 46 47 43 40 37 40 39 37 29 19 21 38 63 90 104 101 95 91 86 82 89 88 88 89 81 77 77 74 70 66 61 55
25 24 26 29 33 38 42 46 50 52 54 52 50 47 44 42 38 36 37 36 37 36 24 20 30 51 72 98 104 100 96 92 87 84 90 95 93 87 84 81 79 72 69 66 61
31 29 28 33 38 41 46 50 53 51 41 38 38 38 37 35 34 34 34 36 34 34 33 25 24 40 61 83 98 104 100 97 90 87 86 95 89 87 84 85 82 79 78 71 67
36 35 36 38 38 42 47 48 48 37 40 43 43 44 38 32 34 32 32 37 36 35 38 29 29 32 52 71 91 100 98 96 94 88 85 89 89 87 85 82 82 85 83 80 73

GFSSW_250_spd_123.txt.gz
Wind_Speed
6 8 10 11 13 14 15 15 14 12 10 8 6 10 17 23 32 34 33 36 35 31 27 25 20 18 18 19 10 5 3 4 10 22 20 20 25 28 26 23 23 26 27 24 17
3 7 10 14 15 16 16 16 16 14 13 12 12 10 11 17 24 34 36 36 38 34 32 29 24 21 21 23 16 10 10 3 8 17 18 19 24 25 25 24 24 25 25 27 19
7 9 12 16 19 18 17 18 19 19 15 16 14 17 15 15 19 25 34 37 40 39 36 33 29 25 24 26 20 17 11 6 3 12 16 17 22 24 24 26 26 24 27 27 20
13 16 19 21 17 18 18 20 22 21 19 16 18 17 22 20 19 22 28 37 40 41 41 37 34 31 27 27 24 19 14 11 6 0 8 13 16 21 24 27 27 29 26 26 23
16 19 21 21 20 21 20 24 24 22 19 18 18 19 20 25 23 22 24 31 39 43 44 42 38 36 30 31 32 24 20 13 10 7 8 8 12 16 22 25 25 25 24 26 25
16 19 20 22 21 23 24 26 26 23 21 22 20 21 20 23 28 27 24 26 33 41 44 47 43 40 36 34 37 28 20 16 17 8 7 4 10 12 17 23 26 28 30 31 30
18 17 18 21 23 27 27 28 28 26 25 25 22 21 21 23 24 29 31 30 31 37 43 47 48 46 42 38 39 35 29 22 19 6 6 7 4 9 14 20 25 28 30 33 36
21 22 22 25 28 29 30 30 30 27 28 27 23 21 21 21 22 27 32 36 36 36 40 46 51 50 47 42 39 39 32 29 23 16 15 11 8 9 13 19 23 24 26 27 30
25 27 29 30 31 33 32 32 33 31 31 29 25 21 23 24 24 27 31 39 44 43 43 47 52 55 52 47 43 43 39 31 26 24 18 15 11 14 12 17 23 22 23 23 24
31 32 34 34 36 37 37 37 36 33 33 27 21 21 19 20 24 28 31 37 47 51 50 51 55 58 57 53 48 48 44 37 32 26 19 20 17 14 12 14 19 23 20 18 21
36 38 39 39 41 41 40 39 36 34 30 23 16 15 20 24 30 34 35 38 44 56 57 58 60 62 62 58 53 52 48 39 33 25 28 24 19 13 13 10 11 21 20 16 15
40 42 43 44 43 40 40 38 34 32 24 15 14 20 25 29 33 36 37 36 46 57 62 62 64 66 67 63 58 56 52 43 35 33 30 30 26 21 15 10 12 15 23 18 15
41 42 42 42 40 38 36 35 33 24 16 12 15 21 25 31 37 41 41 39 42 56 63 63 64 70 71 68 64 62 59 50 44 41 34 37 30 27 21 11 17 16 21 22 17
39 39 37 36 36 34 36 33 27 18 13 14 17 22 27 32 36 40 42 36 42 56 63 66 65 68 74 73 70 68 65 55 53 49 51 40 38 34 27 19 22 21 21 23 20
36 38 37 37 38 35 33 27 20 17 16 16 18 22 27 35 40 42 43 33 36 55 64 71 70 71 76 78 75 72 71 62 58 54 52 47 39 33 34 27 29 27 23 26 23
39 39 38 41 36 32 27 23 18 16 18 19 21 23 27 33 38 42 43 30 28 44 67 70 75 76 78 81 79 77 74 72 60 58 56 54 48 41 39 34 33 29 25 26 26
42 41 39 38 33 28 24 19 18 16 20 24 24 28 29 32 38 42 42 37 23 32 55 73 77 82 80 82 82 83 81 78 73 63 59 61 58 52 43 37 35 37 32 28 26
45 42 39 34 29 27 23 18 18 19 23 27 30 32 34 35 38 41 43 40 22 25 41 68 81 85 84 84 87 88 86 82 81 70 67 65 62 56 48 43 38 42 38 32 29
43 39 37 32 27 24 19 16 20 21 23 28 32 34 36 38 40 41 42 42 36 21 34 51 78 83 86 85 86 89 88 86 83 77 73 73 68 59 54 54 46 45 42 38 34
39 37 34 31 23 20 16 19 23 26 29 33 35 37 39 41 42 43 42 42 37 24 23 40 66 83 88 86 85 90 91 90 88 83 80 72 71 68 61 59 54 51 47 43 38
36 36 33 30 23 18 18 22 26 30 33 35 36 40 43 45 45 44 45 41 38 32 15 29 51 79 90 90 91 88 92 95 94 92 90 81 71 68 65 62 60 55 50 47 43
35 33 33 29 24 22 19 21 27 32 36 39 41 43 50 53 49 43 42 40 36 31 22 15 41 65 88 93 91 91 91 94 98 97 92 87 81 75 68 68 64 62 58 51 50
34 32 30 29 24 24 23 25 29 33 39 44 45 47 40 35 35 33 33 32 31 30 26 15 23 48 76 93 94 92 91 91 100 99 95 89 86 79 77 75 67 68 64 60 54
33 30 24 25 24 26 29 31 35 38 42 46 46 31 34 36 36 31 31 29 28 29 25 22 10 28 58 84 98 98 95 92 95 97 98 93 92 85 82 82 75 73 70 65 60
29 26 25 29 29 29 31 35 37 41 44 45 33 32 38 40 39 34 29 26 27 28 25 23 19 15 39 69 90 101 97 94 92 95 98 96 94 89 84 83 80 79 76 71 65
30 30 31 31 32 32 34 36 39 40 44 39 33 34 39 41 40 33 28 26 25 27 28 24 21 14 26 51 76 92 100 98 94 92 92 97 96 93 92 85 83 82 78 75 72
35 34 32 33 35 36 37 38 40 43 40 35 33 37 41 40 38 30 27 26 27 27 27 27 27 20 16 37 58 84 95 102 100 97 94 96 96 97 93 92 86 86 86 83 81